<?xml version='1.0' encoding='UTF-8'?>
<gpx version="1.1" creator="https://www.komoot.de" xmlns="http://www.topografix.com/GPX/1/1" xmlns:xsi="http://www.w3.org/2001/XMLSchema-instance" xsi:schemaLocation="http://www.topografix.com/GPX/1/1 http://www.topografix.com/GPX/1/1/gpx.xsd">
  <metadata>
    <name>TL2025-6_Berg-Bartholomä</name>
    <author>
      <link href="https://www.komoot.de">
        <text>komoot</text>
        <type>text/html</type>
      </link>
    </author>
  </metadata>
  <trk>
    <name>TL2025-6_Berg-Bartholomä</name>
    <trkseg>
      <trkpt lat="48.263334" lon="9.733438">
        <ele>496.644699</ele>
        <time>2025-05-18T15:55:12.381Z</time>
      </trkpt>
      <trkpt lat="48.263297" lon="9.733300">
        <ele>496.644699</ele>
        <time>2025-05-18T15:55:14.778Z</time>
      </trkpt>
      <trkpt lat="48.263212" lon="9.732988">
        <ele>496.644699</ele>
        <time>2025-05-18T15:55:20.268Z</time>
      </trkpt>
      <trkpt lat="48.263342" lon="9.732913">
        <ele>496.644699</ele>
        <time>2025-05-18T15:55:22.753Z</time>
      </trkpt>
      <trkpt lat="48.264160" lon="9.732447">
        <ele>496.022687</ele>
        <time>2025-05-18T15:55:38.480Z</time>
      </trkpt>
      <trkpt lat="48.264712" lon="9.732188">
        <ele>495.201890</ele>
        <time>2025-05-18T15:55:48.977Z</time>
      </trkpt>
      <trkpt lat="48.265076" lon="9.732070">
        <ele>494.673362</ele>
        <time>2025-05-18T15:55:55.973Z</time>
      </trkpt>
      <trkpt lat="48.265081" lon="9.731856">
        <ele>494.471045</ele>
        <time>2025-05-18T15:55:58.748Z</time>
      </trkpt>
      <trkpt lat="48.265307" lon="9.731559">
        <ele>494.080094</ele>
        <time>2025-05-18T15:56:04.669Z</time>
      </trkpt>
      <trkpt lat="48.265414" lon="9.731372">
        <ele>494.021863</ele>
        <time>2025-05-18T15:56:07.892Z</time>
      </trkpt>
      <trkpt lat="48.265896" lon="9.730534">
        <ele>493.760336</ele>
        <time>2025-05-18T15:56:22.243Z</time>
      </trkpt>
      <trkpt lat="48.266263" lon="9.729879">
        <ele>493.558164</ele>
        <time>2025-05-18T15:56:34.253Z</time>
      </trkpt>
      <trkpt lat="48.266558" lon="9.729349">
        <ele>493.494871</ele>
        <time>2025-05-18T15:56:44.418Z</time>
      </trkpt>
      <trkpt lat="48.266901" lon="9.728910">
        <ele>493.606664</ele>
        <time>2025-05-18T15:56:54.271Z</time>
      </trkpt>
      <trkpt lat="48.267137" lon="9.728680">
        <ele>493.676456</ele>
        <time>2025-05-18T15:57:03.946Z</time>
      </trkpt>
      <trkpt lat="48.269295" lon="9.727049">
        <ele>493.820696</ele>
        <time>2025-05-18T15:58:27.514Z</time>
      </trkpt>
      <trkpt lat="48.269916" lon="9.726661">
        <ele>493.818135</ele>
        <time>2025-05-18T15:58:50.822Z</time>
      </trkpt>
      <trkpt lat="48.270280" lon="9.726487">
        <ele>493.830241</ele>
        <time>2025-05-18T15:59:04.027Z</time>
      </trkpt>
      <trkpt lat="48.270378" lon="9.726528">
        <ele>493.833465</ele>
        <time>2025-05-18T15:59:07.550Z</time>
      </trkpt>
      <trkpt lat="48.270399" lon="9.726481">
        <ele>493.834659</ele>
        <time>2025-05-18T15:59:08.356Z</time>
      </trkpt>
      <trkpt lat="48.270423" lon="9.726432">
        <ele>493.835942</ele>
        <time>2025-05-18T15:59:09.224Z</time>
      </trkpt>
      <trkpt lat="48.270530" lon="9.726398">
        <ele>493.839408</ele>
        <time>2025-05-18T15:59:11.545Z</time>
      </trkpt>
      <trkpt lat="48.270645" lon="9.726351">
        <ele>493.843185</ele>
        <time>2025-05-18T15:59:14.089Z</time>
      </trkpt>
      <trkpt lat="48.270710" lon="9.726238">
        <ele>493.846336</ele>
        <time>2025-05-18T15:59:16.182Z</time>
      </trkpt>
      <trkpt lat="48.271460" lon="9.725970">
        <ele>493.871904</ele>
        <time>2025-05-18T15:59:32.686Z</time>
      </trkpt>
      <trkpt lat="48.271638" lon="9.725975">
        <ele>493.878353</ele>
        <time>2025-05-18T15:59:36.549Z</time>
      </trkpt>
      <trkpt lat="48.271771" lon="9.725863">
        <ele>493.883876</ele>
        <time>2025-05-18T15:59:39.845Z</time>
      </trkpt>
      <trkpt lat="48.271809" lon="9.725831">
        <ele>493.885454</ele>
        <time>2025-05-18T15:59:40.771Z</time>
      </trkpt>
      <trkpt lat="48.272735" lon="9.725463">
        <ele>493.920151</ele>
        <time>2025-05-18T16:00:00.534Z</time>
      </trkpt>
      <trkpt lat="48.272797" lon="9.725442">
        <ele>493.922454</ele>
        <time>2025-05-18T16:00:01.835Z</time>
      </trkpt>
      <trkpt lat="48.272896" lon="9.725406">
        <ele>493.926143</ele>
        <time>2025-05-18T16:00:03.993Z</time>
      </trkpt>
      <trkpt lat="48.273287" lon="9.725207">
        <ele>494.672931</ele>
        <time>2025-05-18T16:00:12.948Z</time>
      </trkpt>
      <trkpt lat="48.273425" lon="9.725185">
        <ele>494.958394</ele>
        <time>2025-05-18T16:00:16.003Z</time>
      </trkpt>
      <trkpt lat="48.273687" lon="9.725221">
        <ele>495.499584</ele>
        <time>2025-05-18T16:00:21.897Z</time>
      </trkpt>
      <trkpt lat="48.273804" lon="9.725181">
        <ele>495.746408</ele>
        <time>2025-05-18T16:00:24.635Z</time>
      </trkpt>
      <trkpt lat="48.273874" lon="9.725102">
        <ele>495.926497</ele>
        <time>2025-05-18T16:00:26.624Z</time>
      </trkpt>
      <trkpt lat="48.274126" lon="9.724639">
        <ele>496.745352</ele>
        <time>2025-05-18T16:00:35.963Z</time>
      </trkpt>
      <trkpt lat="48.274308" lon="9.724360">
        <ele>497.280202</ele>
        <time>2025-05-18T16:00:42.499Z</time>
      </trkpt>
      <trkpt lat="48.274753" lon="9.723858">
        <ele>500.149214</ele>
        <time>2025-05-18T16:00:57.625Z</time>
      </trkpt>
      <trkpt lat="48.275010" lon="9.723658">
        <ele>502.032595</ele>
        <time>2025-05-18T16:01:05.990Z</time>
      </trkpt>
      <trkpt lat="48.275449" lon="9.723452">
        <ele>505.025372</ele>
        <time>2025-05-18T16:01:19.968Z</time>
      </trkpt>
      <trkpt lat="48.275428" lon="9.723360">
        <ele>505.446600</ele>
        <time>2025-05-18T16:01:21.909Z</time>
      </trkpt>
      <trkpt lat="48.275575" lon="9.723311">
        <ele>506.426428</ele>
        <time>2025-05-18T16:01:26.675Z</time>
      </trkpt>
      <trkpt lat="48.276084" lon="9.723298">
        <ele>509.735224</ele>
        <time>2025-05-18T16:01:43.002Z</time>
      </trkpt>
      <trkpt lat="48.277468" lon="9.723505">
        <ele>518.699256</ele>
        <time>2025-05-18T16:02:25.169Z</time>
      </trkpt>
      <trkpt lat="48.278099" lon="9.723600">
        <ele>521.376114</ele>
        <time>2025-05-18T16:02:42.589Z</time>
      </trkpt>
      <trkpt lat="48.278264" lon="9.723624">
        <ele>521.635268</ele>
        <time>2025-05-18T16:02:46.879Z</time>
      </trkpt>
      <trkpt lat="48.278326" lon="9.723633">
        <ele>521.732645</ele>
        <time>2025-05-18T16:02:48.436Z</time>
      </trkpt>
      <trkpt lat="48.278445" lon="9.723648">
        <ele>521.919333</ele>
        <time>2025-05-18T16:02:51.405Z</time>
      </trkpt>
      <trkpt lat="48.278530" lon="9.723654">
        <ele>522.052362</ele>
        <time>2025-05-18T16:02:53.425Z</time>
      </trkpt>
      <trkpt lat="48.278759" lon="9.723664">
        <ele>522.410513</ele>
        <time>2025-05-18T16:02:58.739Z</time>
      </trkpt>
      <trkpt lat="48.278946" lon="9.723673">
        <ele>522.703004</ele>
        <time>2025-05-18T16:03:02.965Z</time>
      </trkpt>
      <trkpt lat="48.279106" lon="9.723681">
        <ele>522.953273</ele>
        <time>2025-05-18T16:03:06.421Z</time>
      </trkpt>
      <trkpt lat="48.279124" lon="9.723683">
        <ele>522.981490</ele>
        <time>2025-05-18T16:03:06.790Z</time>
      </trkpt>
      <trkpt lat="48.279369" lon="9.723699">
        <ele>523.364865</ele>
        <time>2025-05-18T16:03:11.630Z</time>
      </trkpt>
      <trkpt lat="48.279532" lon="9.723710">
        <ele>523.619943</ele>
        <time>2025-05-18T16:03:14.549Z</time>
      </trkpt>
      <trkpt lat="48.279738" lon="9.723720">
        <ele>523.434258</ele>
        <time>2025-05-18T16:03:18.033Z</time>
      </trkpt>
      <trkpt lat="48.279821" lon="9.723726">
        <ele>523.243614</ele>
        <time>2025-05-18T16:03:19.451Z</time>
      </trkpt>
      <trkpt lat="48.279908" lon="9.723731">
        <ele>523.043867</ele>
        <time>2025-05-18T16:03:20.877Z</time>
      </trkpt>
      <trkpt lat="48.279926" lon="9.723733">
        <ele>523.002457</ele>
        <time>2025-05-18T16:03:21.179Z</time>
      </trkpt>
      <trkpt lat="48.280108" lon="9.723745">
        <ele>522.584499</ele>
        <time>2025-05-18T16:03:24.182Z</time>
      </trkpt>
      <trkpt lat="48.280261" lon="9.723755">
        <ele>522.233145</ele>
        <time>2025-05-18T16:03:26.666Z</time>
      </trkpt>
      <trkpt lat="48.280293" lon="9.723758">
        <ele>522.159586</ele>
        <time>2025-05-18T16:03:27.179Z</time>
      </trkpt>
      <trkpt lat="48.280431" lon="9.723768">
        <ele>521.842609</ele>
        <time>2025-05-18T16:03:29.444Z</time>
      </trkpt>
      <trkpt lat="48.280470" lon="9.723770">
        <ele>521.753081</ele>
        <time>2025-05-18T16:03:30.078Z</time>
      </trkpt>
      <trkpt lat="48.280611" lon="9.723781">
        <ele>521.429154</ele>
        <time>2025-05-18T16:03:32.418Z</time>
      </trkpt>
      <trkpt lat="48.280624" lon="9.723782">
        <ele>521.399290</ele>
        <time>2025-05-18T16:03:32.640Z</time>
      </trkpt>
      <trkpt lat="48.280814" lon="9.723830">
        <ele>520.957262</ele>
        <time>2025-05-18T16:03:35.887Z</time>
      </trkpt>
      <trkpt lat="48.280886" lon="9.723901">
        <ele>520.759682</ele>
        <time>2025-05-18T16:03:37.368Z</time>
      </trkpt>
      <trkpt lat="48.281029" lon="9.724146">
        <ele>520.262129</ele>
        <time>2025-05-18T16:03:41.093Z</time>
      </trkpt>
      <trkpt lat="48.281068" lon="9.724225">
        <ele>520.111949</ele>
        <time>2025-05-18T16:03:42.253Z</time>
      </trkpt>
      <trkpt lat="48.281081" lon="9.724252">
        <ele>520.061068</ele>
        <time>2025-05-18T16:03:42.634Z</time>
      </trkpt>
      <trkpt lat="48.281129" lon="9.724348">
        <ele>519.877736</ele>
        <time>2025-05-18T16:03:44.021Z</time>
      </trkpt>
      <trkpt lat="48.281166" lon="9.724423">
        <ele>519.735195</ele>
        <time>2025-05-18T16:03:45.136Z</time>
      </trkpt>
      <trkpt lat="48.281202" lon="9.724496">
        <ele>519.607032</ele>
        <time>2025-05-18T16:03:46.206Z</time>
      </trkpt>
      <trkpt lat="48.281255" lon="9.724602">
        <ele>519.565458</ele>
        <time>2025-05-18T16:03:47.814Z</time>
      </trkpt>
      <trkpt lat="48.281382" lon="9.724879">
        <ele>519.459980</ele>
        <time>2025-05-18T16:03:52.050Z</time>
      </trkpt>
      <trkpt lat="48.281394" lon="9.724908">
        <ele>519.449272</ele>
        <time>2025-05-18T16:03:52.495Z</time>
      </trkpt>
      <trkpt lat="48.281482" lon="9.725154">
        <ele>519.361696</ele>
        <time>2025-05-18T16:03:56.159Z</time>
      </trkpt>
      <trkpt lat="48.281566" lon="9.725428">
        <ele>519.267100</ele>
        <time>2025-05-18T16:04:00.266Z</time>
      </trkpt>
      <trkpt lat="48.281644" lon="9.725694">
        <ele>519.175952</ele>
        <time>2025-05-18T16:04:04.382Z</time>
      </trkpt>
      <trkpt lat="48.281656" lon="9.725740">
        <ele>519.160460</ele>
        <time>2025-05-18T16:04:05.080Z</time>
      </trkpt>
      <trkpt lat="48.281721" lon="9.725976">
        <ele>519.080370</ele>
        <time>2025-05-18T16:04:08.750Z</time>
      </trkpt>
      <trkpt lat="48.281778" lon="9.726169">
        <ele>519.014160</ele>
        <time>2025-05-18T16:04:11.756Z</time>
      </trkpt>
      <trkpt lat="48.281924" lon="9.726665">
        <ele>518.844096</ele>
        <time>2025-05-18T16:04:19.338Z</time>
      </trkpt>
      <trkpt lat="48.282016" lon="9.726954">
        <ele>518.755860</ele>
        <time>2025-05-18T16:04:23.789Z</time>
      </trkpt>
      <trkpt lat="48.282075" lon="9.727119">
        <ele>518.735696</ele>
        <time>2025-05-18T16:04:26.423Z</time>
      </trkpt>
      <trkpt lat="48.282606" lon="9.726645">
        <ele>518.635787</ele>
        <time>2025-05-18T16:04:40.098Z</time>
      </trkpt>
      <trkpt lat="48.282620" lon="9.726631">
        <ele>518.633067</ele>
        <time>2025-05-18T16:04:40.466Z</time>
      </trkpt>
      <trkpt lat="48.282632" lon="9.726620">
        <ele>518.630793</ele>
        <time>2025-05-18T16:04:40.757Z</time>
      </trkpt>
      <trkpt lat="48.282753" lon="9.726470">
        <ele>518.605419</ele>
        <time>2025-05-18T16:04:44.198Z</time>
      </trkpt>
      <trkpt lat="48.282872" lon="9.726804">
        <ele>518.564637</ele>
        <time>2025-05-18T16:04:49.706Z</time>
      </trkpt>
      <trkpt lat="48.283017" lon="9.727180">
        <ele>518.517857</ele>
        <time>2025-05-18T16:04:55.901Z</time>
      </trkpt>
      <trkpt lat="48.283321" lon="9.726814">
        <ele>518.274285</ele>
        <time>2025-05-18T16:05:03.852Z</time>
      </trkpt>
      <trkpt lat="48.283448" lon="9.726680">
        <ele>517.973630</ele>
        <time>2025-05-18T16:05:06.991Z</time>
      </trkpt>
      <trkpt lat="48.283530" lon="9.726635">
        <ele>517.804493</ele>
        <time>2025-05-18T16:05:08.762Z</time>
      </trkpt>
      <trkpt lat="48.283729" lon="9.727192">
        <ele>516.989403</ele>
        <time>2025-05-18T16:05:19.280Z</time>
      </trkpt>
      <trkpt lat="48.283814" lon="9.727431">
        <ele>516.640015</ele>
        <time>2025-05-18T16:05:23.500Z</time>
      </trkpt>
      <trkpt lat="48.284118" lon="9.727207">
        <ele>515.984026</ele>
        <time>2025-05-18T16:05:31.451Z</time>
      </trkpt>
      <trkpt lat="48.284342" lon="9.727046">
        <ele>515.502944</ele>
        <time>2025-05-18T16:05:37.273Z</time>
      </trkpt>
      <trkpt lat="48.284314" lon="9.726974">
        <ele>515.395427</ele>
        <time>2025-05-18T16:05:38.623Z</time>
      </trkpt>
      <trkpt lat="48.284341" lon="9.726949">
        <ele>515.333982</ele>
        <time>2025-05-18T16:05:39.359Z</time>
      </trkpt>
      <trkpt lat="48.284442" lon="9.726856">
        <ele>515.104483</ele>
        <time>2025-05-18T16:05:42.091Z</time>
      </trkpt>
      <trkpt lat="48.284548" lon="9.726758">
        <ele>514.812367</ele>
        <time>2025-05-18T16:05:44.868Z</time>
      </trkpt>
      <trkpt lat="48.284481" lon="9.726575">
        <ele>514.431524</ele>
        <time>2025-05-18T16:05:47.910Z</time>
      </trkpt>
      <trkpt lat="48.284294" lon="9.726070">
        <ele>513.377763</ele>
        <time>2025-05-18T16:05:56.246Z</time>
      </trkpt>
      <trkpt lat="48.284279" lon="9.726037">
        <ele>513.304894</ele>
        <time>2025-05-18T16:05:56.804Z</time>
      </trkpt>
      <trkpt lat="48.284265" lon="9.726005">
        <ele>513.235066</ele>
        <time>2025-05-18T16:05:57.344Z</time>
      </trkpt>
      <trkpt lat="48.284212" lon="9.725885">
        <ele>512.972453</ele>
        <time>2025-05-18T16:05:59.456Z</time>
      </trkpt>
      <trkpt lat="48.284037" lon="9.725487">
        <ele>512.102640</ele>
        <time>2025-05-18T16:06:06.630Z</time>
      </trkpt>
      <trkpt lat="48.284185" lon="9.725386">
        <ele>511.657250</ele>
        <time>2025-05-18T16:06:10.533Z</time>
      </trkpt>
      <trkpt lat="48.284570" lon="9.725136">
        <ele>510.508040</ele>
        <time>2025-05-18T16:06:18.182Z</time>
      </trkpt>
      <trkpt lat="48.284689" lon="9.725058">
        <ele>510.152302</ele>
        <time>2025-05-18T16:06:20.554Z</time>
      </trkpt>
      <trkpt lat="48.285217" lon="9.724713">
        <ele>509.169197</ele>
        <time>2025-05-18T16:06:30.563Z</time>
      </trkpt>
      <trkpt lat="48.285287" lon="9.724841">
        <ele>508.988185</ele>
        <time>2025-05-18T16:06:32.491Z</time>
      </trkpt>
      <trkpt lat="48.285391" lon="9.725026">
        <ele>508.723593</ele>
        <time>2025-05-18T16:06:35.394Z</time>
      </trkpt>
      <trkpt lat="48.285599" lon="9.725390">
        <ele>508.199401</ele>
        <time>2025-05-18T16:06:41.424Z</time>
      </trkpt>
      <trkpt lat="48.285850" lon="9.726008">
        <ele>507.408388</ele>
        <time>2025-05-18T16:06:50.418Z</time>
      </trkpt>
      <trkpt lat="48.285823" lon="9.726076">
        <ele>507.321876</ele>
        <time>2025-05-18T16:06:51.391Z</time>
      </trkpt>
      <trkpt lat="48.285927" lon="9.726347">
        <ele>507.106066</ele>
        <time>2025-05-18T16:06:55.308Z</time>
      </trkpt>
      <trkpt lat="48.286314" lon="9.727079">
        <ele>507.115973</ele>
        <time>2025-05-18T16:07:07.229Z</time>
      </trkpt>
      <trkpt lat="48.286392" lon="9.727269">
        <ele>507.118339</ele>
        <time>2025-05-18T16:07:10.401Z</time>
      </trkpt>
      <trkpt lat="48.286448" lon="9.727405">
        <ele>507.120033</ele>
        <time>2025-05-18T16:07:12.787Z</time>
      </trkpt>
      <trkpt lat="48.286469" lon="9.727540">
        <ele>507.121502</ele>
        <time>2025-05-18T16:07:14.882Z</time>
      </trkpt>
      <trkpt lat="48.286534" lon="9.727529">
        <ele>507.122544</ele>
        <time>2025-05-18T16:07:16.709Z</time>
      </trkpt>
      <trkpt lat="48.286595" lon="9.727517">
        <ele>507.123524</ele>
        <time>2025-05-18T16:07:18.085Z</time>
      </trkpt>
      <trkpt lat="48.286670" lon="9.727807">
        <ele>507.126821</ele>
        <time>2025-05-18T16:07:22.810Z</time>
      </trkpt>
      <trkpt lat="48.286713" lon="9.727882">
        <ele>507.127870</ele>
        <time>2025-05-18T16:07:24.327Z</time>
      </trkpt>
      <trkpt lat="48.286755" lon="9.727873">
        <ele>507.128545</ele>
        <time>2025-05-18T16:07:25.309Z</time>
      </trkpt>
      <trkpt lat="48.286875" lon="9.728058">
        <ele>507.131283</ele>
        <time>2025-05-18T16:07:29.262Z</time>
      </trkpt>
      <trkpt lat="48.286933" lon="9.728039">
        <ele>507.132228</ele>
        <time>2025-05-18T16:07:30.652Z</time>
      </trkpt>
      <trkpt lat="48.287714" lon="9.727374">
        <ele>507.929974</ele>
        <time>2025-05-18T16:07:51.361Z</time>
      </trkpt>
      <trkpt lat="48.288256" lon="9.726935">
        <ele>508.529583</ele>
        <time>2025-05-18T16:08:05.365Z</time>
      </trkpt>
      <trkpt lat="48.288303" lon="9.726868">
        <ele>508.592670</ele>
        <time>2025-05-18T16:08:06.731Z</time>
      </trkpt>
      <trkpt lat="48.288267" lon="9.726775">
        <ele>508.662389</ele>
        <time>2025-05-18T16:08:08.310Z</time>
      </trkpt>
      <trkpt lat="48.289129" lon="9.725976">
        <ele>508.709499</ele>
        <time>2025-05-18T16:08:28.383Z</time>
      </trkpt>
      <trkpt lat="48.289358" lon="9.725876">
        <ele>508.656080</ele>
        <time>2025-05-18T16:08:33.345Z</time>
      </trkpt>
      <trkpt lat="48.289439" lon="9.725880">
        <ele>508.637925</ele>
        <time>2025-05-18T16:08:35.041Z</time>
      </trkpt>
      <trkpt lat="48.289497" lon="9.725884">
        <ele>508.624919</ele>
        <time>2025-05-18T16:08:36.226Z</time>
      </trkpt>
      <trkpt lat="48.289614" lon="9.725964">
        <ele>508.596126</ele>
        <time>2025-05-18T16:08:38.876Z</time>
      </trkpt>
      <trkpt lat="48.289761" lon="9.726154">
        <ele>508.552694</ele>
        <time>2025-05-18T16:08:42.925Z</time>
      </trkpt>
      <trkpt lat="48.290063" lon="9.726407">
        <ele>508.478812</ele>
        <time>2025-05-18T16:08:50.128Z</time>
      </trkpt>
      <trkpt lat="48.290401" lon="9.726463">
        <ele>508.441589</ele>
        <time>2025-05-18T16:08:57.433Z</time>
      </trkpt>
      <trkpt lat="48.290672" lon="9.726489">
        <ele>508.411864</ele>
        <time>2025-05-18T16:09:03.486Z</time>
      </trkpt>
      <trkpt lat="48.290813" lon="9.726506">
        <ele>508.396380</ele>
        <time>2025-05-18T16:09:06.562Z</time>
      </trkpt>
      <trkpt lat="48.291340" lon="9.726596">
        <ele>508.338322</ele>
        <time>2025-05-18T16:09:17.355Z</time>
      </trkpt>
      <trkpt lat="48.292355" lon="9.726746">
        <ele>508.597754</ele>
        <time>2025-05-18T16:09:37.930Z</time>
      </trkpt>
      <trkpt lat="48.292519" lon="9.726804">
        <ele>508.695986</ele>
        <time>2025-05-18T16:09:41.579Z</time>
      </trkpt>
      <trkpt lat="48.292996" lon="9.727137">
        <ele>509.002635</ele>
        <time>2025-05-18T16:09:53.348Z</time>
      </trkpt>
      <trkpt lat="48.293053" lon="9.727146">
        <ele>509.036052</ele>
        <time>2025-05-18T16:09:54.667Z</time>
      </trkpt>
      <trkpt lat="48.293134" lon="9.727101">
        <ele>509.086401</ele>
        <time>2025-05-18T16:09:56.641Z</time>
      </trkpt>
      <trkpt lat="48.293305" lon="9.726721">
        <ele>509.264360</ele>
        <time>2025-05-18T16:10:03.638Z</time>
      </trkpt>
      <trkpt lat="48.293548" lon="9.726241">
        <ele>509.638545</ele>
        <time>2025-05-18T16:10:12.868Z</time>
      </trkpt>
      <trkpt lat="48.293769" lon="9.725876">
        <ele>509.993364</ele>
        <time>2025-05-18T16:10:20.392Z</time>
      </trkpt>
      <trkpt lat="48.294196" lon="9.725907">
        <ele>510.455326</ele>
        <time>2025-05-18T16:10:30.019Z</time>
      </trkpt>
      <trkpt lat="48.294336" lon="9.725845">
        <ele>510.613043</ele>
        <time>2025-05-18T16:10:33.232Z</time>
      </trkpt>
      <trkpt lat="48.294393" lon="9.725786">
        <ele>510.687831</ele>
        <time>2025-05-18T16:10:34.752Z</time>
      </trkpt>
      <trkpt lat="48.295009" lon="9.724775">
        <ele>511.851572</ele>
        <time>2025-05-18T16:10:55.007Z</time>
      </trkpt>
      <trkpt lat="48.295129" lon="9.724654">
        <ele>512.078011</ele>
        <time>2025-05-18T16:10:58.310Z</time>
      </trkpt>
      <trkpt lat="48.295455" lon="9.724445">
        <ele>512.633394</ele>
        <time>2025-05-18T16:11:06.490Z</time>
      </trkpt>
      <trkpt lat="48.296437" lon="9.723864">
        <ele>514.250819</ele>
        <time>2025-05-18T16:11:31.185Z</time>
      </trkpt>
      <trkpt lat="48.296661" lon="9.723688">
        <ele>514.571529</ele>
        <time>2025-05-18T16:11:37.079Z</time>
      </trkpt>
      <trkpt lat="48.296815" lon="9.723521">
        <ele>514.812474</ele>
        <time>2025-05-18T16:11:41.484Z</time>
      </trkpt>
      <trkpt lat="48.296951" lon="9.723311">
        <ele>515.059864</ele>
        <time>2025-05-18T16:11:45.959Z</time>
      </trkpt>
      <trkpt lat="48.297061" lon="9.723063">
        <ele>515.311470</ele>
        <time>2025-05-18T16:11:50.497Z</time>
      </trkpt>
      <trkpt lat="48.297339" lon="9.721859">
        <ele>516.373542</ele>
        <time>2025-05-18T16:12:09.428Z</time>
      </trkpt>
      <trkpt lat="48.297454" lon="9.721390">
        <ele>516.139392</ele>
        <time>2025-05-18T16:12:16.700Z</time>
      </trkpt>
      <trkpt lat="48.297458" lon="9.721334">
        <ele>516.113008</ele>
        <time>2025-05-18T16:12:17.517Z</time>
      </trkpt>
      <trkpt lat="48.297467" lon="9.721229">
        <ele>516.063415</ele>
        <time>2025-05-18T16:12:19.042Z</time>
      </trkpt>
      <trkpt lat="48.297449" lon="9.720994">
        <ele>515.952603</ele>
        <time>2025-05-18T16:12:22.348Z</time>
      </trkpt>
      <trkpt lat="48.297415" lon="9.720906">
        <ele>515.904932</ele>
        <time>2025-05-18T16:12:23.733Z</time>
      </trkpt>
      <trkpt lat="48.297468" lon="9.720802">
        <ele>515.843562</ele>
        <time>2025-05-18T16:12:25.498Z</time>
      </trkpt>
      <trkpt lat="48.297651" lon="9.720816">
        <ele>515.714535</ele>
        <time>2025-05-18T16:12:29.110Z</time>
      </trkpt>
      <trkpt lat="48.297845" lon="9.720830">
        <ele>515.577772</ele>
        <time>2025-05-18T16:12:32.877Z</time>
      </trkpt>
      <trkpt lat="48.297988" lon="9.720850">
        <ele>515.476644</ele>
        <time>2025-05-18T16:12:35.584Z</time>
      </trkpt>
      <trkpt lat="48.298165" lon="9.720844">
        <ele>515.351977</ele>
        <time>2025-05-18T16:12:38.826Z</time>
      </trkpt>
      <trkpt lat="48.298389" lon="9.720837">
        <ele>515.194213</ele>
        <time>2025-05-18T16:12:42.819Z</time>
      </trkpt>
      <trkpt lat="48.298438" lon="9.720837">
        <ele>515.159710</ele>
        <time>2025-05-18T16:12:43.677Z</time>
      </trkpt>
      <trkpt lat="48.298726" lon="9.720857">
        <ele>514.980505</ele>
        <time>2025-05-18T16:12:48.685Z</time>
      </trkpt>
      <trkpt lat="48.298972" lon="9.720880">
        <ele>514.833567</ele>
        <time>2025-05-18T16:12:52.969Z</time>
      </trkpt>
      <trkpt lat="48.299193" lon="9.720821">
        <ele>514.699755</ele>
        <time>2025-05-18T16:12:57.118Z</time>
      </trkpt>
      <trkpt lat="48.299274" lon="9.720749">
        <ele>514.643656</ele>
        <time>2025-05-18T16:12:58.938Z</time>
      </trkpt>
      <trkpt lat="48.299436" lon="9.720517">
        <ele>514.510267</ele>
        <time>2025-05-18T16:13:03.389Z</time>
      </trkpt>
      <trkpt lat="48.299465" lon="9.720468">
        <ele>514.484257</ele>
        <time>2025-05-18T16:13:04.308Z</time>
      </trkpt>
      <trkpt lat="48.299556" lon="9.720297">
        <ele>514.397412</ele>
        <time>2025-05-18T16:13:07.369Z</time>
      </trkpt>
      <trkpt lat="48.299662" lon="9.720051">
        <ele>514.281174</ele>
        <time>2025-05-18T16:13:11.617Z</time>
      </trkpt>
      <trkpt lat="48.299702" lon="9.719952">
        <ele>514.235238</ele>
        <time>2025-05-18T16:13:13.317Z</time>
      </trkpt>
      <trkpt lat="48.299822" lon="9.719626">
        <ele>514.087479</ele>
        <time>2025-05-18T16:13:18.756Z</time>
      </trkpt>
      <trkpt lat="48.299980" lon="9.719122">
        <ele>514.519766</ele>
        <time>2025-05-18T16:13:26.988Z</time>
      </trkpt>
      <trkpt lat="48.300278" lon="9.718530">
        <ele>515.336211</ele>
        <time>2025-05-18T16:13:38.341Z</time>
      </trkpt>
      <trkpt lat="48.300526" lon="9.718175">
        <ele>515.902353</ele>
        <time>2025-05-18T16:13:46.253Z</time>
      </trkpt>
      <trkpt lat="48.300737" lon="9.717869">
        <ele>516.387046</ele>
        <time>2025-05-18T16:13:53.013Z</time>
      </trkpt>
      <trkpt lat="48.301061" lon="9.717513">
        <ele>517.046024</ele>
        <time>2025-05-18T16:14:02.470Z</time>
      </trkpt>
      <trkpt lat="48.301363" lon="9.717144">
        <ele>517.612084</ele>
        <time>2025-05-18T16:14:11.977Z</time>
      </trkpt>
      <trkpt lat="48.301664" lon="9.716621">
        <ele>518.281222</ele>
        <time>2025-05-18T16:14:23.419Z</time>
      </trkpt>
      <trkpt lat="48.301924" lon="9.716097">
        <ele>518.913727</ele>
        <time>2025-05-18T16:14:33.668Z</time>
      </trkpt>
      <trkpt lat="48.302003" lon="9.715875">
        <ele>519.157327</ele>
        <time>2025-05-18T16:14:37.443Z</time>
      </trkpt>
      <trkpt lat="48.302069" lon="9.715552">
        <ele>519.484257</ele>
        <time>2025-05-18T16:14:42.230Z</time>
      </trkpt>
      <trkpt lat="48.302194" lon="9.713931">
        <ele>515.937877</ele>
        <time>2025-05-18T16:14:59.337Z</time>
      </trkpt>
      <trkpt lat="48.302274" lon="9.713722">
        <ele>515.337221</ele>
        <time>2025-05-18T16:15:01.701Z</time>
      </trkpt>
      <trkpt lat="48.302595" lon="9.713282">
        <ele>513.710502</ele>
        <time>2025-05-18T16:15:08.233Z</time>
      </trkpt>
      <trkpt lat="48.302910" lon="9.712982">
        <ele>512.667979</ele>
        <time>2025-05-18T16:15:14.046Z</time>
      </trkpt>
      <trkpt lat="48.303280" lon="9.712806">
        <ele>512.101646</ele>
        <time>2025-05-18T16:15:20.363Z</time>
      </trkpt>
      <trkpt lat="48.304311" lon="9.712555">
        <ele>510.577489</ele>
        <time>2025-05-18T16:15:41.364Z</time>
      </trkpt>
      <trkpt lat="48.304813" lon="9.712388">
        <ele>510.395183</ele>
        <time>2025-05-18T16:15:52.501Z</time>
      </trkpt>
      <trkpt lat="48.305141" lon="9.712241">
        <ele>510.537640</ele>
        <time>2025-05-18T16:15:59.991Z</time>
      </trkpt>
      <trkpt lat="48.305425" lon="9.712033">
        <ele>510.669126</ele>
        <time>2025-05-18T16:16:06.922Z</time>
      </trkpt>
      <trkpt lat="48.306059" lon="9.711384">
        <ele>510.988371</ele>
        <time>2025-05-18T16:16:23.837Z</time>
      </trkpt>
      <trkpt lat="48.306261" lon="9.711104">
        <ele>511.095672</ele>
        <time>2025-05-18T16:16:29.828Z</time>
      </trkpt>
      <trkpt lat="48.306398" lon="9.710813">
        <ele>511.186176</ele>
        <time>2025-05-18T16:16:35.008Z</time>
      </trkpt>
      <trkpt lat="48.306576" lon="9.710490">
        <ele>511.292657</ele>
        <time>2025-05-18T16:16:41.098Z</time>
      </trkpt>
      <trkpt lat="48.306768" lon="9.710265">
        <ele>511.385565</ele>
        <time>2025-05-18T16:16:46.397Z</time>
      </trkpt>
      <trkpt lat="48.307135" lon="9.710069">
        <ele>511.534206</ele>
        <time>2025-05-18T16:16:54.889Z</time>
      </trkpt>
      <trkpt lat="48.309180" lon="9.709283">
        <ele>511.923979</ele>
        <time>2025-05-18T16:17:40.168Z</time>
      </trkpt>
      <trkpt lat="48.309573" lon="9.709202">
        <ele>511.915408</ele>
        <time>2025-05-18T16:17:48.234Z</time>
      </trkpt>
      <trkpt lat="48.310821" lon="9.709197">
        <ele>511.791396</ele>
        <time>2025-05-18T16:18:13.972Z</time>
      </trkpt>
      <trkpt lat="48.310938" lon="9.709196">
        <ele>511.779770</ele>
        <time>2025-05-18T16:18:16.502Z</time>
      </trkpt>
      <trkpt lat="48.312553" lon="9.709259">
        <ele>512.269875</ele>
        <time>2025-05-18T16:18:51.694Z</time>
      </trkpt>
      <trkpt lat="48.313314" lon="9.709200">
        <ele>512.592166</ele>
        <time>2025-05-18T16:19:08.123Z</time>
      </trkpt>
      <trkpt lat="48.314331" lon="9.709318">
        <ele>513.087208</ele>
        <time>2025-05-18T16:19:30.468Z</time>
      </trkpt>
      <trkpt lat="48.315923" lon="9.709732">
        <ele>513.712203</ele>
        <time>2025-05-18T16:20:06.298Z</time>
      </trkpt>
      <trkpt lat="48.316154" lon="9.709972">
        <ele>513.812606</ele>
        <time>2025-05-18T16:20:12.209Z</time>
      </trkpt>
      <trkpt lat="48.316580" lon="9.710499">
        <ele>513.811305</ele>
        <time>2025-05-18T16:20:23.450Z</time>
      </trkpt>
      <trkpt lat="48.317643" lon="9.710946">
        <ele>513.421552</ele>
        <time>2025-05-18T16:20:45.539Z</time>
      </trkpt>
      <trkpt lat="48.318184" lon="9.711098">
        <ele>513.353914</ele>
        <time>2025-05-18T16:20:56.865Z</time>
      </trkpt>
      <trkpt lat="48.319134" lon="9.711828">
        <ele>513.979290</ele>
        <time>2025-05-18T16:21:20.307Z</time>
      </trkpt>
      <trkpt lat="48.319252" lon="9.711879">
        <ele>514.051261</ele>
        <time>2025-05-18T16:21:23.051Z</time>
      </trkpt>
      <trkpt lat="48.319462" lon="9.711971">
        <ele>514.179479</ele>
        <time>2025-05-18T16:21:27.967Z</time>
      </trkpt>
      <trkpt lat="48.319991" lon="9.712004">
        <ele>514.818797</ele>
        <time>2025-05-18T16:21:39.860Z</time>
      </trkpt>
      <trkpt lat="48.320015" lon="9.712006">
        <ele>514.861740</ele>
        <time>2025-05-18T16:21:40.404Z</time>
      </trkpt>
      <trkpt lat="48.320423" lon="9.712046">
        <ele>515.592199</ele>
        <time>2025-05-18T16:21:49.875Z</time>
      </trkpt>
      <trkpt lat="48.320467" lon="9.712051">
        <ele>515.671031</ele>
        <time>2025-05-18T16:21:50.923Z</time>
      </trkpt>
      <trkpt lat="48.320776" lon="9.712079">
        <ele>516.224076</ele>
        <time>2025-05-18T16:21:58.100Z</time>
      </trkpt>
      <trkpt lat="48.320833" lon="9.712096">
        <ele>516.327892</ele>
        <time>2025-05-18T16:21:59.439Z</time>
      </trkpt>
      <trkpt lat="48.321159" lon="9.712323">
        <ele>516.969709</ele>
        <time>2025-05-18T16:22:07.834Z</time>
      </trkpt>
      <trkpt lat="48.321474" lon="9.712514">
        <ele>517.551385</ele>
        <time>2025-05-18T16:22:16.100Z</time>
      </trkpt>
      <trkpt lat="48.321683" lon="9.712641">
        <ele>517.656115</ele>
        <time>2025-05-18T16:22:21.477Z</time>
      </trkpt>
      <trkpt lat="48.322010" lon="9.712712">
        <ele>517.809616</ele>
        <time>2025-05-18T16:22:29.156Z</time>
      </trkpt>
      <trkpt lat="48.322310" lon="9.712819">
        <ele>517.952863</ele>
        <time>2025-05-18T16:22:36.001Z</time>
      </trkpt>
      <trkpt lat="48.322341" lon="9.712830">
        <ele>517.967662</ele>
        <time>2025-05-18T16:22:36.696Z</time>
      </trkpt>
      <trkpt lat="48.322420" lon="9.712858">
        <ele>518.005371</ele>
        <time>2025-05-18T16:22:38.351Z</time>
      </trkpt>
      <trkpt lat="48.322824" lon="9.713193">
        <ele>518.219712</ele>
        <time>2025-05-18T16:22:47.420Z</time>
      </trkpt>
      <trkpt lat="48.323460" lon="9.713661">
        <ele>518.229013</ele>
        <time>2025-05-18T16:23:00.992Z</time>
      </trkpt>
      <trkpt lat="48.324463" lon="9.714128">
        <ele>517.802006</ele>
        <time>2025-05-18T16:23:21.897Z</time>
      </trkpt>
      <trkpt lat="48.324881" lon="9.714478">
        <ele>517.676561</ele>
        <time>2025-05-18T16:23:32.634Z</time>
      </trkpt>
      <trkpt lat="48.324992" lon="9.714661">
        <ele>517.727399</ele>
        <time>2025-05-18T16:23:36.263Z</time>
      </trkpt>
      <trkpt lat="48.325069" lon="9.714746">
        <ele>517.756881</ele>
        <time>2025-05-18T16:23:38.305Z</time>
      </trkpt>
      <trkpt lat="48.325087" lon="9.714766">
        <ele>517.763789</ele>
        <time>2025-05-18T16:23:38.775Z</time>
      </trkpt>
      <trkpt lat="48.325261" lon="9.714904">
        <ele>517.824507</ele>
        <time>2025-05-18T16:23:43.065Z</time>
      </trkpt>
      <trkpt lat="48.325459" lon="9.715062">
        <ele>517.893693</ele>
        <time>2025-05-18T16:23:47.875Z</time>
      </trkpt>
      <trkpt lat="48.325588" lon="9.715164">
        <ele>517.938679</ele>
        <time>2025-05-18T16:23:51.052Z</time>
      </trkpt>
      <trkpt lat="48.325679" lon="9.715236">
        <ele>517.970417</ele>
        <time>2025-05-18T16:23:53.310Z</time>
      </trkpt>
      <trkpt lat="48.325759" lon="9.715312">
        <ele>517.999625</ele>
        <time>2025-05-18T16:23:55.354Z</time>
      </trkpt>
      <trkpt lat="48.326025" lon="9.715535">
        <ele>518.093624</ele>
        <time>2025-05-18T16:24:01.931Z</time>
      </trkpt>
      <trkpt lat="48.326349" lon="9.715630">
        <ele>518.195515</ele>
        <time>2025-05-18T16:24:09.030Z</time>
      </trkpt>
      <trkpt lat="48.326784" lon="9.715655">
        <ele>518.223396</ele>
        <time>2025-05-18T16:24:18.115Z</time>
      </trkpt>
      <trkpt lat="48.326927" lon="9.715759">
        <ele>518.231625</ele>
        <time>2025-05-18T16:24:21.412Z</time>
      </trkpt>
      <trkpt lat="48.327093" lon="9.716217">
        <ele>518.249591</ele>
        <time>2025-05-18T16:24:28.866Z</time>
      </trkpt>
      <trkpt lat="48.327162" lon="9.716399">
        <ele>518.256808</ele>
        <time>2025-05-18T16:24:31.870Z</time>
      </trkpt>
      <trkpt lat="48.327195" lon="9.716489">
        <ele>518.260348</ele>
        <time>2025-05-18T16:24:33.320Z</time>
      </trkpt>
      <trkpt lat="48.327389" lon="9.716655">
        <ele>518.271910</ele>
        <time>2025-05-18T16:24:37.992Z</time>
      </trkpt>
      <trkpt lat="48.327899" lon="9.716994">
        <ele>518.338782</ele>
        <time>2025-05-18T16:24:49.512Z</time>
      </trkpt>
      <trkpt lat="48.328053" lon="9.717092">
        <ele>518.405190</ele>
        <time>2025-05-18T16:24:53.072Z</time>
      </trkpt>
      <trkpt lat="48.328388" lon="9.717303">
        <ele>518.549424</ele>
        <time>2025-05-18T16:25:01.033Z</time>
      </trkpt>
      <trkpt lat="48.328426" lon="9.717316">
        <ele>518.564900</ele>
        <time>2025-05-18T16:25:01.905Z</time>
      </trkpt>
      <trkpt lat="48.328463" lon="9.717329">
        <ele>518.579990</ele>
        <time>2025-05-18T16:25:02.748Z</time>
      </trkpt>
      <trkpt lat="48.328626" lon="9.717384">
        <ele>518.646332</ele>
        <time>2025-05-18T16:25:06.439Z</time>
      </trkpt>
      <trkpt lat="48.328748" lon="9.717425">
        <ele>518.695977</ele>
        <time>2025-05-18T16:25:09.182Z</time>
      </trkpt>
      <trkpt lat="48.328776" lon="9.717435">
        <ele>518.707406</ele>
        <time>2025-05-18T16:25:09.806Z</time>
      </trkpt>
      <trkpt lat="48.328930" lon="9.717487">
        <ele>518.770086</ele>
        <time>2025-05-18T16:25:13.294Z</time>
      </trkpt>
      <trkpt lat="48.329020" lon="9.717559">
        <ele>518.810570</ele>
        <time>2025-05-18T16:25:15.526Z</time>
      </trkpt>
      <trkpt lat="48.329269" lon="9.718166">
        <ele>518.998890</ele>
        <time>2025-05-18T16:25:25.914Z</time>
      </trkpt>
      <trkpt lat="48.329412" lon="9.718654">
        <ele>519.114858</ele>
        <time>2025-05-18T16:25:33.691Z</time>
      </trkpt>
      <trkpt lat="48.329477" lon="9.718880">
        <ele>519.167479</ele>
        <time>2025-05-18T16:25:37.250Z</time>
      </trkpt>
      <trkpt lat="48.329494" lon="9.718938">
        <ele>519.181024</ele>
        <time>2025-05-18T16:25:38.182Z</time>
      </trkpt>
      <trkpt lat="48.329661" lon="9.719469">
        <ele>519.306552</ele>
        <time>2025-05-18T16:25:46.684Z</time>
      </trkpt>
      <trkpt lat="48.329717" lon="9.719646">
        <ele>519.348441</ele>
        <time>2025-05-18T16:25:49.471Z</time>
      </trkpt>
      <trkpt lat="48.329747" lon="9.719734">
        <ele>519.369574</ele>
        <time>2025-05-18T16:25:50.869Z</time>
      </trkpt>
      <trkpt lat="48.330021" lon="9.720473">
        <ele>519.550392</ele>
        <time>2025-05-18T16:26:02.899Z</time>
      </trkpt>
      <trkpt lat="48.330128" lon="9.720720">
        <ele>519.626246</ele>
        <time>2025-05-18T16:26:07.117Z</time>
      </trkpt>
      <trkpt lat="48.330302" lon="9.721096">
        <ele>519.772797</ele>
        <time>2025-05-18T16:26:13.770Z</time>
      </trkpt>
      <trkpt lat="48.330316" lon="9.721127">
        <ele>519.784785</ele>
        <time>2025-05-18T16:26:14.311Z</time>
      </trkpt>
      <trkpt lat="48.330786" lon="9.720948">
        <ele>520.018071</ele>
        <time>2025-05-18T16:26:24.899Z</time>
      </trkpt>
      <trkpt lat="48.331119" lon="9.720790">
        <ele>520.186082</ele>
        <time>2025-05-18T16:26:32.503Z</time>
      </trkpt>
      <trkpt lat="48.331167" lon="9.720768">
        <ele>520.210227</ele>
        <time>2025-05-18T16:26:33.603Z</time>
      </trkpt>
      <trkpt lat="48.331816" lon="9.720464">
        <ele>520.549900</ele>
        <time>2025-05-18T16:26:48.650Z</time>
      </trkpt>
      <trkpt lat="48.334391" lon="9.719342">
        <ele>521.932652</ele>
        <time>2025-05-18T16:27:47.551Z</time>
      </trkpt>
      <trkpt lat="48.334498" lon="9.719294">
        <ele>521.983849</ele>
        <time>2025-05-18T16:27:49.975Z</time>
      </trkpt>
      <trkpt lat="48.336082" lon="9.718614">
        <ele>523.057340</ele>
        <time>2025-05-18T16:28:25.914Z</time>
      </trkpt>
      <trkpt lat="48.339223" lon="9.717268">
        <ele>528.169297</ele>
        <time>2025-05-18T16:29:40.084Z</time>
      </trkpt>
      <trkpt lat="48.342065" lon="9.716008">
        <ele>539.780983</ele>
        <time>2025-05-18T16:30:57.617Z</time>
      </trkpt>
      <trkpt lat="48.342851" lon="9.715369">
        <ele>541.069750</ele>
        <time>2025-05-18T16:31:18.801Z</time>
      </trkpt>
      <trkpt lat="48.343622" lon="9.714645">
        <ele>542.183378</ele>
        <time>2025-05-18T16:31:38.414Z</time>
      </trkpt>
      <trkpt lat="48.344242" lon="9.713969">
        <ele>540.567304</ele>
        <time>2025-05-18T16:31:51.859Z</time>
      </trkpt>
      <trkpt lat="48.345091" lon="9.712936">
        <ele>538.234656</ele>
        <time>2025-05-18T16:32:10.224Z</time>
      </trkpt>
      <trkpt lat="48.345255" lon="9.712681">
        <ele>537.678971</ele>
        <time>2025-05-18T16:32:14.034Z</time>
      </trkpt>
      <trkpt lat="48.345385" lon="9.712392">
        <ele>537.132482</ele>
        <time>2025-05-18T16:32:17.781Z</time>
      </trkpt>
      <trkpt lat="48.345819" lon="9.711061">
        <ele>534.810794</ele>
        <time>2025-05-18T16:32:34.670Z</time>
      </trkpt>
      <trkpt lat="48.346053" lon="9.710616">
        <ele>534.282930</ele>
        <time>2025-05-18T16:32:41.522Z</time>
      </trkpt>
      <trkpt lat="48.346342" lon="9.710217">
        <ele>534.327181</ele>
        <time>2025-05-18T16:32:49.104Z</time>
      </trkpt>
      <trkpt lat="48.346884" lon="9.709460">
        <ele>534.410614</ele>
        <time>2025-05-18T16:33:05.209Z</time>
      </trkpt>
      <trkpt lat="48.346993" lon="9.709689">
        <ele>534.431734</ele>
        <time>2025-05-18T16:33:09.468Z</time>
      </trkpt>
      <trkpt lat="48.347080" lon="9.709789">
        <ele>534.444086</ele>
        <time>2025-05-18T16:33:11.970Z</time>
      </trkpt>
      <trkpt lat="48.347191" lon="9.709797">
        <ele>534.456623</ele>
        <time>2025-05-18T16:33:14.522Z</time>
      </trkpt>
      <trkpt lat="48.347300" lon="9.709713">
        <ele>534.489392</ele>
        <time>2025-05-18T16:33:17.315Z</time>
      </trkpt>
      <trkpt lat="48.348024" lon="9.708478">
        <ele>536.797981</ele>
        <time>2025-05-18T16:33:42.493Z</time>
      </trkpt>
      <trkpt lat="48.348125" lon="9.708332">
        <ele>537.093407</ele>
        <time>2025-05-18T16:33:45.853Z</time>
      </trkpt>
      <trkpt lat="48.348300" lon="9.708187">
        <ele>537.514804</ele>
        <time>2025-05-18T16:33:50.703Z</time>
      </trkpt>
      <trkpt lat="48.348421" lon="9.708467">
        <ele>537.983003</ele>
        <time>2025-05-18T16:33:56.120Z</time>
      </trkpt>
      <trkpt lat="48.348653" lon="9.708883">
        <ele>538.512349</ele>
        <time>2025-05-18T16:34:05.049Z</time>
      </trkpt>
      <trkpt lat="48.348861" lon="9.709100">
        <ele>538.788800</ele>
        <time>2025-05-18T16:34:11.279Z</time>
      </trkpt>
      <trkpt lat="48.349044" lon="9.709210">
        <ele>539.004038</ele>
        <time>2025-05-18T16:34:16.033Z</time>
      </trkpt>
      <trkpt lat="48.349795" lon="9.709353">
        <ele>539.830848</ele>
        <time>2025-05-18T16:34:33.125Z</time>
      </trkpt>
      <trkpt lat="48.350018" lon="9.709438">
        <ele>540.082110</ele>
        <time>2025-05-18T16:34:37.531Z</time>
      </trkpt>
      <trkpt lat="48.350859" lon="9.709925">
        <ele>538.882887</ele>
        <time>2025-05-18T16:34:52.680Z</time>
      </trkpt>
      <trkpt lat="48.352078" lon="9.710484">
        <ele>537.340197</ele>
        <time>2025-05-18T16:35:15.301Z</time>
      </trkpt>
      <trkpt lat="48.352887" lon="9.710951">
        <ele>538.277319</ele>
        <time>2025-05-18T16:35:35.222Z</time>
      </trkpt>
      <trkpt lat="48.353166" lon="9.711058">
        <ele>538.588710</ele>
        <time>2025-05-18T16:35:42.086Z</time>
      </trkpt>
      <trkpt lat="48.353290" lon="9.711150">
        <ele>538.738233</ele>
        <time>2025-05-18T16:35:45.420Z</time>
      </trkpt>
      <trkpt lat="48.354149" lon="9.712012">
        <ele>538.821101</ele>
        <time>2025-05-18T16:36:09.319Z</time>
      </trkpt>
      <trkpt lat="48.354429" lon="9.712347">
        <ele>538.727674</ele>
        <time>2025-05-18T16:36:16.215Z</time>
      </trkpt>
      <trkpt lat="48.354700" lon="9.712735">
        <ele>538.629978</ele>
        <time>2025-05-18T16:36:22.831Z</time>
      </trkpt>
      <trkpt lat="48.354920" lon="9.713144">
        <ele>538.509816</ele>
        <time>2025-05-18T16:36:28.679Z</time>
      </trkpt>
      <trkpt lat="48.355103" lon="9.713301">
        <ele>538.339579</ele>
        <time>2025-05-18T16:36:32.175Z</time>
      </trkpt>
      <trkpt lat="48.355916" lon="9.713434">
        <ele>537.678684</ele>
        <time>2025-05-18T16:36:46.711Z</time>
      </trkpt>
      <trkpt lat="48.357588" lon="9.713507">
        <ele>538.625207</ele>
        <time>2025-05-18T16:37:24.525Z</time>
      </trkpt>
      <trkpt lat="48.358074" lon="9.713572">
        <ele>539.404854</ele>
        <time>2025-05-18T16:37:36.114Z</time>
      </trkpt>
      <trkpt lat="48.358187" lon="9.713524">
        <ele>539.592473</ele>
        <time>2025-05-18T16:37:38.859Z</time>
      </trkpt>
      <trkpt lat="48.358318" lon="9.713405">
        <ele>539.836977</ele>
        <time>2025-05-18T16:37:42.462Z</time>
      </trkpt>
      <trkpt lat="48.358374" lon="9.713504">
        <ele>539.974663</ele>
        <time>2025-05-18T16:37:44.485Z</time>
      </trkpt>
      <trkpt lat="48.358477" lon="9.713608">
        <ele>540.138948</ele>
        <time>2025-05-18T16:37:47.382Z</time>
      </trkpt>
      <trkpt lat="48.358553" lon="9.713651">
        <ele>540.246489</ele>
        <time>2025-05-18T16:37:49.258Z</time>
      </trkpt>
      <trkpt lat="48.358635" lon="9.713668">
        <ele>540.356125</ele>
        <time>2025-05-18T16:37:51.206Z</time>
      </trkpt>
      <trkpt lat="48.358788" lon="9.713670">
        <ele>540.558783</ele>
        <time>2025-05-18T16:37:54.752Z</time>
      </trkpt>
      <trkpt lat="48.359096" lon="9.713765">
        <ele>540.975212</ele>
        <time>2025-05-18T16:38:02.018Z</time>
      </trkpt>
      <trkpt lat="48.359081" lon="9.714026">
        <ele>541.205771</ele>
        <time>2025-05-18T16:38:06.045Z</time>
      </trkpt>
      <trkpt lat="48.359073" lon="9.714132">
        <ele>541.299660</ele>
        <time>2025-05-18T16:38:07.680Z</time>
      </trkpt>
      <trkpt lat="48.359061" lon="9.714272">
        <ele>541.423893</ele>
        <time>2025-05-18T16:38:09.829Z</time>
      </trkpt>
      <trkpt lat="48.359032" lon="9.714547">
        <ele>541.668945</ele>
        <time>2025-05-18T16:38:13.985Z</time>
      </trkpt>
      <trkpt lat="48.359055" lon="9.714634">
        <ele>541.751350</ele>
        <time>2025-05-18T16:38:15.379Z</time>
      </trkpt>
      <trkpt lat="48.359135" lon="9.714738">
        <ele>541.891369</ele>
        <time>2025-05-18T16:38:17.697Z</time>
      </trkpt>
      <trkpt lat="48.359264" lon="9.714837">
        <ele>542.083163</ele>
        <time>2025-05-18T16:38:20.839Z</time>
      </trkpt>
      <trkpt lat="48.359399" lon="9.714892">
        <ele>542.268408</ele>
        <time>2025-05-18T16:38:23.867Z</time>
      </trkpt>
      <trkpt lat="48.359627" lon="9.714982">
        <ele>542.457818</ele>
        <time>2025-05-18T16:38:28.967Z</time>
      </trkpt>
      <trkpt lat="48.359803" lon="9.715053">
        <ele>542.567660</ele>
        <time>2025-05-18T16:38:32.962Z</time>
      </trkpt>
      <trkpt lat="48.359963" lon="9.715116">
        <ele>542.667357</ele>
        <time>2025-05-18T16:38:36.571Z</time>
      </trkpt>
      <trkpt lat="48.360035" lon="9.715145">
        <ele>542.712288</ele>
        <time>2025-05-18T16:38:38.191Z</time>
      </trkpt>
      <trkpt lat="48.360335" lon="9.715264">
        <ele>542.899310</ele>
        <time>2025-05-18T16:38:44.999Z</time>
      </trkpt>
      <trkpt lat="48.360430" lon="9.715301">
        <ele>542.958465</ele>
        <time>2025-05-18T16:38:47.160Z</time>
      </trkpt>
      <trkpt lat="48.360488" lon="9.715324">
        <ele>542.994622</ele>
        <time>2025-05-18T16:38:48.465Z</time>
      </trkpt>
      <trkpt lat="48.360544" lon="9.715346">
        <ele>543.029511</ele>
        <time>2025-05-18T16:38:49.745Z</time>
      </trkpt>
      <trkpt lat="48.360754" lon="9.715428">
        <ele>543.160295</ele>
        <time>2025-05-18T16:38:54.464Z</time>
      </trkpt>
      <trkpt lat="48.360804" lon="9.715447">
        <ele>543.191382</ele>
        <time>2025-05-18T16:38:55.596Z</time>
      </trkpt>
      <trkpt lat="48.361039" lon="9.715550">
        <ele>543.338930</ele>
        <time>2025-05-18T16:39:01.000Z</time>
      </trkpt>
      <trkpt lat="48.361348" lon="9.715565">
        <ele>543.538276</ele>
        <time>2025-05-18T16:39:07.967Z</time>
      </trkpt>
      <trkpt lat="48.361462" lon="9.715549">
        <ele>543.617737</ele>
        <time>2025-05-18T16:39:10.549Z</time>
      </trkpt>
      <trkpt lat="48.361745" lon="9.715558">
        <ele>543.814187</ele>
        <time>2025-05-18T16:39:16.999Z</time>
      </trkpt>
      <trkpt lat="48.362085" lon="9.715703">
        <ele>544.059442</ele>
        <time>2025-05-18T16:39:24.976Z</time>
      </trkpt>
      <trkpt lat="48.362517" lon="9.715804">
        <ele>544.362851</ele>
        <time>2025-05-18T16:39:34.691Z</time>
      </trkpt>
      <trkpt lat="48.362867" lon="9.715968">
        <ele>544.617256</ele>
        <time>2025-05-18T16:39:42.732Z</time>
      </trkpt>
      <trkpt lat="48.362955" lon="9.716007">
        <ele>544.680921</ele>
        <time>2025-05-18T16:39:44.695Z</time>
      </trkpt>
      <trkpt lat="48.362997" lon="9.716020">
        <ele>544.668394</ele>
        <time>2025-05-18T16:39:45.629Z</time>
      </trkpt>
      <trkpt lat="48.363058" lon="9.716057">
        <ele>544.629704</ele>
        <time>2025-05-18T16:39:47.059Z</time>
      </trkpt>
      <trkpt lat="48.363112" lon="9.716107">
        <ele>544.592407</ele>
        <time>2025-05-18T16:39:48.424Z</time>
      </trkpt>
      <trkpt lat="48.363043" lon="9.716413">
        <ele>544.466104</ele>
        <time>2025-05-18T16:39:52.982Z</time>
      </trkpt>
      <trkpt lat="48.363014" lon="9.716752">
        <ele>544.332509</ele>
        <time>2025-05-18T16:39:57.762Z</time>
      </trkpt>
      <trkpt lat="48.363007" lon="9.716925">
        <ele>544.264765</ele>
        <time>2025-05-18T16:40:00.171Z</time>
      </trkpt>
      <trkpt lat="48.363015" lon="9.717248">
        <ele>544.138430</ele>
        <time>2025-05-18T16:40:04.636Z</time>
      </trkpt>
      <trkpt lat="48.363060" lon="9.717611">
        <ele>543.994100</ele>
        <time>2025-05-18T16:40:09.656Z</time>
      </trkpt>
      <trkpt lat="48.363068" lon="9.717676">
        <ele>543.968262</ele>
        <time>2025-05-18T16:40:10.547Z</time>
      </trkpt>
      <trkpt lat="48.363110" lon="9.718027">
        <ele>543.828864</ele>
        <time>2025-05-18T16:40:15.360Z</time>
      </trkpt>
      <trkpt lat="48.363114" lon="9.718374">
        <ele>543.693216</ele>
        <time>2025-05-18T16:40:19.996Z</time>
      </trkpt>
      <trkpt lat="48.363097" lon="9.718630">
        <ele>543.600799</ele>
        <time>2025-05-18T16:40:23.445Z</time>
      </trkpt>
      <trkpt lat="48.363083" lon="9.718737">
        <ele>543.567547</ele>
        <time>2025-05-18T16:40:24.927Z</time>
      </trkpt>
      <trkpt lat="48.363073" lon="9.718822">
        <ele>543.541226</ele>
        <time>2025-05-18T16:40:26.099Z</time>
      </trkpt>
      <trkpt lat="48.363045" lon="9.719046">
        <ele>543.471726</ele>
        <time>2025-05-18T16:40:29.213Z</time>
      </trkpt>
      <trkpt lat="48.363014" lon="9.719295">
        <ele>543.394480</ele>
        <time>2025-05-18T16:40:32.734Z</time>
      </trkpt>
      <trkpt lat="48.363002" lon="9.719405">
        <ele>543.360490</ele>
        <time>2025-05-18T16:40:34.301Z</time>
      </trkpt>
      <trkpt lat="48.362995" lon="9.719475">
        <ele>543.338905</ele>
        <time>2025-05-18T16:40:35.301Z</time>
      </trkpt>
      <trkpt lat="48.362966" lon="9.719765">
        <ele>543.249483</ele>
        <time>2025-05-18T16:40:39.438Z</time>
      </trkpt>
      <trkpt lat="48.362953" lon="9.719907">
        <ele>543.205776</ele>
        <time>2025-05-18T16:40:41.472Z</time>
      </trkpt>
      <trkpt lat="48.362946" lon="9.720003">
        <ele>543.176328</ele>
        <time>2025-05-18T16:40:42.845Z</time>
      </trkpt>
      <trkpt lat="48.362941" lon="9.720083">
        <ele>543.151827</ele>
        <time>2025-05-18T16:40:43.992Z</time>
      </trkpt>
      <trkpt lat="48.362930" lon="9.720309">
        <ele>543.082731</ele>
        <time>2025-05-18T16:40:47.220Z</time>
      </trkpt>
      <trkpt lat="48.362949" lon="9.720450">
        <ele>543.038862</ele>
        <time>2025-05-18T16:40:49.272Z</time>
      </trkpt>
      <trkpt lat="48.362997" lon="9.720551">
        <ele>543.000998</ele>
        <time>2025-05-18T16:40:51.057Z</time>
      </trkpt>
      <trkpt lat="48.363379" lon="9.721224">
        <ele>542.691101</ele>
        <time>2025-05-18T16:41:03.751Z</time>
      </trkpt>
      <trkpt lat="48.363638" lon="9.721634">
        <ele>542.424252</ele>
        <time>2025-05-18T16:41:11.900Z</time>
      </trkpt>
      <trkpt lat="48.363684" lon="9.721575">
        <ele>542.381346</ele>
        <time>2025-05-18T16:41:13.167Z</time>
      </trkpt>
      <trkpt lat="48.364249" lon="9.722388">
        <ele>541.826420</ele>
        <time>2025-05-18T16:41:28.676Z</time>
      </trkpt>
      <trkpt lat="48.364309" lon="9.722496">
        <ele>541.760017</ele>
        <time>2025-05-18T16:41:30.444Z</time>
      </trkpt>
      <trkpt lat="48.364350" lon="9.722559">
        <ele>541.718421</ele>
        <time>2025-05-18T16:41:31.562Z</time>
      </trkpt>
      <trkpt lat="48.364916" lon="9.723464">
        <ele>540.940482</ele>
        <time>2025-05-18T16:41:46.812Z</time>
      </trkpt>
      <trkpt lat="48.365069" lon="9.723642">
        <ele>540.736593</ele>
        <time>2025-05-18T16:41:50.456Z</time>
      </trkpt>
      <trkpt lat="48.365460" lon="9.723991">
        <ele>540.257298</ele>
        <time>2025-05-18T16:41:59.218Z</time>
      </trkpt>
      <trkpt lat="48.365653" lon="9.724107">
        <ele>540.038182</ele>
        <time>2025-05-18T16:42:03.253Z</time>
      </trkpt>
      <trkpt lat="48.366053" lon="9.724281">
        <ele>539.617627</ele>
        <time>2025-05-18T16:42:11.445Z</time>
      </trkpt>
      <trkpt lat="48.366249" lon="9.724470">
        <ele>539.514972</ele>
        <time>2025-05-18T16:42:16.104Z</time>
      </trkpt>
      <trkpt lat="48.366325" lon="9.724599">
        <ele>539.464455</ele>
        <time>2025-05-18T16:42:18.403Z</time>
      </trkpt>
      <trkpt lat="48.366426" lon="9.724936">
        <ele>539.356134</ele>
        <time>2025-05-18T16:42:23.383Z</time>
      </trkpt>
      <trkpt lat="48.366434" lon="9.725135">
        <ele>539.297722</ele>
        <time>2025-05-18T16:42:26.107Z</time>
      </trkpt>
      <trkpt lat="48.366341" lon="9.725679">
        <ele>539.133141</ele>
        <time>2025-05-18T16:42:33.758Z</time>
      </trkpt>
      <trkpt lat="48.366357" lon="9.725814">
        <ele>539.092962</ele>
        <time>2025-05-18T16:42:35.638Z</time>
      </trkpt>
      <trkpt lat="48.366544" lon="9.726310">
        <ele>538.925867</ele>
        <time>2025-05-18T16:42:43.370Z</time>
      </trkpt>
      <trkpt lat="48.366740" lon="9.726699">
        <ele>538.784805</ele>
        <time>2025-05-18T16:42:50.001Z</time>
      </trkpt>
      <trkpt lat="48.367143" lon="9.727332">
        <ele>538.537215</ele>
        <time>2025-05-18T16:43:01.998Z</time>
      </trkpt>
      <trkpt lat="48.367731" lon="9.728085">
        <ele>538.209052</ele>
        <time>2025-05-18T16:43:17.758Z</time>
      </trkpt>
      <trkpt lat="48.368098" lon="9.728635">
        <ele>537.898113</ele>
        <time>2025-05-18T16:43:28.064Z</time>
      </trkpt>
      <trkpt lat="48.368205" lon="9.728835">
        <ele>537.747390</ele>
        <time>2025-05-18T16:43:31.422Z</time>
      </trkpt>
      <trkpt lat="48.368510" lon="9.729346">
        <ele>537.344185</ele>
        <time>2025-05-18T16:43:40.394Z</time>
      </trkpt>
      <trkpt lat="48.369010" lon="9.730101">
        <ele>536.718466</ele>
        <time>2025-05-18T16:43:54.079Z</time>
      </trkpt>
      <trkpt lat="48.369225" lon="9.730393">
        <ele>536.460475</ele>
        <time>2025-05-18T16:43:59.638Z</time>
      </trkpt>
      <trkpt lat="48.369658" lon="9.730903">
        <ele>535.925917</ele>
        <time>2025-05-18T16:44:10.265Z</time>
      </trkpt>
      <trkpt lat="48.370013" lon="9.731317">
        <ele>535.489293</ele>
        <time>2025-05-18T16:44:18.944Z</time>
      </trkpt>
      <trkpt lat="48.370751" lon="9.732283">
        <ele>534.676306</ele>
        <time>2025-05-18T16:44:37.895Z</time>
      </trkpt>
      <trkpt lat="48.371104" lon="9.732785">
        <ele>534.534994</ele>
        <time>2025-05-18T16:44:47.713Z</time>
      </trkpt>
      <trkpt lat="48.371198" lon="9.732919">
        <ele>534.497322</ele>
        <time>2025-05-18T16:44:50.380Z</time>
      </trkpt>
      <trkpt lat="48.371543" lon="9.733395">
        <ele>534.361139</ele>
        <time>2025-05-18T16:45:00.156Z</time>
      </trkpt>
      <trkpt lat="48.371750" lon="9.733681">
        <ele>534.279377</ele>
        <time>2025-05-18T16:45:06.117Z</time>
      </trkpt>
      <trkpt lat="48.371839" lon="9.733804">
        <ele>534.244219</ele>
        <time>2025-05-18T16:45:08.689Z</time>
      </trkpt>
      <trkpt lat="48.371895" lon="9.733881">
        <ele>534.222148</ele>
        <time>2025-05-18T16:45:10.292Z</time>
      </trkpt>
      <trkpt lat="48.372219" lon="9.734343">
        <ele>534.129306</ele>
        <time>2025-05-18T16:45:19.904Z</time>
      </trkpt>
      <trkpt lat="48.372414" lon="9.734623">
        <ele>534.075179</ele>
        <time>2025-05-18T16:45:25.576Z</time>
      </trkpt>
      <trkpt lat="48.372566" lon="9.734749">
        <ele>534.040326</ele>
        <time>2025-05-18T16:45:29.142Z</time>
      </trkpt>
      <trkpt lat="48.372613" lon="9.734872">
        <ele>534.021393</ele>
        <time>2025-05-18T16:45:31.066Z</time>
      </trkpt>
      <trkpt lat="48.372720" lon="9.735170">
        <ele>533.976196</ele>
        <time>2025-05-18T16:45:35.572Z</time>
      </trkpt>
      <trkpt lat="48.372660" lon="9.735227">
        <ele>533.961946</ele>
        <time>2025-05-18T16:45:37.016Z</time>
      </trkpt>
      <trkpt lat="48.372595" lon="9.735285">
        <ele>533.946769</ele>
        <time>2025-05-18T16:45:38.517Z</time>
      </trkpt>
      <trkpt lat="48.372624" lon="9.735556">
        <ele>533.910144</ele>
        <time>2025-05-18T16:45:42.145Z</time>
      </trkpt>
      <trkpt lat="48.372693" lon="9.735720">
        <ele>533.884243</ele>
        <time>2025-05-18T16:45:44.696Z</time>
      </trkpt>
      <trkpt lat="48.372738" lon="9.735812">
        <ele>533.868999</ele>
        <time>2025-05-18T16:45:46.224Z</time>
      </trkpt>
      <trkpt lat="48.372845" lon="9.735838">
        <ele>533.863478</ele>
        <time>2025-05-18T16:45:48.399Z</time>
      </trkpt>
      <trkpt lat="48.372993" lon="9.736140">
        <ele>534.059558</ele>
        <time>2025-05-18T16:45:53.566Z</time>
      </trkpt>
      <trkpt lat="48.373212" lon="9.736615">
        <ele>534.361652</ele>
        <time>2025-05-18T16:46:01.967Z</time>
      </trkpt>
      <trkpt lat="48.373172" lon="9.736901">
        <ele>534.514356</ele>
        <time>2025-05-18T16:46:06.237Z</time>
      </trkpt>
      <trkpt lat="48.373140" lon="9.737088">
        <ele>534.615248</ele>
        <time>2025-05-18T16:46:09.071Z</time>
      </trkpt>
      <trkpt lat="48.373032" lon="9.737518">
        <ele>534.855435</ele>
        <time>2025-05-18T16:46:15.952Z</time>
      </trkpt>
      <trkpt lat="48.372982" lon="9.737614">
        <ele>534.919171</ele>
        <time>2025-05-18T16:46:17.811Z</time>
      </trkpt>
      <trkpt lat="48.372945" lon="9.737789">
        <ele>535.015124</ele>
        <time>2025-05-18T16:46:20.614Z</time>
      </trkpt>
      <trkpt lat="48.372942" lon="9.738158">
        <ele>535.207932</ele>
        <time>2025-05-18T16:46:26.267Z</time>
      </trkpt>
      <trkpt lat="48.372989" lon="9.738575">
        <ele>535.798136</ele>
        <time>2025-05-18T16:46:32.801Z</time>
      </trkpt>
      <trkpt lat="48.373331" lon="9.740370">
        <ele>538.974380</ele>
        <time>2025-05-18T16:47:02.169Z</time>
      </trkpt>
      <trkpt lat="48.373617" lon="9.740962">
        <ele>540.177767</ele>
        <time>2025-05-18T16:47:14.526Z</time>
      </trkpt>
      <trkpt lat="48.374140" lon="9.741869">
        <ele>541.976428</ele>
        <time>2025-05-18T16:47:34.225Z</time>
      </trkpt>
      <trkpt lat="48.374220" lon="9.742016">
        <ele>542.261016</ele>
        <time>2025-05-18T16:47:37.253Z</time>
      </trkpt>
      <trkpt lat="48.374826" lon="9.743309">
        <ele>543.442867</ele>
        <time>2025-05-18T16:48:00.949Z</time>
      </trkpt>
      <trkpt lat="48.375455" lon="9.744208">
        <ele>542.103877</ele>
        <time>2025-05-18T16:48:15.858Z</time>
      </trkpt>
      <trkpt lat="48.375601" lon="9.744511">
        <ele>541.720012</ele>
        <time>2025-05-18T16:48:19.988Z</time>
      </trkpt>
      <trkpt lat="48.375973" lon="9.745371">
        <ele>541.058981</ele>
        <time>2025-05-18T16:48:31.712Z</time>
      </trkpt>
      <trkpt lat="48.376340" lon="9.745978">
        <ele>540.901715</ele>
        <time>2025-05-18T16:48:42.350Z</time>
      </trkpt>
      <trkpt lat="48.376486" lon="9.746369">
        <ele>540.815774</ele>
        <time>2025-05-18T16:48:48.738Z</time>
      </trkpt>
      <trkpt lat="48.376774" lon="9.747473">
        <ele>540.696313</ele>
        <time>2025-05-18T16:49:06.671Z</time>
      </trkpt>
      <trkpt lat="48.377139" lon="9.748594">
        <ele>541.077358</ele>
        <time>2025-05-18T16:49:25.504Z</time>
      </trkpt>
      <trkpt lat="48.377636" lon="9.749814">
        <ele>541.624594</ele>
        <time>2025-05-18T16:49:44.248Z</time>
      </trkpt>
      <trkpt lat="48.377935" lon="9.750762">
        <ele>542.558996</ele>
        <time>2025-05-18T16:49:59.798Z</time>
      </trkpt>
      <trkpt lat="48.378126" lon="9.751235">
        <ele>543.051861</ele>
        <time>2025-05-18T16:50:08.357Z</time>
      </trkpt>
      <trkpt lat="48.378562" lon="9.752271">
        <ele>544.267794</ele>
        <time>2025-05-18T16:50:27.226Z</time>
      </trkpt>
      <trkpt lat="48.378842" lon="9.752788">
        <ele>545.128259</ele>
        <time>2025-05-18T16:50:39.415Z</time>
      </trkpt>
      <trkpt lat="48.379018" lon="9.753090">
        <ele>545.646495</ele>
        <time>2025-05-18T16:50:45.960Z</time>
      </trkpt>
      <trkpt lat="48.379354" lon="9.753802">
        <ele>546.773095</ele>
        <time>2025-05-18T16:50:59.025Z</time>
      </trkpt>
      <trkpt lat="48.379455" lon="9.753953">
        <ele>547.049514</ele>
        <time>2025-05-18T16:51:02.055Z</time>
      </trkpt>
      <trkpt lat="48.379709" lon="9.754318">
        <ele>547.146043</ele>
        <time>2025-05-18T16:51:09.517Z</time>
      </trkpt>
      <trkpt lat="48.380255" lon="9.755582">
        <ele>546.020466</ele>
        <time>2025-05-18T16:51:27.494Z</time>
      </trkpt>
      <trkpt lat="48.381055" lon="9.757852">
        <ele>545.229707</ele>
        <time>2025-05-18T16:52:00.320Z</time>
      </trkpt>
      <trkpt lat="48.381261" lon="9.758546">
        <ele>545.179533</ele>
        <time>2025-05-18T16:52:12.133Z</time>
      </trkpt>
      <trkpt lat="48.381609" lon="9.759905">
        <ele>543.640910</ele>
        <time>2025-05-18T16:52:33.635Z</time>
      </trkpt>
      <trkpt lat="48.381788" lon="9.760816">
        <ele>542.402461</ele>
        <time>2025-05-18T16:52:44.263Z</time>
      </trkpt>
      <trkpt lat="48.381854" lon="9.761454">
        <ele>541.469371</ele>
        <time>2025-05-18T16:52:50.611Z</time>
      </trkpt>
      <trkpt lat="48.382269" lon="9.762236">
        <ele>538.443994</ele>
        <time>2025-05-18T16:53:00.236Z</time>
      </trkpt>
      <trkpt lat="48.382927" lon="9.761702">
        <ele>535.042351</ele>
        <time>2025-05-18T16:53:11.689Z</time>
      </trkpt>
      <trkpt lat="48.383082" lon="9.761564">
        <ele>534.222901</ele>
        <time>2025-05-18T16:53:14.638Z</time>
      </trkpt>
      <trkpt lat="48.383912" lon="9.760671">
        <ele>532.052605</ele>
        <time>2025-05-18T16:53:32.729Z</time>
      </trkpt>
      <trkpt lat="48.384380" lon="9.760281">
        <ele>531.175583</ele>
        <time>2025-05-18T16:53:42.777Z</time>
      </trkpt>
      <trkpt lat="48.385599" lon="9.762844">
        <ele>529.151453</ele>
        <time>2025-05-18T16:54:23.902Z</time>
      </trkpt>
      <trkpt lat="48.386678" lon="9.764916">
        <ele>528.075356</ele>
        <time>2025-05-18T16:54:58.785Z</time>
      </trkpt>
      <trkpt lat="48.386932" lon="9.765346">
        <ele>527.920980</ele>
        <time>2025-05-18T16:55:06.568Z</time>
      </trkpt>
      <trkpt lat="48.388597" lon="9.767862">
        <ele>527.366039</ele>
        <time>2025-05-18T16:55:55.558Z</time>
      </trkpt>
      <trkpt lat="48.389237" lon="9.768688">
        <ele>527.186373</ele>
        <time>2025-05-18T16:56:12.903Z</time>
      </trkpt>
      <trkpt lat="48.389792" lon="9.769351">
        <ele>527.051406</ele>
        <time>2025-05-18T16:56:27.455Z</time>
      </trkpt>
      <trkpt lat="48.392323" lon="9.771195">
        <ele>526.854572</ele>
        <time>2025-05-18T16:57:25.933Z</time>
      </trkpt>
      <trkpt lat="48.392683" lon="9.771327">
        <ele>526.982683</ele>
        <time>2025-05-18T16:57:33.911Z</time>
      </trkpt>
      <trkpt lat="48.393761" lon="9.771585">
        <ele>528.191104</ele>
        <time>2025-05-18T16:57:58.612Z</time>
      </trkpt>
      <trkpt lat="48.394172" lon="9.771762">
        <ele>528.664357</ele>
        <time>2025-05-18T16:58:08.530Z</time>
      </trkpt>
      <trkpt lat="48.394306" lon="9.771898">
        <ele>528.843250</ele>
        <time>2025-05-18T16:58:12.244Z</time>
      </trkpt>
      <trkpt lat="48.394472" lon="9.772220">
        <ele>529.150912</ele>
        <time>2025-05-18T16:58:18.433Z</time>
      </trkpt>
      <trkpt lat="48.394709" lon="9.772216">
        <ele>529.420513</ele>
        <time>2025-05-18T16:58:23.814Z</time>
      </trkpt>
      <trkpt lat="48.395029" lon="9.772155">
        <ele>529.787412</ele>
        <time>2025-05-18T16:58:31.124Z</time>
      </trkpt>
      <trkpt lat="48.395289" lon="9.772051">
        <ele>530.093412</ele>
        <time>2025-05-18T16:58:37.213Z</time>
      </trkpt>
      <trkpt lat="48.395616" lon="9.771845">
        <ele>530.496598</ele>
        <time>2025-05-18T16:58:45.214Z</time>
      </trkpt>
      <trkpt lat="48.395992" lon="9.771515">
        <ele>530.896424</ele>
        <time>2025-05-18T16:58:54.934Z</time>
      </trkpt>
      <trkpt lat="48.396223" lon="9.771362">
        <ele>530.892205</ele>
        <time>2025-05-18T16:59:00.640Z</time>
      </trkpt>
      <trkpt lat="48.396780" lon="9.771141">
        <ele>530.882574</ele>
        <time>2025-05-18T16:59:13.374Z</time>
      </trkpt>
      <trkpt lat="48.397005" lon="9.771008">
        <ele>530.878532</ele>
        <time>2025-05-18T16:59:18.506Z</time>
      </trkpt>
      <trkpt lat="48.397249" lon="9.770815">
        <ele>530.873924</ele>
        <time>2025-05-18T16:59:24.183Z</time>
      </trkpt>
      <trkpt lat="48.397692" lon="9.770397">
        <ele>530.623819</ele>
        <time>2025-05-18T16:59:34.056Z</time>
      </trkpt>
      <trkpt lat="48.398237" lon="9.769774">
        <ele>529.527750</ele>
        <time>2025-05-18T16:59:45.950Z</time>
      </trkpt>
      <trkpt lat="48.398289" lon="9.769547">
        <ele>529.272338</ele>
        <time>2025-05-18T16:59:48.736Z</time>
      </trkpt>
      <trkpt lat="48.398279" lon="9.769193">
        <ele>528.895472</ele>
        <time>2025-05-18T16:59:52.952Z</time>
      </trkpt>
      <trkpt lat="48.398527" lon="9.769180">
        <ele>528.497940</ele>
        <time>2025-05-18T16:59:57.748Z</time>
      </trkpt>
      <trkpt lat="48.399358" lon="9.768757">
        <ele>527.427845</ele>
        <time>2025-05-18T17:00:15.165Z</time>
      </trkpt>
      <trkpt lat="48.399800" lon="9.768480">
        <ele>526.948531</ele>
        <time>2025-05-18T17:00:24.479Z</time>
      </trkpt>
      <trkpt lat="48.400160" lon="9.768146">
        <ele>526.525203</ele>
        <time>2025-05-18T17:00:32.641Z</time>
      </trkpt>
      <trkpt lat="48.400200" lon="9.768099">
        <ele>526.474410</ele>
        <time>2025-05-18T17:00:33.636Z</time>
      </trkpt>
      <trkpt lat="48.400453" lon="9.767803">
        <ele>526.171906</ele>
        <time>2025-05-18T17:00:39.976Z</time>
      </trkpt>
      <trkpt lat="48.400601" lon="9.767581">
        <ele>526.082542</ele>
        <time>2025-05-18T17:00:44.165Z</time>
      </trkpt>
      <trkpt lat="48.400772" lon="9.767713">
        <ele>526.000333</ele>
        <time>2025-05-18T17:00:50.816Z</time>
      </trkpt>
      <trkpt lat="48.400899" lon="9.767811">
        <ele>525.939281</ele>
        <time>2025-05-18T17:00:55.750Z</time>
      </trkpt>
      <trkpt lat="48.400950" lon="9.767815">
        <ele>525.917432</ele>
        <time>2025-05-18T17:00:57.520Z</time>
      </trkpt>
      <trkpt lat="48.400979" lon="9.767723">
        <ele>525.888503</ele>
        <time>2025-05-18T17:00:59.878Z</time>
      </trkpt>
      <trkpt lat="48.401018" lon="9.767618">
        <ele>525.854328</ele>
        <time>2025-05-18T17:01:02.629Z</time>
      </trkpt>
      <trkpt lat="48.400984" lon="9.767576">
        <ele>525.835515</ele>
        <time>2025-05-18T17:01:04.136Z</time>
      </trkpt>
      <trkpt lat="48.401000" lon="9.767517">
        <ele>525.817412</ele>
        <time>2025-05-18T17:01:05.600Z</time>
      </trkpt>
      <trkpt lat="48.401237" lon="9.767468">
        <ele>525.715062</ele>
        <time>2025-05-18T17:01:13.846Z</time>
      </trkpt>
      <trkpt lat="48.401283" lon="9.767394">
        <ele>525.686267</ele>
        <time>2025-05-18T17:01:16.206Z</time>
      </trkpt>
      <trkpt lat="48.401457" lon="9.767397">
        <ele>525.611818</ele>
        <time>2025-05-18T17:01:19.693Z</time>
      </trkpt>
      <trkpt lat="48.401543" lon="9.767391">
        <ele>525.574984</ele>
        <time>2025-05-18T17:01:21.419Z</time>
      </trkpt>
      <trkpt lat="48.401693" lon="9.767361">
        <ele>525.510245</ele>
        <time>2025-05-18T17:01:24.486Z</time>
      </trkpt>
      <trkpt lat="48.401923" lon="9.767316">
        <ele>525.417875</ele>
        <time>2025-05-18T17:01:29.332Z</time>
      </trkpt>
      <trkpt lat="48.401927" lon="9.767439">
        <ele>525.431180</ele>
        <time>2025-05-18T17:01:31.091Z</time>
      </trkpt>
      <trkpt lat="48.401929" lon="9.767616">
        <ele>525.450307</ele>
        <time>2025-05-18T17:01:33.613Z</time>
      </trkpt>
      <trkpt lat="48.401930" lon="9.767657">
        <ele>525.454740</ele>
        <time>2025-05-18T17:01:34.202Z</time>
      </trkpt>
      <trkpt lat="48.401931" lon="9.767844">
        <ele>525.474944</ele>
        <time>2025-05-18T17:01:36.915Z</time>
      </trkpt>
      <trkpt lat="48.401952" lon="9.768119">
        <ele>525.504852</ele>
        <time>2025-05-18T17:01:40.986Z</time>
      </trkpt>
      <trkpt lat="48.402038" lon="9.768440">
        <ele>525.542251</ele>
        <time>2025-05-18T17:01:46.141Z</time>
      </trkpt>
      <trkpt lat="48.402120" lon="9.768621">
        <ele>525.565926</ele>
        <time>2025-05-18T17:01:49.365Z</time>
      </trkpt>
      <trkpt lat="48.402232" lon="9.768860">
        <ele>525.597533</ele>
        <time>2025-05-18T17:01:53.613Z</time>
      </trkpt>
      <trkpt lat="48.402334" lon="9.769068">
        <ele>525.625472</ele>
        <time>2025-05-18T17:01:57.296Z</time>
      </trkpt>
      <trkpt lat="48.402632" lon="9.769699">
        <ele>525.704896</ele>
        <time>2025-05-18T17:02:08.107Z</time>
      </trkpt>
      <trkpt lat="48.402958" lon="9.770431">
        <ele>524.883379</ele>
        <time>2025-05-18T17:02:19.755Z</time>
      </trkpt>
      <trkpt lat="48.403237" lon="9.771214">
        <ele>524.055153</ele>
        <time>2025-05-18T17:02:30.244Z</time>
      </trkpt>
      <trkpt lat="48.403629" lon="9.772585">
        <ele>522.623508</ele>
        <time>2025-05-18T17:02:47.723Z</time>
      </trkpt>
      <trkpt lat="48.403763" lon="9.773255">
        <ele>521.920648</ele>
        <time>2025-05-18T17:02:56.186Z</time>
      </trkpt>
      <trkpt lat="48.403979" lon="9.774622">
        <ele>520.509207</ele>
        <time>2025-05-18T17:03:13.345Z</time>
      </trkpt>
      <trkpt lat="48.404107" lon="9.776037">
        <ele>520.498179</ele>
        <time>2025-05-18T17:03:32.256Z</time>
      </trkpt>
      <trkpt lat="48.404081" lon="9.776169">
        <ele>520.501757</ele>
        <time>2025-05-18T17:03:34.218Z</time>
      </trkpt>
      <trkpt lat="48.404039" lon="9.776324">
        <ele>520.506108</ele>
        <time>2025-05-18T17:03:36.637Z</time>
      </trkpt>
      <trkpt lat="48.404038" lon="9.776881">
        <ele>520.520581</ele>
        <time>2025-05-18T17:03:44.885Z</time>
      </trkpt>
      <trkpt lat="48.404018" lon="9.777365">
        <ele>520.537367</ele>
        <time>2025-05-18T17:03:52.238Z</time>
      </trkpt>
      <trkpt lat="48.404043" lon="9.777465">
        <ele>520.563575</ele>
        <time>2025-05-18T17:03:53.869Z</time>
      </trkpt>
      <trkpt lat="48.404076" lon="9.777502">
        <ele>520.578773</ele>
        <time>2025-05-18T17:03:54.818Z</time>
      </trkpt>
      <trkpt lat="48.404099" lon="9.777570">
        <ele>520.597491</ele>
        <time>2025-05-18T17:03:55.983Z</time>
      </trkpt>
      <trkpt lat="48.403996" lon="9.777781">
        <ele>520.661725</ele>
        <time>2025-05-18T17:03:59.959Z</time>
      </trkpt>
      <trkpt lat="48.403829" lon="9.778892">
        <ele>520.941109</ele>
        <time>2025-05-18T17:04:16.798Z</time>
      </trkpt>
      <trkpt lat="48.403447" lon="9.780981">
        <ele>520.938436</ele>
        <time>2025-05-18T17:04:45.630Z</time>
      </trkpt>
      <trkpt lat="48.403391" lon="9.781363">
        <ele>520.848281</ele>
        <time>2025-05-18T17:04:50.789Z</time>
      </trkpt>
      <trkpt lat="48.403347" lon="9.782128">
        <ele>520.671321</ele>
        <time>2025-05-18T17:05:01.070Z</time>
      </trkpt>
      <trkpt lat="48.403389" lon="9.782992">
        <ele>520.598976</ele>
        <time>2025-05-18T17:05:13.737Z</time>
      </trkpt>
      <trkpt lat="48.403463" lon="9.783730">
        <ele>520.643486</ele>
        <time>2025-05-18T17:05:24.593Z</time>
      </trkpt>
      <trkpt lat="48.403527" lon="9.784392">
        <ele>520.683381</ele>
        <time>2025-05-18T17:05:34.115Z</time>
      </trkpt>
      <trkpt lat="48.403875" lon="9.786146">
        <ele>520.221452</ele>
        <time>2025-05-18T17:05:58.862Z</time>
      </trkpt>
      <trkpt lat="48.403910" lon="9.786543">
        <ele>520.010887</ele>
        <time>2025-05-18T17:06:03.888Z</time>
      </trkpt>
      <trkpt lat="48.403914" lon="9.786944">
        <ele>519.800028</ele>
        <time>2025-05-18T17:06:08.776Z</time>
      </trkpt>
      <trkpt lat="48.403877" lon="9.787671">
        <ele>519.416669</ele>
        <time>2025-05-18T17:06:18.191Z</time>
      </trkpt>
      <trkpt lat="48.403903" lon="9.787851">
        <ele>519.319815</ele>
        <time>2025-05-18T17:06:20.600Z</time>
      </trkpt>
      <trkpt lat="48.403974" lon="9.787930">
        <ele>519.363835</ele>
        <time>2025-05-18T17:06:22.322Z</time>
      </trkpt>
      <trkpt lat="48.404047" lon="9.787947">
        <ele>519.416446</ele>
        <time>2025-05-18T17:06:23.818Z</time>
      </trkpt>
      <trkpt lat="48.404045" lon="9.788015">
        <ele>519.448631</ele>
        <time>2025-05-18T17:06:24.714Z</time>
      </trkpt>
      <trkpt lat="48.403984" lon="9.788312">
        <ele>519.595630</ele>
        <time>2025-05-18T17:06:28.799Z</time>
      </trkpt>
      <trkpt lat="48.403986" lon="9.788489">
        <ele>519.679335</ele>
        <time>2025-05-18T17:06:31.210Z</time>
      </trkpt>
      <trkpt lat="48.404082" lon="9.788525">
        <ele>519.749797</ele>
        <time>2025-05-18T17:06:33.272Z</time>
      </trkpt>
      <trkpt lat="48.404146" lon="9.788549">
        <ele>519.796771</ele>
        <time>2025-05-18T17:06:34.666Z</time>
      </trkpt>
      <trkpt lat="48.404120" lon="9.788671">
        <ele>519.857357</ele>
        <time>2025-05-18T17:06:36.484Z</time>
      </trkpt>
      <trkpt lat="48.404183" lon="9.788721">
        <ele>519.908075</ele>
        <time>2025-05-18T17:06:38.029Z</time>
      </trkpt>
      <trkpt lat="48.404229" lon="9.788849">
        <ele>519.976897</ele>
        <time>2025-05-18T17:06:40.188Z</time>
      </trkpt>
      <trkpt lat="48.404652" lon="9.789473">
        <ele>520.398585</ele>
        <time>2025-05-18T17:06:53.733Z</time>
      </trkpt>
      <trkpt lat="48.404741" lon="9.789520">
        <ele>520.465757</ele>
        <time>2025-05-18T17:06:55.977Z</time>
      </trkpt>
      <trkpt lat="48.404866" lon="9.789509">
        <ele>520.554938</ele>
        <time>2025-05-18T17:06:58.964Z</time>
      </trkpt>
      <trkpt lat="48.404962" lon="9.789456">
        <ele>520.684910</ele>
        <time>2025-05-18T17:07:01.403Z</time>
      </trkpt>
      <trkpt lat="48.405258" lon="9.789188">
        <ele>521.312810</ele>
        <time>2025-05-18T17:07:09.584Z</time>
      </trkpt>
      <trkpt lat="48.405296" lon="9.789143">
        <ele>521.400692</ele>
        <time>2025-05-18T17:07:10.712Z</time>
      </trkpt>
      <trkpt lat="48.405902" lon="9.788375">
        <ele>522.840547</ele>
        <time>2025-05-18T17:07:29.605Z</time>
      </trkpt>
      <trkpt lat="48.406014" lon="9.788253">
        <ele>523.091839</ele>
        <time>2025-05-18T17:07:32.917Z</time>
      </trkpt>
      <trkpt lat="48.406137" lon="9.788124">
        <ele>523.364332</ele>
        <time>2025-05-18T17:07:36.422Z</time>
      </trkpt>
      <trkpt lat="48.406362" lon="9.787848">
        <ele>523.842258</ele>
        <time>2025-05-18T17:07:42.885Z</time>
      </trkpt>
      <trkpt lat="48.406493" lon="9.787657">
        <ele>523.638971</ele>
        <time>2025-05-18T17:07:46.484Z</time>
      </trkpt>
      <trkpt lat="48.406651" lon="9.787425">
        <ele>523.392943</ele>
        <time>2025-05-18T17:07:50.557Z</time>
      </trkpt>
      <trkpt lat="48.406692" lon="9.787364">
        <ele>523.328687</ele>
        <time>2025-05-18T17:07:51.536Z</time>
      </trkpt>
      <trkpt lat="48.406768" lon="9.787261">
        <ele>523.214694</ele>
        <time>2025-05-18T17:07:53.489Z</time>
      </trkpt>
      <trkpt lat="48.406836" lon="9.787168">
        <ele>523.112282</ele>
        <time>2025-05-18T17:07:55.154Z</time>
      </trkpt>
      <trkpt lat="48.406917" lon="9.787057">
        <ele>522.990183</ele>
        <time>2025-05-18T17:07:57.272Z</time>
      </trkpt>
      <trkpt lat="48.407050" lon="9.786877">
        <ele>522.790819</ele>
        <time>2025-05-18T17:08:00.914Z</time>
      </trkpt>
      <trkpt lat="48.407311" lon="9.786538">
        <ele>522.406550</ele>
        <time>2025-05-18T17:08:07.734Z</time>
      </trkpt>
      <trkpt lat="48.407515" lon="9.786283">
        <ele>522.110966</ele>
        <time>2025-05-18T17:08:12.256Z</time>
      </trkpt>
      <trkpt lat="48.407644" lon="9.786129">
        <ele>521.927433</ele>
        <time>2025-05-18T17:08:14.976Z</time>
      </trkpt>
      <trkpt lat="48.407657" lon="9.786113">
        <ele>521.908714</ele>
        <time>2025-05-18T17:08:15.247Z</time>
      </trkpt>
      <trkpt lat="48.407812" lon="9.785928">
        <ele>521.489690</ele>
        <time>2025-05-18T17:08:18.593Z</time>
      </trkpt>
      <trkpt lat="48.407958" lon="9.785754">
        <ele>521.035845</ele>
        <time>2025-05-18T17:08:21.855Z</time>
      </trkpt>
      <trkpt lat="48.408192" lon="9.785451">
        <ele>520.283607</ele>
        <time>2025-05-18T17:08:27.172Z</time>
      </trkpt>
      <trkpt lat="48.408266" lon="9.785360">
        <ele>520.050729</ele>
        <time>2025-05-18T17:08:28.759Z</time>
      </trkpt>
      <trkpt lat="48.408465" lon="9.785135">
        <ele>519.444152</ele>
        <time>2025-05-18T17:08:33.058Z</time>
      </trkpt>
      <trkpt lat="48.408850" lon="9.784764">
        <ele>518.329977</ele>
        <time>2025-05-18T17:08:40.486Z</time>
      </trkpt>
      <trkpt lat="48.409208" lon="9.784606">
        <ele>517.451868</ele>
        <time>2025-05-18T17:08:46.745Z</time>
      </trkpt>
      <trkpt lat="48.409410" lon="9.784507">
        <ele>517.257416</ele>
        <time>2025-05-18T17:08:50.885Z</time>
      </trkpt>
      <trkpt lat="48.409532" lon="9.784444">
        <ele>517.139357</ele>
        <time>2025-05-18T17:08:53.233Z</time>
      </trkpt>
      <trkpt lat="48.409617" lon="9.784400">
        <ele>517.057082</ele>
        <time>2025-05-18T17:08:54.839Z</time>
      </trkpt>
      <trkpt lat="48.409986" lon="9.784227">
        <ele>516.703316</ele>
        <time>2025-05-18T17:09:01.757Z</time>
      </trkpt>
      <trkpt lat="48.410381" lon="9.784073">
        <ele>516.329817</ele>
        <time>2025-05-18T17:09:10.024Z</time>
      </trkpt>
      <trkpt lat="48.410724" lon="9.783937">
        <ele>516.005139</ele>
        <time>2025-05-18T17:09:17.647Z</time>
      </trkpt>
      <trkpt lat="48.410822" lon="9.784243">
        <ele>515.848383</ele>
        <time>2025-05-18T17:09:22.554Z</time>
      </trkpt>
      <trkpt lat="48.410978" lon="9.784123">
        <ele>516.000269</ele>
        <time>2025-05-18T17:09:26.559Z</time>
      </trkpt>
      <trkpt lat="48.411116" lon="9.784078">
        <ele>516.122704</ele>
        <time>2025-05-18T17:09:29.765Z</time>
      </trkpt>
      <trkpt lat="48.411221" lon="9.784063">
        <ele>516.214161</ele>
        <time>2025-05-18T17:09:32.108Z</time>
      </trkpt>
      <trkpt lat="48.411545" lon="9.784046">
        <ele>516.495281</ele>
        <time>2025-05-18T17:09:39.218Z</time>
      </trkpt>
      <trkpt lat="48.411885" lon="9.784028">
        <ele>516.790287</ele>
        <time>2025-05-18T17:09:47.107Z</time>
      </trkpt>
      <trkpt lat="48.411910" lon="9.784076">
        <ele>516.825404</ele>
        <time>2025-05-18T17:09:48.079Z</time>
      </trkpt>
      <trkpt lat="48.412404" lon="9.783929">
        <ele>517.262042</ele>
        <time>2025-05-18T17:10:00.013Z</time>
      </trkpt>
      <trkpt lat="48.412446" lon="9.783916">
        <ele>517.299222</ele>
        <time>2025-05-18T17:10:01.022Z</time>
      </trkpt>
      <trkpt lat="48.412801" lon="9.783784">
        <ele>517.804170</ele>
        <time>2025-05-18T17:10:09.707Z</time>
      </trkpt>
      <trkpt lat="48.412836" lon="9.784057">
        <ele>518.093566</ele>
        <time>2025-05-18T17:10:14.881Z</time>
      </trkpt>
      <trkpt lat="48.412988" lon="9.783926">
        <ele>518.368157</ele>
        <time>2025-05-18T17:10:18.999Z</time>
      </trkpt>
      <trkpt lat="48.413182" lon="9.783787">
        <ele>518.705013</ele>
        <time>2025-05-18T17:10:24.020Z</time>
      </trkpt>
      <trkpt lat="48.413209" lon="9.783771">
        <ele>518.750508</ele>
        <time>2025-05-18T17:10:24.689Z</time>
      </trkpt>
      <trkpt lat="48.413473" lon="9.783616">
        <ele>519.194803</ele>
        <time>2025-05-18T17:10:31.448Z</time>
      </trkpt>
      <trkpt lat="48.413551" lon="9.783573">
        <ele>519.325044</ele>
        <time>2025-05-18T17:10:33.370Z</time>
      </trkpt>
      <trkpt lat="48.413684" lon="9.783498">
        <ele>519.547728</ele>
        <time>2025-05-18T17:10:36.718Z</time>
      </trkpt>
      <trkpt lat="48.413955" lon="9.783385">
        <ele>519.988651</ele>
        <time>2025-05-18T17:10:43.322Z</time>
      </trkpt>
      <trkpt lat="48.414055" lon="9.783347">
        <ele>520.150369</ele>
        <time>2025-05-18T17:10:45.722Z</time>
      </trkpt>
      <trkpt lat="48.414181" lon="9.783293">
        <ele>520.145132</ele>
        <time>2025-05-18T17:10:48.710Z</time>
      </trkpt>
      <trkpt lat="48.414291" lon="9.783253">
        <ele>520.075872</ele>
        <time>2025-05-18T17:10:51.203Z</time>
      </trkpt>
      <trkpt lat="48.414376" lon="9.783206">
        <ele>520.020454</ele>
        <time>2025-05-18T17:10:53.269Z</time>
      </trkpt>
      <trkpt lat="48.414458" lon="9.783114">
        <ele>519.957877</ele>
        <time>2025-05-18T17:10:55.626Z</time>
      </trkpt>
      <trkpt lat="48.414569" lon="9.783206">
        <ele>519.880336</ele>
        <time>2025-05-18T17:10:58.528Z</time>
      </trkpt>
      <trkpt lat="48.414805" lon="9.783427">
        <ele>519.710262</ele>
        <time>2025-05-18T17:11:04.893Z</time>
      </trkpt>
      <trkpt lat="48.415204" lon="9.783717">
        <ele>519.439118</ele>
        <time>2025-05-18T17:11:13.441Z</time>
      </trkpt>
      <trkpt lat="48.415683" lon="9.783837">
        <ele>519.141915</ele>
        <time>2025-05-18T17:11:21.481Z</time>
      </trkpt>
      <trkpt lat="48.415702" lon="9.783853">
        <ele>519.128593</ele>
        <time>2025-05-18T17:11:21.827Z</time>
      </trkpt>
      <trkpt lat="48.415777" lon="9.784038">
        <ele>518.769576</ele>
        <time>2025-05-18T17:11:24.042Z</time>
      </trkpt>
      <trkpt lat="48.415791" lon="9.784251">
        <ele>518.307844</ele>
        <time>2025-05-18T17:11:26.254Z</time>
      </trkpt>
      <trkpt lat="48.415802" lon="9.784885">
        <ele>516.939711</ele>
        <time>2025-05-18T17:11:33.238Z</time>
      </trkpt>
      <trkpt lat="48.415840" lon="9.785298">
        <ele>516.040268</ele>
        <time>2025-05-18T17:11:37.543Z</time>
      </trkpt>
      <trkpt lat="48.415882" lon="9.785660">
        <ele>515.247520</ele>
        <time>2025-05-18T17:11:41.233Z</time>
      </trkpt>
      <trkpt lat="48.416004" lon="9.785896">
        <ele>514.602222</ele>
        <time>2025-05-18T17:11:44.389Z</time>
      </trkpt>
      <trkpt lat="48.416046" lon="9.785999">
        <ele>514.341449</ele>
        <time>2025-05-18T17:11:45.767Z</time>
      </trkpt>
      <trkpt lat="48.416078" lon="9.786174">
        <ele>513.949876</ele>
        <time>2025-05-18T17:11:47.806Z</time>
      </trkpt>
      <trkpt lat="48.416074" lon="9.786540">
        <ele>513.206836</ele>
        <time>2025-05-18T17:11:52.011Z</time>
      </trkpt>
      <trkpt lat="48.415931" lon="9.786866">
        <ele>512.767752</ele>
        <time>2025-05-18T17:11:56.906Z</time>
      </trkpt>
      <trkpt lat="48.415921" lon="9.786915">
        <ele>512.710149</ele>
        <time>2025-05-18T17:11:57.525Z</time>
      </trkpt>
      <trkpt lat="48.415895" lon="9.787034">
        <ele>512.569375</ele>
        <time>2025-05-18T17:11:59.175Z</time>
      </trkpt>
      <trkpt lat="48.415910" lon="9.787622">
        <ele>511.908175</ele>
        <time>2025-05-18T17:12:06.251Z</time>
      </trkpt>
      <trkpt lat="48.415940" lon="9.788049">
        <ele>511.425692</ele>
        <time>2025-05-18T17:12:11.018Z</time>
      </trkpt>
      <trkpt lat="48.415966" lon="9.788425">
        <ele>511.000909</ele>
        <time>2025-05-18T17:12:15.482Z</time>
      </trkpt>
      <trkpt lat="48.415959" lon="9.788770">
        <ele>510.613066</ele>
        <time>2025-05-18T17:12:19.883Z</time>
      </trkpt>
      <trkpt lat="48.415912" lon="9.789103">
        <ele>510.230521</ele>
        <time>2025-05-18T17:12:24.341Z</time>
      </trkpt>
      <trkpt lat="48.415844" lon="9.789398">
        <ele>510.021703</ele>
        <time>2025-05-18T17:12:28.487Z</time>
      </trkpt>
      <trkpt lat="48.415818" lon="9.789388">
        <ele>509.995668</ele>
        <time>2025-05-18T17:12:29.006Z</time>
      </trkpt>
      <trkpt lat="48.415665" lon="9.789336">
        <ele>509.843493</ele>
        <time>2025-05-18T17:12:32.134Z</time>
      </trkpt>
      <trkpt lat="48.415658" lon="9.789333">
        <ele>509.836431</ele>
        <time>2025-05-18T17:12:32.283Z</time>
      </trkpt>
      <trkpt lat="48.415583" lon="9.789310">
        <ele>509.762172</ele>
        <time>2025-05-18T17:12:33.793Z</time>
      </trkpt>
      <trkpt lat="48.415556" lon="9.789572">
        <ele>509.591432</ele>
        <time>2025-05-18T17:12:37.283Z</time>
      </trkpt>
      <trkpt lat="48.415539" lon="9.789703">
        <ele>509.505475</ele>
        <time>2025-05-18T17:12:38.971Z</time>
      </trkpt>
      <trkpt lat="48.415446" lon="9.790248">
        <ele>509.143101</ele>
        <time>2025-05-18T17:12:46.017Z</time>
      </trkpt>
      <trkpt lat="48.415349" lon="9.790781">
        <ele>508.787198</ele>
        <time>2025-05-18T17:12:52.865Z</time>
      </trkpt>
      <trkpt lat="48.415333" lon="9.790876">
        <ele>508.724082</ele>
        <time>2025-05-18T17:12:54.134Z</time>
      </trkpt>
      <trkpt lat="48.415287" lon="9.791113">
        <ele>508.565070</ele>
        <time>2025-05-18T17:12:57.344Z</time>
      </trkpt>
      <trkpt lat="48.415260" lon="9.791206">
        <ele>508.499702</ele>
        <time>2025-05-18T17:12:58.647Z</time>
      </trkpt>
      <trkpt lat="48.415216" lon="9.791271">
        <ele>508.497343</ele>
        <time>2025-05-18T17:12:59.860Z</time>
      </trkpt>
      <trkpt lat="48.415134" lon="9.791327">
        <ele>508.592898</ele>
        <time>2025-05-18T17:13:01.617Z</time>
      </trkpt>
      <trkpt lat="48.414755" lon="9.791282">
        <ele>508.996403</ele>
        <time>2025-05-18T17:13:09.314Z</time>
      </trkpt>
      <trkpt lat="48.414690" lon="9.791275">
        <ele>509.065568</ele>
        <time>2025-05-18T17:13:10.666Z</time>
      </trkpt>
      <trkpt lat="48.414010" lon="9.791178">
        <ele>509.790525</ele>
        <time>2025-05-18T17:13:26.156Z</time>
      </trkpt>
      <trkpt lat="48.413517" lon="9.791089">
        <ele>510.317522</ele>
        <time>2025-05-18T17:13:38.012Z</time>
      </trkpt>
      <trkpt lat="48.413422" lon="9.790976">
        <ele>510.521594</ele>
        <time>2025-05-18T17:13:40.929Z</time>
      </trkpt>
      <trkpt lat="48.413380" lon="9.791070">
        <ele>510.688100</ele>
        <time>2025-05-18T17:13:42.757Z</time>
      </trkpt>
      <trkpt lat="48.413366" lon="9.791738">
        <ele>511.670168</ele>
        <time>2025-05-18T17:13:53.474Z</time>
      </trkpt>
      <trkpt lat="48.413253" lon="9.792425">
        <ele>512.710201</ele>
        <time>2025-05-18T17:14:04.806Z</time>
      </trkpt>
      <trkpt lat="48.413113" lon="9.792884">
        <ele>513.452475</ele>
        <time>2025-05-18T17:14:12.663Z</time>
      </trkpt>
      <trkpt lat="48.412613" lon="9.794089">
        <ele>513.972602</ele>
        <time>2025-05-18T17:14:34.059Z</time>
      </trkpt>
      <trkpt lat="48.412527" lon="9.794151">
        <ele>513.903765</ele>
        <time>2025-05-18T17:14:36.169Z</time>
      </trkpt>
      <trkpt lat="48.411865" lon="9.795503">
        <ele>513.098599</ele>
        <time>2025-05-18T17:14:57.091Z</time>
      </trkpt>
      <trkpt lat="48.411428" lon="9.796380">
        <ele>510.966852</ele>
        <time>2025-05-18T17:15:08.766Z</time>
      </trkpt>
      <trkpt lat="48.411265" lon="9.796562">
        <ele>510.336781</ele>
        <time>2025-05-18T17:15:11.962Z</time>
      </trkpt>
      <trkpt lat="48.410041" lon="9.797294">
        <ele>506.721978</ele>
        <time>2025-05-18T17:15:33.431Z</time>
      </trkpt>
      <trkpt lat="48.408744" lon="9.797749">
        <ele>504.187272</ele>
        <time>2025-05-18T17:15:57.700Z</time>
      </trkpt>
      <trkpt lat="48.408524" lon="9.797846">
        <ele>503.984392</ele>
        <time>2025-05-18T17:16:02.075Z</time>
      </trkpt>
      <trkpt lat="48.408266" lon="9.797914">
        <ele>503.874472</ele>
        <time>2025-05-18T17:16:07.151Z</time>
      </trkpt>
      <trkpt lat="48.408112" lon="9.797897">
        <ele>503.809670</ele>
        <time>2025-05-18T17:16:10.196Z</time>
      </trkpt>
      <trkpt lat="48.407613" lon="9.797601">
        <ele>503.584603</ele>
        <time>2025-05-18T17:16:21.078Z</time>
      </trkpt>
      <trkpt lat="48.406442" lon="9.797039">
        <ele>503.472792</ele>
        <time>2025-05-18T17:16:47.555Z</time>
      </trkpt>
      <trkpt lat="48.406184" lon="9.797003">
        <ele>503.557775</ele>
        <time>2025-05-18T17:16:53.230Z</time>
      </trkpt>
      <trkpt lat="48.404758" lon="9.797052">
        <ele>503.988060</ele>
        <time>2025-05-18T17:17:23.977Z</time>
      </trkpt>
      <trkpt lat="48.404486" lon="9.797096">
        <ele>504.053739</ele>
        <time>2025-05-18T17:17:29.946Z</time>
      </trkpt>
      <trkpt lat="48.403954" lon="9.797283">
        <ele>504.184895</ele>
        <time>2025-05-18T17:17:41.900Z</time>
      </trkpt>
      <trkpt lat="48.403468" lon="9.797550">
        <ele>504.309095</ele>
        <time>2025-05-18T17:17:52.713Z</time>
      </trkpt>
      <trkpt lat="48.403378" lon="9.797582">
        <ele>504.347439</ele>
        <time>2025-05-18T17:17:54.656Z</time>
      </trkpt>
      <trkpt lat="48.403319" lon="9.797598">
        <ele>504.378478</ele>
        <time>2025-05-18T17:17:55.911Z</time>
      </trkpt>
      <trkpt lat="48.403107" lon="9.797608">
        <ele>504.488295</ele>
        <time>2025-05-18T17:18:00.417Z</time>
      </trkpt>
      <trkpt lat="48.403054" lon="9.797753">
        <ele>504.545191</ele>
        <time>2025-05-18T17:18:03.002Z</time>
      </trkpt>
      <trkpt lat="48.402887" lon="9.798277">
        <ele>504.744984</ele>
        <time>2025-05-18T17:18:11.727Z</time>
      </trkpt>
      <trkpt lat="48.402863" lon="9.798366">
        <ele>504.778003</ele>
        <time>2025-05-18T17:18:13.268Z</time>
      </trkpt>
      <trkpt lat="48.402717" lon="9.798289">
        <ele>504.858095</ele>
        <time>2025-05-18T17:18:18.521Z</time>
      </trkpt>
      <trkpt lat="48.402637" lon="9.798303">
        <ele>504.899794</ele>
        <time>2025-05-18T17:18:21.280Z</time>
      </trkpt>
      <trkpt lat="48.402579" lon="9.798352">
        <ele>504.934224</ele>
        <time>2025-05-18T17:18:23.568Z</time>
      </trkpt>
      <trkpt lat="48.402291" lon="9.798993">
        <ele>505.200272</ele>
        <time>2025-05-18T17:18:41.235Z</time>
      </trkpt>
      <trkpt lat="48.402005" lon="9.799403">
        <ele>505.483721</ele>
        <time>2025-05-18T17:18:54.626Z</time>
      </trkpt>
      <trkpt lat="48.401977" lon="9.799581">
        <ele>505.578432</ele>
        <time>2025-05-18T17:18:57.403Z</time>
      </trkpt>
      <trkpt lat="48.401850" lon="9.799758">
        <ele>505.713368</ele>
        <time>2025-05-18T17:19:01.383Z</time>
      </trkpt>
      <trkpt lat="48.401453" lon="9.800130">
        <ele>506.077995</ele>
        <time>2025-05-18T17:19:12.095Z</time>
      </trkpt>
      <trkpt lat="48.401151" lon="9.800582">
        <ele>506.410015</ele>
        <time>2025-05-18T17:19:21.384Z</time>
      </trkpt>
      <trkpt lat="48.400953" lon="9.801009">
        <ele>506.616012</ele>
        <time>2025-05-18T17:19:28.687Z</time>
      </trkpt>
      <trkpt lat="48.400898" lon="9.801239">
        <ele>506.458779</ele>
        <time>2025-05-18T17:19:32.094Z</time>
      </trkpt>
      <trkpt lat="48.400908" lon="9.801526">
        <ele>506.273934</ele>
        <time>2025-05-18T17:19:36.071Z</time>
      </trkpt>
      <trkpt lat="48.400820" lon="9.801735">
        <ele>506.114756</ele>
        <time>2025-05-18T17:19:39.475Z</time>
      </trkpt>
      <trkpt lat="48.400536" lon="9.802227">
        <ele>505.695433</ele>
        <time>2025-05-18T17:19:47.982Z</time>
      </trkpt>
      <trkpt lat="48.400443" lon="9.802350">
        <ele>505.575535</ele>
        <time>2025-05-18T17:19:50.230Z</time>
      </trkpt>
      <trkpt lat="48.400007" lon="9.802919">
        <ele>505.016661</ele>
        <time>2025-05-18T17:20:00.542Z</time>
      </trkpt>
      <trkpt lat="48.399737" lon="9.803223">
        <ele>504.613182</ele>
        <time>2025-05-18T17:20:06.596Z</time>
      </trkpt>
      <trkpt lat="48.399660" lon="9.803229">
        <ele>504.512225</ele>
        <time>2025-05-18T17:20:07.973Z</time>
      </trkpt>
      <trkpt lat="48.399574" lon="9.803235">
        <ele>504.399498</ele>
        <time>2025-05-18T17:20:09.506Z</time>
      </trkpt>
      <trkpt lat="48.399356" lon="9.803428">
        <ele>504.068395</ele>
        <time>2025-05-18T17:20:14.101Z</time>
      </trkpt>
      <trkpt lat="48.399314" lon="9.803346">
        <ele>503.978362</ele>
        <time>2025-05-18T17:20:15.329Z</time>
      </trkpt>
      <trkpt lat="48.398391" lon="9.804400">
        <ele>502.574022</ele>
        <time>2025-05-18T17:20:37.329Z</time>
      </trkpt>
      <trkpt lat="48.397632" lon="9.805189">
        <ele>502.840326</ele>
        <time>2025-05-18T17:20:56.237Z</time>
      </trkpt>
      <trkpt lat="48.397560" lon="9.805264">
        <ele>502.865605</ele>
        <time>2025-05-18T17:20:58.134Z</time>
      </trkpt>
      <trkpt lat="48.397251" lon="9.805689">
        <ele>502.986439</ele>
        <time>2025-05-18T17:21:07.404Z</time>
      </trkpt>
      <trkpt lat="48.397184" lon="9.805752">
        <ele>503.009247</ele>
        <time>2025-05-18T17:21:09.187Z</time>
      </trkpt>
      <trkpt lat="48.396755" lon="9.805754">
        <ele>503.988865</ele>
        <time>2025-05-18T17:21:18.898Z</time>
      </trkpt>
      <trkpt lat="48.395896" lon="9.806121">
        <ele>507.922895</ele>
        <time>2025-05-18T17:21:41.533Z</time>
      </trkpt>
      <trkpt lat="48.395820" lon="9.806321">
        <ele>508.597029</ele>
        <time>2025-05-18T17:21:46.057Z</time>
      </trkpt>
      <trkpt lat="48.395876" lon="9.806414">
        <ele>508.964312</ele>
        <time>2025-05-18T17:21:48.546Z</time>
      </trkpt>
      <trkpt lat="48.395804" lon="9.806508">
        <ele>509.384138</ele>
        <time>2025-05-18T17:21:51.400Z</time>
      </trkpt>
      <trkpt lat="48.395744" lon="9.806403">
        <ele>509.789403</ele>
        <time>2025-05-18T17:21:54.073Z</time>
      </trkpt>
      <trkpt lat="48.395603" lon="9.806118">
        <ele>510.829155</ele>
        <time>2025-05-18T17:22:01.080Z</time>
      </trkpt>
      <trkpt lat="48.395552" lon="9.805936">
        <ele>511.381252</ele>
        <time>2025-05-18T17:22:04.912Z</time>
      </trkpt>
      <trkpt lat="48.395523" lon="9.805814">
        <ele>511.736432</ele>
        <time>2025-05-18T17:22:07.347Z</time>
      </trkpt>
      <trkpt lat="48.395452" lon="9.805953">
        <ele>512.217118</ele>
        <time>2025-05-18T17:22:10.716Z</time>
      </trkpt>
      <trkpt lat="48.395430" lon="9.806101">
        <ele>512.632822</ele>
        <time>2025-05-18T17:22:13.574Z</time>
      </trkpt>
      <trkpt lat="48.395356" lon="9.806404">
        <ele>513.517734</ele>
        <time>2025-05-18T17:22:19.560Z</time>
      </trkpt>
      <trkpt lat="48.395189" lon="9.806918">
        <ele>515.086217</ele>
        <time>2025-05-18T17:22:29.930Z</time>
      </trkpt>
      <trkpt lat="48.395121" lon="9.807289">
        <ele>516.141153</ele>
        <time>2025-05-18T17:22:36.226Z</time>
      </trkpt>
      <trkpt lat="48.395115" lon="9.807652">
        <ele>517.136439</ele>
        <time>2025-05-18T17:22:41.763Z</time>
      </trkpt>
      <trkpt lat="48.395187" lon="9.808177">
        <ele>518.499866</ele>
        <time>2025-05-18T17:22:49.680Z</time>
      </trkpt>
      <trkpt lat="48.395263" lon="9.809769">
        <ele>520.343409</ele>
        <time>2025-05-18T17:23:14.454Z</time>
      </trkpt>
      <trkpt lat="48.395381" lon="9.810700">
        <ele>521.438149</ele>
        <time>2025-05-18T17:23:29.302Z</time>
      </trkpt>
      <trkpt lat="48.395560" lon="9.811737">
        <ele>521.243650</ele>
        <time>2025-05-18T17:23:44.870Z</time>
      </trkpt>
      <trkpt lat="48.395845" lon="9.813040">
        <ele>520.809790</ele>
        <time>2025-05-18T17:24:02.112Z</time>
      </trkpt>
      <trkpt lat="48.395949" lon="9.813617">
        <ele>520.567734</ele>
        <time>2025-05-18T17:24:09.116Z</time>
      </trkpt>
      <trkpt lat="48.395997" lon="9.814386">
        <ele>520.148784</ele>
        <time>2025-05-18T17:24:19.097Z</time>
      </trkpt>
      <trkpt lat="48.396162" lon="9.814874">
        <ele>519.851747</ele>
        <time>2025-05-18T17:24:26.818Z</time>
      </trkpt>
      <trkpt lat="48.396618" lon="9.816209">
        <ele>519.154865</ele>
        <time>2025-05-18T17:24:46.402Z</time>
      </trkpt>
      <trkpt lat="48.396967" lon="9.817587">
        <ele>518.854486</ele>
        <time>2025-05-18T17:25:05.737Z</time>
      </trkpt>
      <trkpt lat="48.397040" lon="9.818768">
        <ele>518.598532</ele>
        <time>2025-05-18T17:25:22.862Z</time>
      </trkpt>
      <trkpt lat="48.397045" lon="9.819964">
        <ele>518.297351</ele>
        <time>2025-05-18T17:25:40.956Z</time>
      </trkpt>
      <trkpt lat="48.397092" lon="9.820900">
        <ele>518.060976</ele>
        <time>2025-05-18T17:25:53.091Z</time>
      </trkpt>
      <trkpt lat="48.397188" lon="9.822141">
        <ele>516.548155</ele>
        <time>2025-05-18T17:26:06.381Z</time>
      </trkpt>
      <trkpt lat="48.397250" lon="9.822417">
        <ele>516.116281</ele>
        <time>2025-05-18T17:26:09.437Z</time>
      </trkpt>
      <trkpt lat="48.397303" lon="9.822837">
        <ele>515.482605</ele>
        <time>2025-05-18T17:26:14.005Z</time>
      </trkpt>
      <trkpt lat="48.397244" lon="9.823453">
        <ele>514.560105</ele>
        <time>2025-05-18T17:26:21.207Z</time>
      </trkpt>
      <trkpt lat="48.397293" lon="9.823735">
        <ele>514.128042</ele>
        <time>2025-05-18T17:26:24.969Z</time>
      </trkpt>
      <trkpt lat="48.398041" lon="9.825268">
        <ele>514.555207</ele>
        <time>2025-05-18T17:26:53.742Z</time>
      </trkpt>
      <trkpt lat="48.398433" lon="9.825974">
        <ele>514.833010</ele>
        <time>2025-05-18T17:27:07.483Z</time>
      </trkpt>
      <trkpt lat="48.399000" lon="9.827305">
        <ele>512.824453</ele>
        <time>2025-05-18T17:27:26.100Z</time>
      </trkpt>
      <trkpt lat="48.399202" lon="9.827842">
        <ele>512.040551</ele>
        <time>2025-05-18T17:27:32.889Z</time>
      </trkpt>
      <trkpt lat="48.399458" lon="9.828554">
        <ele>511.067353</ele>
        <time>2025-05-18T17:27:41.698Z</time>
      </trkpt>
      <trkpt lat="48.399872" lon="9.829500">
        <ele>509.829609</ele>
        <time>2025-05-18T17:27:54.521Z</time>
      </trkpt>
      <trkpt lat="48.399984" lon="9.829859">
        <ele>509.396291</ele>
        <time>2025-05-18T17:27:59.538Z</time>
      </trkpt>
      <trkpt lat="48.400088" lon="9.830369">
        <ele>508.813471</ele>
        <time>2025-05-18T17:28:06.466Z</time>
      </trkpt>
      <trkpt lat="48.400160" lon="9.830910">
        <ele>508.611627</ele>
        <time>2025-05-18T17:28:14.034Z</time>
      </trkpt>
      <trkpt lat="48.400284" lon="9.831486">
        <ele>509.071170</ele>
        <time>2025-05-18T17:28:22.919Z</time>
      </trkpt>
      <trkpt lat="48.400545" lon="9.832099">
        <ele>509.623830</ele>
        <time>2025-05-18T17:28:34.093Z</time>
      </trkpt>
      <trkpt lat="48.400767" lon="9.832709">
        <ele>510.151757</ele>
        <time>2025-05-18T17:28:44.861Z</time>
      </trkpt>
      <trkpt lat="48.400994" lon="9.833246">
        <ele>510.579038</ele>
        <time>2025-05-18T17:28:54.677Z</time>
      </trkpt>
      <trkpt lat="48.401764" lon="9.834285">
        <ele>511.259295</ele>
        <time>2025-05-18T17:29:17.767Z</time>
      </trkpt>
      <trkpt lat="48.402196" lon="9.834565">
        <ele>511.568761</ele>
        <time>2025-05-18T17:29:27.857Z</time>
      </trkpt>
      <trkpt lat="48.403355" lon="9.835513">
        <ele>511.041212</ele>
        <time>2025-05-18T17:29:54.823Z</time>
      </trkpt>
      <trkpt lat="48.403729" lon="9.835774">
        <ele>510.807665</ele>
        <time>2025-05-18T17:30:02.810Z</time>
      </trkpt>
      <trkpt lat="48.404461" lon="9.836103">
        <ele>509.939609</ele>
        <time>2025-05-18T17:30:17.357Z</time>
      </trkpt>
      <trkpt lat="48.404852" lon="9.836446">
        <ele>509.302234</ele>
        <time>2025-05-18T17:30:25.817Z</time>
      </trkpt>
      <trkpt lat="48.405304" lon="9.836711">
        <ele>508.618998</ele>
        <time>2025-05-18T17:30:34.949Z</time>
      </trkpt>
      <trkpt lat="48.405959" lon="9.837041">
        <ele>507.261456</ele>
        <time>2025-05-18T17:30:47.437Z</time>
      </trkpt>
      <trkpt lat="48.406475" lon="9.837393">
        <ele>505.834555</ele>
        <time>2025-05-18T17:30:56.902Z</time>
      </trkpt>
      <trkpt lat="48.407019" lon="9.837952">
        <ele>504.175726</ele>
        <time>2025-05-18T17:31:07.601Z</time>
      </trkpt>
      <trkpt lat="48.407778" lon="9.838955">
        <ele>503.070352</ele>
        <time>2025-05-18T17:31:24.977Z</time>
      </trkpt>
      <trkpt lat="48.407913" lon="9.839465">
        <ele>502.822130</ele>
        <time>2025-05-18T17:31:32.409Z</time>
      </trkpt>
      <trkpt lat="48.407986" lon="9.839866">
        <ele>502.634148</ele>
        <time>2025-05-18T17:31:38.463Z</time>
      </trkpt>
      <trkpt lat="48.408092" lon="9.840265">
        <ele>502.439855</ele>
        <time>2025-05-18T17:31:44.987Z</time>
      </trkpt>
      <trkpt lat="48.408319" lon="9.842117">
        <ele>503.993923</ele>
        <time>2025-05-18T17:32:14.060Z</time>
      </trkpt>
      <trkpt lat="48.408368" lon="9.842776">
        <ele>504.607211</ele>
        <time>2025-05-18T17:32:23.942Z</time>
      </trkpt>
      <trkpt lat="48.408349" lon="9.843070">
        <ele>504.880402</ele>
        <time>2025-05-18T17:32:28.279Z</time>
      </trkpt>
      <trkpt lat="48.408181" lon="9.844437">
        <ele>505.943853</ele>
        <time>2025-05-18T17:32:48.771Z</time>
      </trkpt>
      <trkpt lat="48.408096" lon="9.844747">
        <ele>506.200264</ele>
        <time>2025-05-18T17:32:53.847Z</time>
      </trkpt>
      <trkpt lat="48.408046" lon="9.845048">
        <ele>506.437468</ele>
        <time>2025-05-18T17:32:58.584Z</time>
      </trkpt>
      <trkpt lat="48.407637" lon="9.846857">
        <ele>507.684883</ele>
        <time>2025-05-18T17:33:27.917Z</time>
      </trkpt>
      <trkpt lat="48.407264" lon="9.848093">
        <ele>508.487769</ele>
        <time>2025-05-18T17:33:47.607Z</time>
      </trkpt>
      <trkpt lat="48.407081" lon="9.849012">
        <ele>507.998174</ele>
        <time>2025-05-18T17:34:00.710Z</time>
      </trkpt>
      <trkpt lat="48.406935" lon="9.849395">
        <ele>507.704307</ele>
        <time>2025-05-18T17:34:06.586Z</time>
      </trkpt>
      <trkpt lat="48.406555" lon="9.850245">
        <ele>507.022439</ele>
        <time>2025-05-18T17:34:19.319Z</time>
      </trkpt>
      <trkpt lat="48.406249" lon="9.850820">
        <ele>506.538029</ele>
        <time>2025-05-18T17:34:27.777Z</time>
      </trkpt>
      <trkpt lat="48.406123" lon="9.851151">
        <ele>506.290921</ele>
        <time>2025-05-18T17:34:32.056Z</time>
      </trkpt>
      <trkpt lat="48.406002" lon="9.851640">
        <ele>505.952945</ele>
        <time>2025-05-18T17:34:37.947Z</time>
      </trkpt>
      <trkpt lat="48.405923" lon="9.852295">
        <ele>505.521802</ele>
        <time>2025-05-18T17:34:45.843Z</time>
      </trkpt>
      <trkpt lat="48.405858" lon="9.852593">
        <ele>505.318656</ele>
        <time>2025-05-18T17:34:50.006Z</time>
      </trkpt>
      <trkpt lat="48.405761" lon="9.852878">
        <ele>505.111236</ele>
        <time>2025-05-18T17:34:54.639Z</time>
      </trkpt>
      <trkpt lat="48.405388" lon="9.853459">
        <ele>506.090118</ele>
        <time>2025-05-18T17:35:07.537Z</time>
      </trkpt>
      <trkpt lat="48.404987" lon="9.854283">
        <ele>507.838453</ele>
        <time>2025-05-18T17:35:25.394Z</time>
      </trkpt>
      <trkpt lat="48.404783" lon="9.854520">
        <ele>508.502530</ele>
        <time>2025-05-18T17:35:31.660Z</time>
      </trkpt>
      <trkpt lat="48.404661" lon="9.854617">
        <ele>508.858127</ele>
        <time>2025-05-18T17:35:34.890Z</time>
      </trkpt>
      <trkpt lat="48.404616" lon="9.854644">
        <ele>508.982987</ele>
        <time>2025-05-18T17:35:36.076Z</time>
      </trkpt>
      <trkpt lat="48.404434" lon="9.855085">
        <ele>509.490781</ele>
        <time>2025-05-18T17:35:43.880Z</time>
      </trkpt>
      <trkpt lat="48.404292" lon="9.855618">
        <ele>508.880829</ele>
        <time>2025-05-18T17:35:51.632Z</time>
      </trkpt>
      <trkpt lat="48.404234" lon="9.856168">
        <ele>508.289378</ele>
        <time>2025-05-18T17:35:58.000Z</time>
      </trkpt>
      <trkpt lat="48.404207" lon="9.857565">
        <ele>506.805067</ele>
        <time>2025-05-18T17:36:13.096Z</time>
      </trkpt>
      <trkpt lat="48.404238" lon="9.858353">
        <ele>506.562278</ele>
        <time>2025-05-18T17:36:23.080Z</time>
      </trkpt>
      <trkpt lat="48.404332" lon="9.859333">
        <ele>506.300996</ele>
        <time>2025-05-18T17:36:36.824Z</time>
      </trkpt>
      <trkpt lat="48.404522" lon="9.860311">
        <ele>506.061225</ele>
        <time>2025-05-18T17:36:51.718Z</time>
      </trkpt>
      <trkpt lat="48.404745" lon="9.861177">
        <ele>506.403744</ele>
        <time>2025-05-18T17:37:05.309Z</time>
      </trkpt>
      <trkpt lat="48.405147" lon="9.862501">
        <ele>506.940607</ele>
        <time>2025-05-18T17:37:27.044Z</time>
      </trkpt>
      <trkpt lat="48.405434" lon="9.863129">
        <ele>506.907949</ele>
        <time>2025-05-18T17:37:37.126Z</time>
      </trkpt>
      <trkpt lat="48.405716" lon="9.863508">
        <ele>506.748677</ele>
        <time>2025-05-18T17:37:44.842Z</time>
      </trkpt>
      <trkpt lat="48.406252" lon="9.864066">
        <ele>506.474090</ele>
        <time>2025-05-18T17:37:58.311Z</time>
      </trkpt>
      <trkpt lat="48.406626" lon="9.864485">
        <ele>506.275368</ele>
        <time>2025-05-18T17:38:07.319Z</time>
      </trkpt>
      <trkpt lat="48.407083" lon="9.865246">
        <ele>505.902203</ele>
        <time>2025-05-18T17:38:20.724Z</time>
      </trkpt>
      <trkpt lat="48.408016" lon="9.866178">
        <ele>505.293002</ele>
        <time>2025-05-18T17:38:43.573Z</time>
      </trkpt>
      <trkpt lat="48.408107" lon="9.866267">
        <ele>505.255312</ele>
        <time>2025-05-18T17:38:45.679Z</time>
      </trkpt>
      <trkpt lat="48.408250" lon="9.866406">
        <ele>505.196193</ele>
        <time>2025-05-18T17:38:49.036Z</time>
      </trkpt>
      <trkpt lat="48.408866" lon="9.867005">
        <ele>504.941495</ele>
        <time>2025-05-18T17:39:04.513Z</time>
      </trkpt>
      <trkpt lat="48.409326" lon="9.867730">
        <ele>504.710227</ele>
        <time>2025-05-18T17:39:18.163Z</time>
      </trkpt>
      <trkpt lat="48.409561" lon="9.868217">
        <ele>504.103366</ele>
        <time>2025-05-18T17:39:26.026Z</time>
      </trkpt>
      <trkpt lat="48.409739" lon="9.868727">
        <ele>503.371461</ele>
        <time>2025-05-18T17:39:33.348Z</time>
      </trkpt>
      <trkpt lat="48.409799" lon="9.868848">
        <ele>503.179614</ele>
        <time>2025-05-18T17:39:35.077Z</time>
      </trkpt>
      <trkpt lat="48.410231" lon="9.869721">
        <ele>501.796491</ele>
        <time>2025-05-18T17:39:47.148Z</time>
      </trkpt>
      <trkpt lat="48.410469" lon="9.869480">
        <ele>501.247742</ele>
        <time>2025-05-18T17:39:51.833Z</time>
      </trkpt>
      <trkpt lat="48.410705" lon="9.869265">
        <ele>501.055923</ele>
        <time>2025-05-18T17:39:56.558Z</time>
      </trkpt>
      <trkpt lat="48.410860" lon="9.869423">
        <ele>500.932141</ele>
        <time>2025-05-18T17:39:59.977Z</time>
      </trkpt>
      <trkpt lat="48.411036" lon="9.869643">
        <ele>500.780878</ele>
        <time>2025-05-18T17:40:04.316Z</time>
      </trkpt>
      <trkpt lat="48.411376" lon="9.870068">
        <ele>500.488666</ele>
        <time>2025-05-18T17:40:13.185Z</time>
      </trkpt>
      <trkpt lat="48.411639" lon="9.870396">
        <ele>500.262843</ele>
        <time>2025-05-18T17:40:20.591Z</time>
      </trkpt>
      <trkpt lat="48.412251" lon="9.871242">
        <ele>500.385673</ele>
        <time>2025-05-18T17:40:39.295Z</time>
      </trkpt>
      <trkpt lat="48.412418" lon="9.871465">
        <ele>500.538505</ele>
        <time>2025-05-18T17:40:44.366Z</time>
      </trkpt>
      <trkpt lat="48.412490" lon="9.871562">
        <ele>500.604656</ele>
        <time>2025-05-18T17:40:46.559Z</time>
      </trkpt>
      <trkpt lat="48.412566" lon="9.871663">
        <ele>500.674062</ele>
        <time>2025-05-18T17:40:48.819Z</time>
      </trkpt>
      <trkpt lat="48.412601" lon="9.871710">
        <ele>500.706172</ele>
        <time>2025-05-18T17:40:49.864Z</time>
      </trkpt>
      <trkpt lat="48.412850" lon="9.872042">
        <ele>500.933897</ele>
        <time>2025-05-18T17:40:57.146Z</time>
      </trkpt>
      <trkpt lat="48.412865" lon="9.872064">
        <ele>500.948235</ele>
        <time>2025-05-18T17:40:57.624Z</time>
      </trkpt>
      <trkpt lat="48.413280" lon="9.872660">
        <ele>501.180772</ele>
        <time>2025-05-18T17:41:10.160Z</time>
      </trkpt>
      <trkpt lat="48.413290" lon="9.872674">
        <ele>501.167212</ele>
        <time>2025-05-18T17:41:10.459Z</time>
      </trkpt>
      <trkpt lat="48.413385" lon="9.872794">
        <ele>501.044070</ele>
        <time>2025-05-18T17:41:13.036Z</time>
      </trkpt>
      <trkpt lat="48.413515" lon="9.872955">
        <ele>500.876912</ele>
        <time>2025-05-18T17:41:16.504Z</time>
      </trkpt>
      <trkpt lat="48.413538" lon="9.872980">
        <ele>500.848741</ele>
        <time>2025-05-18T17:41:17.098Z</time>
      </trkpt>
      <trkpt lat="48.413659" lon="9.873109">
        <ele>500.701503</ele>
        <time>2025-05-18T17:41:20.193Z</time>
      </trkpt>
      <trkpt lat="48.413832" lon="9.873255">
        <ele>500.504539</ele>
        <time>2025-05-18T17:41:24.175Z</time>
      </trkpt>
      <trkpt lat="48.414033" lon="9.873435">
        <ele>500.272278</ele>
        <time>2025-05-18T17:41:28.578Z</time>
      </trkpt>
      <trkpt lat="48.414277" lon="9.873658">
        <ele>499.988805</ele>
        <time>2025-05-18T17:41:33.525Z</time>
      </trkpt>
      <trkpt lat="48.414509" lon="9.873904">
        <ele>499.707008</ele>
        <time>2025-05-18T17:41:38.536Z</time>
      </trkpt>
      <trkpt lat="48.414570" lon="9.873968">
        <ele>499.633172</ele>
        <time>2025-05-18T17:41:39.899Z</time>
      </trkpt>
      <trkpt lat="48.414960" lon="9.873461">
        <ele>499.051261</ele>
        <time>2025-05-18T17:41:49.204Z</time>
      </trkpt>
      <trkpt lat="48.415063" lon="9.873453">
        <ele>498.929230</ele>
        <time>2025-05-18T17:41:51.143Z</time>
      </trkpt>
      <trkpt lat="48.415122" lon="9.873528">
        <ele>498.837893</ele>
        <time>2025-05-18T17:41:52.572Z</time>
      </trkpt>
      <trkpt lat="48.415183" lon="9.874147">
        <ele>498.346448</ele>
        <time>2025-05-18T17:42:00.414Z</time>
      </trkpt>
      <trkpt lat="48.415258" lon="9.874505">
        <ele>498.051629</ele>
        <time>2025-05-18T17:42:05.005Z</time>
      </trkpt>
      <trkpt lat="48.415404" lon="9.874956">
        <ele>497.657567</ele>
        <time>2025-05-18T17:42:11.517Z</time>
      </trkpt>
      <trkpt lat="48.415572" lon="9.875319">
        <ele>497.337337</ele>
        <time>2025-05-18T17:42:17.534Z</time>
      </trkpt>
      <trkpt lat="48.415754" lon="9.875615">
        <ele>497.190902</ele>
        <time>2025-05-18T17:42:22.998Z</time>
      </trkpt>
      <trkpt lat="48.415984" lon="9.875892">
        <ele>497.029899</ele>
        <time>2025-05-18T17:42:28.955Z</time>
      </trkpt>
      <trkpt lat="48.416023" lon="9.875988">
        <ele>496.989051</ele>
        <time>2025-05-18T17:42:30.449Z</time>
      </trkpt>
      <trkpt lat="48.416236" lon="9.877179">
        <ele>496.541403</ele>
        <time>2025-05-18T17:42:46.814Z</time>
      </trkpt>
      <trkpt lat="48.416429" lon="9.878395">
        <ele>496.233348</ele>
        <time>2025-05-18T17:43:03.659Z</time>
      </trkpt>
      <trkpt lat="48.416493" lon="9.878578">
        <ele>496.196038</ele>
        <time>2025-05-18T17:43:06.479Z</time>
      </trkpt>
      <trkpt lat="48.416612" lon="9.878670">
        <ele>496.159689</ele>
        <time>2025-05-18T17:43:09.224Z</time>
      </trkpt>
      <trkpt lat="48.416661" lon="9.878666">
        <ele>496.146353</ele>
        <time>2025-05-18T17:43:10.226Z</time>
      </trkpt>
      <trkpt lat="48.416835" lon="9.878553">
        <ele>496.094860</ele>
        <time>2025-05-18T17:43:14.115Z</time>
      </trkpt>
      <trkpt lat="48.416953" lon="9.878557">
        <ele>496.062783</ele>
        <time>2025-05-18T17:43:16.536Z</time>
      </trkpt>
      <trkpt lat="48.417030" lon="9.878601">
        <ele>496.040403</ele>
        <time>2025-05-18T17:43:18.242Z</time>
      </trkpt>
      <trkpt lat="48.417132" lon="9.878654">
        <ele>496.011081</ele>
        <time>2025-05-18T17:43:20.471Z</time>
      </trkpt>
      <trkpt lat="48.417344" lon="9.878802">
        <ele>495.947583</ele>
        <time>2025-05-18T17:43:25.312Z</time>
      </trkpt>
      <trkpt lat="48.417351" lon="9.879001">
        <ele>495.911639</ele>
        <time>2025-05-18T17:43:28.048Z</time>
      </trkpt>
      <trkpt lat="48.417199" lon="9.881638">
        <ele>496.486208</ele>
        <time>2025-05-18T17:44:05.649Z</time>
      </trkpt>
      <trkpt lat="48.417166" lon="9.881799">
        <ele>496.526196</ele>
        <time>2025-05-18T17:44:08.150Z</time>
      </trkpt>
      <trkpt lat="48.416592" lon="9.882759">
        <ele>497.228620</ele>
        <time>2025-05-18T17:44:27.996Z</time>
      </trkpt>
      <trkpt lat="48.416510" lon="9.882842">
        <ele>497.310354</ele>
        <time>2025-05-18T17:44:30.241Z</time>
      </trkpt>
      <trkpt lat="48.416290" lon="9.882973">
        <ele>497.506080</ele>
        <time>2025-05-18T17:44:35.728Z</time>
      </trkpt>
      <trkpt lat="48.416179" lon="9.882976">
        <ele>497.597935</ele>
        <time>2025-05-18T17:44:38.193Z</time>
      </trkpt>
      <trkpt lat="48.415942" lon="9.882872">
        <ele>497.802174</ele>
        <time>2025-05-18T17:44:43.608Z</time>
      </trkpt>
      <trkpt lat="48.415911" lon="9.882994">
        <ele>497.873913</ele>
        <time>2025-05-18T17:44:45.481Z</time>
      </trkpt>
      <trkpt lat="48.416029" lon="9.883051">
        <ele>497.976440</ele>
        <time>2025-05-18T17:44:48.082Z</time>
      </trkpt>
      <trkpt lat="48.416036" lon="9.883437">
        <ele>497.785554</ele>
        <time>2025-05-18T17:44:53.388Z</time>
      </trkpt>
      <trkpt lat="48.416038" lon="9.883720">
        <ele>497.569737</ele>
        <time>2025-05-18T17:44:57.135Z</time>
      </trkpt>
      <trkpt lat="48.416038" lon="9.883774">
        <ele>497.528559</ele>
        <time>2025-05-18T17:44:57.852Z</time>
      </trkpt>
      <trkpt lat="48.416049" lon="9.883975">
        <ele>497.374764</ele>
        <time>2025-05-18T17:45:00.424Z</time>
      </trkpt>
      <trkpt lat="48.416092" lon="9.886329">
        <ele>495.730517</ele>
        <time>2025-05-18T17:45:28.687Z</time>
      </trkpt>
      <trkpt lat="48.416109" lon="9.888696">
        <ele>494.716287</ele>
        <time>2025-05-18T17:46:00.503Z</time>
      </trkpt>
      <trkpt lat="48.416085" lon="9.889511">
        <ele>494.677836</ele>
        <time>2025-05-18T17:46:11.870Z</time>
      </trkpt>
      <trkpt lat="48.415966" lon="9.891649">
        <ele>494.570731</ele>
        <time>2025-05-18T17:46:41.946Z</time>
      </trkpt>
      <trkpt lat="48.415927" lon="9.891955">
        <ele>494.551377</ele>
        <time>2025-05-18T17:46:46.273Z</time>
      </trkpt>
      <trkpt lat="48.415848" lon="9.892317">
        <ele>494.527707</ele>
        <time>2025-05-18T17:46:51.554Z</time>
      </trkpt>
      <trkpt lat="48.415845" lon="9.892602">
        <ele>494.510002</ele>
        <time>2025-05-18T17:46:55.504Z</time>
      </trkpt>
      <trkpt lat="48.415887" lon="9.893128">
        <ele>494.477095</ele>
        <time>2025-05-18T17:47:02.818Z</time>
      </trkpt>
      <trkpt lat="48.416037" lon="9.893807">
        <ele>494.432644</ele>
        <time>2025-05-18T17:47:12.698Z</time>
      </trkpt>
      <trkpt lat="48.416316" lon="9.894554">
        <ele>494.391942</ele>
        <time>2025-05-18T17:47:24.597Z</time>
      </trkpt>
      <trkpt lat="48.416670" lon="9.895385">
        <ele>494.346696</ele>
        <time>2025-05-18T17:47:38.340Z</time>
      </trkpt>
      <trkpt lat="48.416791" lon="9.895773">
        <ele>494.327052</ele>
        <time>2025-05-18T17:47:44.310Z</time>
      </trkpt>
      <trkpt lat="48.417785" lon="9.900689">
        <ele>494.690073</ele>
        <time>2025-05-18T17:48:56.185Z</time>
      </trkpt>
      <trkpt lat="48.417836" lon="9.900693">
        <ele>494.705829</ele>
        <time>2025-05-18T17:48:57.313Z</time>
      </trkpt>
      <trkpt lat="48.418095" lon="9.900774">
        <ele>494.787442</ele>
        <time>2025-05-18T17:49:03.208Z</time>
      </trkpt>
      <trkpt lat="48.418298" lon="9.900838">
        <ele>494.851430</ele>
        <time>2025-05-18T17:49:07.850Z</time>
      </trkpt>
      <trkpt lat="48.418490" lon="9.900761">
        <ele>495.063945</ele>
        <time>2025-05-18T17:49:12.321Z</time>
      </trkpt>
      <trkpt lat="48.418650" lon="9.900652">
        <ele>495.259897</ele>
        <time>2025-05-18T17:49:16.317Z</time>
      </trkpt>
      <trkpt lat="48.418744" lon="9.900531">
        <ele>495.397863</ele>
        <time>2025-05-18T17:49:19.129Z</time>
      </trkpt>
      <trkpt lat="48.418762" lon="9.900395">
        <ele>495.500572</ele>
        <time>2025-05-18T17:49:21.234Z</time>
      </trkpt>
      <trkpt lat="48.418699" lon="9.900086">
        <ele>495.739981</ele>
        <time>2025-05-18T17:49:26.148Z</time>
      </trkpt>
      <trkpt lat="48.418639" lon="9.899459">
        <ele>496.209158</ele>
        <time>2025-05-18T17:49:35.775Z</time>
      </trkpt>
      <trkpt lat="48.418755" lon="9.899141">
        <ele>496.477908</ele>
        <time>2025-05-18T17:49:41.304Z</time>
      </trkpt>
      <trkpt lat="48.418890" lon="9.898942">
        <ele>496.688665</ele>
        <time>2025-05-18T17:49:45.579Z</time>
      </trkpt>
      <trkpt lat="48.419057" lon="9.898866">
        <ele>496.864668</ele>
        <time>2025-05-18T17:49:49.479Z</time>
      </trkpt>
      <trkpt lat="48.419101" lon="9.898846">
        <ele>496.870818</ele>
        <time>2025-05-18T17:49:50.504Z</time>
      </trkpt>
      <trkpt lat="48.419218" lon="9.898732">
        <ele>496.889465</ele>
        <time>2025-05-18T17:49:53.475Z</time>
      </trkpt>
      <trkpt lat="48.419180" lon="9.898590">
        <ele>496.903064</ele>
        <time>2025-05-18T17:49:55.697Z</time>
      </trkpt>
      <trkpt lat="48.419022" lon="9.898349">
        <ele>496.933153</ele>
        <time>2025-05-18T17:50:00.651Z</time>
      </trkpt>
      <trkpt lat="48.418957" lon="9.898271">
        <ele>496.944273</ele>
        <time>2025-05-18T17:50:02.432Z</time>
      </trkpt>
      <trkpt lat="48.418852" lon="9.898145">
        <ele>496.962237</ele>
        <time>2025-05-18T17:50:05.261Z</time>
      </trkpt>
      <trkpt lat="48.418630" lon="9.897981">
        <ele>496.995326</ele>
        <time>2025-05-18T17:50:10.376Z</time>
      </trkpt>
      <trkpt lat="48.418505" lon="9.897888">
        <ele>497.013983</ele>
        <time>2025-05-18T17:50:13.285Z</time>
      </trkpt>
      <trkpt lat="48.418458" lon="9.897980">
        <ele>497.024295</ele>
        <time>2025-05-18T17:50:15.380Z</time>
      </trkpt>
      <trkpt lat="48.418475" lon="9.898085">
        <ele>497.033895</ele>
        <time>2025-05-18T17:50:17.348Z</time>
      </trkpt>
      <trkpt lat="48.418425" lon="9.898244">
        <ele>497.049523</ele>
        <time>2025-05-18T17:50:20.574Z</time>
      </trkpt>
      <trkpt lat="48.418451" lon="9.898402">
        <ele>497.063981</ele>
        <time>2025-05-18T17:50:22.757Z</time>
      </trkpt>
      <trkpt lat="48.418487" lon="9.898619">
        <ele>497.083849</ele>
        <time>2025-05-18T17:50:25.645Z</time>
      </trkpt>
      <trkpt lat="48.418389" lon="9.898656">
        <ele>497.097369</ele>
        <time>2025-05-18T17:50:27.639Z</time>
      </trkpt>
      <trkpt lat="48.418279" lon="9.898699">
        <ele>497.138729</ele>
        <time>2025-05-18T17:50:29.950Z</time>
      </trkpt>
      <trkpt lat="48.418295" lon="9.898859">
        <ele>497.191677</ele>
        <time>2025-05-18T17:50:32.183Z</time>
      </trkpt>
      <trkpt lat="48.418279" lon="9.898699">
        <ele>497.244625</ele>
        <time>2025-05-18T17:50:34.476Z</time>
      </trkpt>
      <trkpt lat="48.418389" lon="9.898656">
        <ele>497.300656</ele>
        <time>2025-05-18T17:50:36.951Z</time>
      </trkpt>
      <trkpt lat="48.418487" lon="9.898619">
        <ele>497.350469</ele>
        <time>2025-05-18T17:50:39.201Z</time>
      </trkpt>
      <trkpt lat="48.418451" lon="9.898402">
        <ele>497.423663</ele>
        <time>2025-05-18T17:50:42.528Z</time>
      </trkpt>
      <trkpt lat="48.418425" lon="9.898244">
        <ele>497.476932</ele>
        <time>2025-05-18T17:50:44.891Z</time>
      </trkpt>
      <trkpt lat="48.418475" lon="9.898085">
        <ele>497.534506</ele>
        <time>2025-05-18T17:50:48.131Z</time>
      </trkpt>
      <trkpt lat="48.418458" lon="9.897980">
        <ele>497.569873</ele>
        <time>2025-05-18T17:50:50.104Z</time>
      </trkpt>
      <trkpt lat="48.418505" lon="9.897888">
        <ele>497.607864</ele>
        <time>2025-05-18T17:50:52.224Z</time>
      </trkpt>
      <trkpt lat="48.418630" lon="9.897981">
        <ele>497.676600</ele>
        <time>2025-05-18T17:50:55.264Z</time>
      </trkpt>
      <trkpt lat="48.418852" lon="9.898145">
        <ele>497.798505</ele>
        <time>2025-05-18T17:51:00.751Z</time>
      </trkpt>
      <trkpt lat="48.418957" lon="9.898271">
        <ele>497.864688</ele>
        <time>2025-05-18T17:51:03.729Z</time>
      </trkpt>
      <trkpt lat="48.419022" lon="9.898349">
        <ele>497.905658</ele>
        <time>2025-05-18T17:51:05.588Z</time>
      </trkpt>
      <trkpt lat="48.419180" lon="9.898590">
        <ele>498.056220</ele>
        <time>2025-05-18T17:51:10.603Z</time>
      </trkpt>
      <trkpt lat="48.419218" lon="9.898732">
        <ele>498.180422</ele>
        <time>2025-05-18T17:51:12.949Z</time>
      </trkpt>
      <trkpt lat="48.419371" lon="9.898640">
        <ele>498.381773</ele>
        <time>2025-05-18T17:51:16.827Z</time>
      </trkpt>
      <trkpt lat="48.419795" lon="9.898479">
        <ele>498.916224</ele>
        <time>2025-05-18T17:51:26.897Z</time>
      </trkpt>
      <trkpt lat="48.419887" lon="9.898448">
        <ele>499.031451</ele>
        <time>2025-05-18T17:51:28.989Z</time>
      </trkpt>
      <trkpt lat="48.420145" lon="9.898350">
        <ele>499.356666</ele>
        <time>2025-05-18T17:51:34.819Z</time>
      </trkpt>
      <trkpt lat="48.420328" lon="9.898242">
        <ele>499.596888</ele>
        <time>2025-05-18T17:51:39.215Z</time>
      </trkpt>
      <trkpt lat="48.420578" lon="9.898095">
        <ele>499.924901</ele>
        <time>2025-05-18T17:51:45.256Z</time>
      </trkpt>
      <trkpt lat="48.420561" lon="9.898008">
        <ele>499.998469</ele>
        <time>2025-05-18T17:51:46.654Z</time>
      </trkpt>
      <trkpt lat="48.420598" lon="9.897748">
        <ele>500.233323</ele>
        <time>2025-05-18T17:51:50.809Z</time>
      </trkpt>
      <trkpt lat="48.420621" lon="9.897621">
        <ele>500.418599</ele>
        <time>2025-05-18T17:51:52.875Z</time>
      </trkpt>
      <trkpt lat="48.420831" lon="9.896573">
        <ele>501.959323</ele>
        <time>2025-05-18T17:52:10.493Z</time>
      </trkpt>
      <trkpt lat="48.421069" lon="9.896216">
        <ele>502.671497</ele>
        <time>2025-05-18T17:52:18.520Z</time>
      </trkpt>
      <trkpt lat="48.421130" lon="9.896106">
        <ele>502.873243</ele>
        <time>2025-05-18T17:52:20.848Z</time>
      </trkpt>
      <trkpt lat="48.421147" lon="9.896077">
        <ele>502.927700</ele>
        <time>2025-05-18T17:52:21.459Z</time>
      </trkpt>
      <trkpt lat="48.421200" lon="9.895940">
        <ele>503.150880</ele>
        <time>2025-05-18T17:52:24.008Z</time>
      </trkpt>
      <trkpt lat="48.421241" lon="9.895671">
        <ele>503.539324</ele>
        <time>2025-05-18T17:52:28.482Z</time>
      </trkpt>
      <trkpt lat="48.421247" lon="9.895604">
        <ele>503.634473</ele>
        <time>2025-05-18T17:52:29.567Z</time>
      </trkpt>
      <trkpt lat="48.421261" lon="9.895459">
        <ele>503.840693</ele>
        <time>2025-05-18T17:52:31.950Z</time>
      </trkpt>
      <trkpt lat="48.421281" lon="9.895413">
        <ele>503.918089</ele>
        <time>2025-05-18T17:52:32.855Z</time>
      </trkpt>
      <trkpt lat="48.421343" lon="9.895369">
        <ele>504.047122</ele>
        <time>2025-05-18T17:52:34.529Z</time>
      </trkpt>
      <trkpt lat="48.421412" lon="9.895370">
        <ele>504.154324</ele>
        <time>2025-05-18T17:52:36.245Z</time>
      </trkpt>
      <trkpt lat="48.421461" lon="9.895374">
        <ele>504.230561</ele>
        <time>2025-05-18T17:52:37.467Z</time>
      </trkpt>
      <trkpt lat="48.421599" lon="9.895457">
        <ele>504.461403</ele>
        <time>2025-05-18T17:52:41.115Z</time>
      </trkpt>
      <trkpt lat="48.421929" lon="9.895878">
        <ele>505.133156</ele>
        <time>2025-05-18T17:52:51.588Z</time>
      </trkpt>
      <trkpt lat="48.422213" lon="9.896166">
        <ele>505.664984</ele>
        <time>2025-05-18T17:52:59.622Z</time>
      </trkpt>
      <trkpt lat="48.422293" lon="9.896233">
        <ele>505.807177</ele>
        <time>2025-05-18T17:53:01.550Z</time>
      </trkpt>
      <trkpt lat="48.422413" lon="9.896293">
        <ele>506.003602</ele>
        <time>2025-05-18T17:53:04.184Z</time>
      </trkpt>
      <trkpt lat="48.422426" lon="9.896295">
        <ele>506.023904</ele>
        <time>2025-05-18T17:53:04.466Z</time>
      </trkpt>
      <trkpt lat="48.422667" lon="9.896296">
        <ele>506.398319</ele>
        <time>2025-05-18T17:53:09.853Z</time>
      </trkpt>
      <trkpt lat="48.422850" lon="9.896233">
        <ele>506.689949</ele>
        <time>2025-05-18T17:53:14.201Z</time>
      </trkpt>
      <trkpt lat="48.423074" lon="9.896120">
        <ele>507.220056</ele>
        <time>2025-05-18T17:53:19.835Z</time>
      </trkpt>
      <trkpt lat="48.423451" lon="9.895866">
        <ele>508.263942</ele>
        <time>2025-05-18T17:53:29.837Z</time>
      </trkpt>
      <trkpt lat="48.423529" lon="9.895748">
        <ele>508.543327</ele>
        <time>2025-05-18T17:53:32.560Z</time>
      </trkpt>
      <trkpt lat="48.423611" lon="9.895632">
        <ele>508.827630</ele>
        <time>2025-05-18T17:53:35.313Z</time>
      </trkpt>
      <trkpt lat="48.423733" lon="9.895461">
        <ele>509.248801</ele>
        <time>2025-05-18T17:53:39.467Z</time>
      </trkpt>
      <trkpt lat="48.423959" lon="9.895381">
        <ele>509.835629</ele>
        <time>2025-05-18T17:53:45.314Z</time>
      </trkpt>
      <trkpt lat="48.424046" lon="9.895350">
        <ele>510.061609</ele>
        <time>2025-05-18T17:53:47.536Z</time>
      </trkpt>
      <trkpt lat="48.424146" lon="9.895299">
        <ele>510.328471</ele>
        <time>2025-05-18T17:53:50.162Z</time>
      </trkpt>
      <trkpt lat="48.424281" lon="9.895232">
        <ele>510.687752</ele>
        <time>2025-05-18T17:53:53.692Z</time>
      </trkpt>
      <trkpt lat="48.424497" lon="9.895134">
        <ele>511.257962</ele>
        <time>2025-05-18T17:53:59.324Z</time>
      </trkpt>
      <trkpt lat="48.424541" lon="9.895116">
        <ele>511.372781</ele>
        <time>2025-05-18T17:54:00.451Z</time>
      </trkpt>
      <trkpt lat="48.424815" lon="9.895002">
        <ele>512.081000</ele>
        <time>2025-05-18T17:54:07.516Z</time>
      </trkpt>
      <trkpt lat="48.424926" lon="9.895100">
        <ele>512.401529</ele>
        <time>2025-05-18T17:54:10.676Z</time>
      </trkpt>
      <trkpt lat="48.425054" lon="9.895129">
        <ele>512.724027</ele>
        <time>2025-05-18T17:54:13.835Z</time>
      </trkpt>
      <trkpt lat="48.425307" lon="9.895063">
        <ele>513.363757</ele>
        <time>2025-05-18T17:54:20.091Z</time>
      </trkpt>
      <trkpt lat="48.425505" lon="9.894986">
        <ele>513.873240</ele>
        <time>2025-05-18T17:54:25.046Z</time>
      </trkpt>
      <trkpt lat="48.425819" lon="9.894805">
        <ele>514.710858</ele>
        <time>2025-05-18T17:54:33.177Z</time>
      </trkpt>
      <trkpt lat="48.425983" lon="9.894671">
        <ele>515.175665</ele>
        <time>2025-05-18T17:54:37.581Z</time>
      </trkpt>
      <trkpt lat="48.426323" lon="9.894301">
        <ele>516.577852</ele>
        <time>2025-05-18T17:54:47.302Z</time>
      </trkpt>
      <trkpt lat="48.426585" lon="9.893989">
        <ele>518.160769</ele>
        <time>2025-05-18T17:54:56.136Z</time>
      </trkpt>
      <trkpt lat="48.426902" lon="9.893589">
        <ele>520.120649</ele>
        <time>2025-05-18T17:55:07.969Z</time>
      </trkpt>
      <trkpt lat="48.427004" lon="9.893408">
        <ele>520.867597</ele>
        <time>2025-05-18T17:55:12.547Z</time>
      </trkpt>
      <trkpt lat="48.427128" lon="9.893187">
        <ele>521.777955</ele>
        <time>2025-05-18T17:55:18.074Z</time>
      </trkpt>
      <trkpt lat="48.427134" lon="9.892988">
        <ele>522.404559</ele>
        <time>2025-05-18T17:55:22.943Z</time>
      </trkpt>
      <trkpt lat="48.427486" lon="9.892333">
        <ele>524.474943</ele>
        <time>2025-05-18T17:55:43.024Z</time>
      </trkpt>
      <trkpt lat="48.427942" lon="9.891715">
        <ele>524.986860</ele>
        <time>2025-05-18T17:56:04.557Z</time>
      </trkpt>
      <trkpt lat="48.428476" lon="9.891193">
        <ele>525.518166</ele>
        <time>2025-05-18T17:56:26.540Z</time>
      </trkpt>
      <trkpt lat="48.429339" lon="9.890451">
        <ele>525.283872</ele>
        <time>2025-05-18T17:56:54.291Z</time>
      </trkpt>
      <trkpt lat="48.429705" lon="9.890325">
        <ele>524.924334</ele>
        <time>2025-05-18T17:57:05.334Z</time>
      </trkpt>
      <trkpt lat="48.430130" lon="9.890315">
        <ele>524.517273</ele>
        <time>2025-05-18T17:57:19.882Z</time>
      </trkpt>
      <trkpt lat="48.430380" lon="9.890147">
        <ele>524.255132</ele>
        <time>2025-05-18T17:57:29.122Z</time>
      </trkpt>
      <trkpt lat="48.430665" lon="9.889790">
        <ele>524.634515</ele>
        <time>2025-05-18T17:57:41.694Z</time>
      </trkpt>
      <trkpt lat="48.430828" lon="9.889409">
        <ele>525.268371</ele>
        <time>2025-05-18T17:57:52.176Z</time>
      </trkpt>
      <trkpt lat="48.430987" lon="9.889142">
        <ele>525.770000</ele>
        <time>2025-05-18T17:58:00.599Z</time>
      </trkpt>
      <trkpt lat="48.431734" lon="9.887861">
        <ele>527.870927</ele>
        <time>2025-05-18T17:58:38.900Z</time>
      </trkpt>
      <trkpt lat="48.431821" lon="9.887747">
        <ele>527.820252</ele>
        <time>2025-05-18T17:58:42.305Z</time>
      </trkpt>
      <trkpt lat="48.432374" lon="9.887316">
        <ele>527.546591</ele>
        <time>2025-05-18T17:59:01.761Z</time>
      </trkpt>
      <trkpt lat="48.432653" lon="9.887024">
        <ele>527.397281</ele>
        <time>2025-05-18T17:59:13.306Z</time>
      </trkpt>
      <trkpt lat="48.432834" lon="9.886783">
        <ele>527.291118</ele>
        <time>2025-05-18T17:59:21.674Z</time>
      </trkpt>
      <trkpt lat="48.433825" lon="9.885488">
        <ele>525.487839</ele>
        <time>2025-05-18T18:00:06.350Z</time>
      </trkpt>
      <trkpt lat="48.434136" lon="9.885032">
        <ele>524.732899</ele>
        <time>2025-05-18T18:00:21.123Z</time>
      </trkpt>
      <trkpt lat="48.434529" lon="9.884459">
        <ele>523.231416</ele>
        <time>2025-05-18T18:00:35.289Z</time>
      </trkpt>
      <trkpt lat="48.434679" lon="9.884175">
        <ele>521.755813</ele>
        <time>2025-05-18T18:00:41.389Z</time>
      </trkpt>
      <trkpt lat="48.435231" lon="9.884659">
        <ele>517.843143</ele>
        <time>2025-05-18T18:01:25.862Z</time>
      </trkpt>
      <trkpt lat="48.435307" lon="9.884712">
        <ele>517.330076</ele>
        <time>2025-05-18T18:01:31.668Z</time>
      </trkpt>
      <trkpt lat="48.435378" lon="9.884650">
        <ele>516.827335</ele>
        <time>2025-05-18T18:01:37.362Z</time>
      </trkpt>
      <trkpt lat="48.435765" lon="9.884381">
        <ele>514.216249</ele>
        <time>2025-05-18T18:02:07.046Z</time>
      </trkpt>
      <trkpt lat="48.435848" lon="9.884373">
        <ele>513.706681</ele>
        <time>2025-05-18T18:02:12.881Z</time>
      </trkpt>
      <trkpt lat="48.435941" lon="9.884417">
        <ele>513.109471</ele>
        <time>2025-05-18T18:02:19.684Z</time>
      </trkpt>
      <trkpt lat="48.436256" lon="9.883823">
        <ele>513.432957</ele>
        <time>2025-05-18T18:02:29.859Z</time>
      </trkpt>
      <trkpt lat="48.436342" lon="9.883708">
        <ele>513.540783</ele>
        <time>2025-05-18T18:02:32.525Z</time>
      </trkpt>
      <trkpt lat="48.436608" lon="9.883652">
        <ele>513.792685</ele>
        <time>2025-05-18T18:02:38.761Z</time>
      </trkpt>
      <trkpt lat="48.436729" lon="9.883698">
        <ele>513.909724</ele>
        <time>2025-05-18T18:02:41.694Z</time>
      </trkpt>
      <trkpt lat="48.436841" lon="9.883833">
        <ele>514.044226</ele>
        <time>2025-05-18T18:02:45.062Z</time>
      </trkpt>
      <trkpt lat="48.437114" lon="9.884394">
        <ele>514.477139</ele>
        <time>2025-05-18T18:02:56.093Z</time>
      </trkpt>
      <trkpt lat="48.437461" lon="9.885008">
        <ele>515.353339</ele>
        <time>2025-05-18T18:03:09.313Z</time>
      </trkpt>
      <trkpt lat="48.437898" lon="9.885493">
        <ele>516.472120</ele>
        <time>2025-05-18T18:03:22.863Z</time>
      </trkpt>
      <trkpt lat="48.438269" lon="9.885734">
        <ele>517.304971</ele>
        <time>2025-05-18T18:03:32.496Z</time>
      </trkpt>
      <trkpt lat="48.438490" lon="9.885841">
        <ele>517.783507</ele>
        <time>2025-05-18T18:03:37.823Z</time>
      </trkpt>
      <trkpt lat="48.438611" lon="9.885899">
        <ele>518.045268</ele>
        <time>2025-05-18T18:03:40.601Z</time>
      </trkpt>
      <trkpt lat="48.438899" lon="9.885961">
        <ele>518.072683</ele>
        <time>2025-05-18T18:03:46.292Z</time>
      </trkpt>
      <trkpt lat="48.439393" lon="9.885828">
        <ele>516.917353</ele>
        <time>2025-05-18T18:03:55.030Z</time>
      </trkpt>
      <trkpt lat="48.439585" lon="9.885697">
        <ele>516.432139</ele>
        <time>2025-05-18T18:03:58.510Z</time>
      </trkpt>
      <trkpt lat="48.439765" lon="9.885509">
        <ele>515.927968</ele>
        <time>2025-05-18T18:04:02.025Z</time>
      </trkpt>
      <trkpt lat="48.440103" lon="9.885058">
        <ele>514.888715</ele>
        <time>2025-05-18T18:04:09.215Z</time>
      </trkpt>
      <trkpt lat="48.440378" lon="9.884538">
        <ele>514.142302</ele>
        <time>2025-05-18T18:04:16.517Z</time>
      </trkpt>
      <trkpt lat="48.440556" lon="9.884030">
        <ele>513.920046</ele>
        <time>2025-05-18T18:04:23.464Z</time>
      </trkpt>
      <trkpt lat="48.440906" lon="9.882792">
        <ele>513.399433</ele>
        <time>2025-05-18T18:04:41.997Z</time>
      </trkpt>
      <trkpt lat="48.440972" lon="9.882624">
        <ele>513.323899</ele>
        <time>2025-05-18T18:04:44.893Z</time>
      </trkpt>
      <trkpt lat="48.441103" lon="9.882227">
        <ele>513.186812</ele>
        <time>2025-05-18T18:04:51.562Z</time>
      </trkpt>
      <trkpt lat="48.441225" lon="9.881555">
        <ele>513.203922</ele>
        <time>2025-05-18T18:05:02.026Z</time>
      </trkpt>
      <trkpt lat="48.441301" lon="9.880932">
        <ele>513.219478</ele>
        <time>2025-05-18T18:05:11.181Z</time>
      </trkpt>
      <trkpt lat="48.441306" lon="9.880407">
        <ele>513.232373</ele>
        <time>2025-05-18T18:05:18.385Z</time>
      </trkpt>
      <trkpt lat="48.441249" lon="9.879861">
        <ele>513.245946</ele>
        <time>2025-05-18T18:05:25.598Z</time>
      </trkpt>
      <trkpt lat="48.440989" lon="9.878893">
        <ele>513.138763</ele>
        <time>2025-05-18T18:05:38.902Z</time>
      </trkpt>
      <trkpt lat="48.440941" lon="9.878621">
        <ele>513.100342</ele>
        <time>2025-05-18T18:05:42.463Z</time>
      </trkpt>
      <trkpt lat="48.440949" lon="9.878346">
        <ele>513.062766</ele>
        <time>2025-05-18T18:05:46.084Z</time>
      </trkpt>
      <trkpt lat="48.440996" lon="9.878073">
        <ele>513.024264</ele>
        <time>2025-05-18T18:05:49.956Z</time>
      </trkpt>
      <trkpt lat="48.441195" lon="9.877412">
        <ele>512.925175</ele>
        <time>2025-05-18T18:06:00.388Z</time>
      </trkpt>
      <trkpt lat="48.441585" lon="9.875934">
        <ele>513.967860</ele>
        <time>2025-05-18T18:06:24.382Z</time>
      </trkpt>
      <trkpt lat="48.441705" lon="9.875598">
        <ele>514.294700</ele>
        <time>2025-05-18T18:06:30.249Z</time>
      </trkpt>
      <trkpt lat="48.441867" lon="9.875298">
        <ele>514.626018</ele>
        <time>2025-05-18T18:06:36.148Z</time>
      </trkpt>
      <trkpt lat="48.442386" lon="9.874811">
        <ele>515.405299</ele>
        <time>2025-05-18T18:06:50.086Z</time>
      </trkpt>
      <trkpt lat="48.442642" lon="9.874531">
        <ele>515.794336</ele>
        <time>2025-05-18T18:06:57.257Z</time>
      </trkpt>
      <trkpt lat="48.442991" lon="9.873974">
        <ele>516.419505</ele>
        <time>2025-05-18T18:07:08.986Z</time>
      </trkpt>
      <trkpt lat="48.443127" lon="9.873643">
        <ele>516.737194</ele>
        <time>2025-05-18T18:07:14.927Z</time>
      </trkpt>
      <trkpt lat="48.443352" lon="9.872549">
        <ele>517.343468</ele>
        <time>2025-05-18T18:07:31.880Z</time>
      </trkpt>
      <trkpt lat="48.443427" lon="9.872290">
        <ele>517.278250</ele>
        <time>2025-05-18T18:07:36.035Z</time>
      </trkpt>
      <trkpt lat="48.443454" lon="9.871940">
        <ele>517.196935</ele>
        <time>2025-05-18T18:07:41.152Z</time>
      </trkpt>
      <trkpt lat="48.443450" lon="9.871116">
        <ele>517.006771</ele>
        <time>2025-05-18T18:07:52.465Z</time>
      </trkpt>
      <trkpt lat="48.443487" lon="9.870682">
        <ele>516.905792</ele>
        <time>2025-05-18T18:07:58.009Z</time>
      </trkpt>
      <trkpt lat="48.443481" lon="9.869708">
        <ele>516.585524</ele>
        <time>2025-05-18T18:08:09.401Z</time>
      </trkpt>
      <trkpt lat="48.443563" lon="9.869331">
        <ele>516.413843</ele>
        <time>2025-05-18T18:08:14.217Z</time>
      </trkpt>
      <trkpt lat="48.443918" lon="9.868494">
        <ele>515.983953</ele>
        <time>2025-05-18T18:08:27.142Z</time>
      </trkpt>
      <trkpt lat="48.444088" lon="9.867983">
        <ele>515.736585</ele>
        <time>2025-05-18T18:08:35.220Z</time>
      </trkpt>
      <trkpt lat="48.444583" lon="9.866792">
        <ele>516.445091</ele>
        <time>2025-05-18T18:08:56.182Z</time>
      </trkpt>
      <trkpt lat="48.444718" lon="9.866411">
        <ele>516.762057</ele>
        <time>2025-05-18T18:09:02.721Z</time>
      </trkpt>
      <trkpt lat="48.444887" lon="9.865822">
        <ele>517.232968</ele>
        <time>2025-05-18T18:09:12.396Z</time>
      </trkpt>
      <trkpt lat="48.445001" lon="9.865567">
        <ele>517.458616</ele>
        <time>2025-05-18T18:09:17.010Z</time>
      </trkpt>
      <trkpt lat="48.445939" lon="9.863743">
        <ele>520.361300</ele>
        <time>2025-05-18T18:09:52.334Z</time>
      </trkpt>
      <trkpt lat="48.446171" lon="9.863261">
        <ele>521.140140</ele>
        <time>2025-05-18T18:10:01.778Z</time>
      </trkpt>
      <trkpt lat="48.446594" lon="9.862376">
        <ele>523.583554</ele>
        <time>2025-05-18T18:10:19.732Z</time>
      </trkpt>
      <trkpt lat="48.446652" lon="9.862108">
        <ele>524.217354</ele>
        <time>2025-05-18T18:10:24.418Z</time>
      </trkpt>
      <trkpt lat="48.446684" lon="9.861695">
        <ele>525.152209</ele>
        <time>2025-05-18T18:10:31.216Z</time>
      </trkpt>
      <trkpt lat="48.446707" lon="9.861551">
        <ele>525.485216</ele>
        <time>2025-05-18T18:10:33.648Z</time>
      </trkpt>
      <trkpt lat="48.446756" lon="9.861424">
        <ele>525.815537</ele>
        <time>2025-05-18T18:10:36.084Z</time>
      </trkpt>
      <trkpt lat="48.446879" lon="9.861323">
        <ele>526.290271</ele>
        <time>2025-05-18T18:10:39.525Z</time>
      </trkpt>
      <trkpt lat="48.447207" lon="9.861136">
        <ele>527.546809</ele>
        <time>2025-05-18T18:10:48.150Z</time>
      </trkpt>
      <trkpt lat="48.448099" lon="9.860748">
        <ele>531.624586</ele>
        <time>2025-05-18T18:11:11.547Z</time>
      </trkpt>
      <trkpt lat="48.448336" lon="9.860596">
        <ele>532.755848</ele>
        <time>2025-05-18T18:11:18.448Z</time>
      </trkpt>
      <trkpt lat="48.448379" lon="9.860536">
        <ele>533.013197</ele>
        <time>2025-05-18T18:11:19.988Z</time>
      </trkpt>
      <trkpt lat="48.448433" lon="9.860459">
        <ele>533.339667</ele>
        <time>2025-05-18T18:11:22.027Z</time>
      </trkpt>
      <trkpt lat="48.448528" lon="9.860304">
        <ele>533.954515</ele>
        <time>2025-05-18T18:11:25.765Z</time>
      </trkpt>
      <trkpt lat="48.448620" lon="9.860173">
        <ele>534.510350</ele>
        <time>2025-05-18T18:11:29.170Z</time>
      </trkpt>
      <trkpt lat="48.448645" lon="9.860136">
        <ele>534.664226</ele>
        <time>2025-05-18T18:11:30.119Z</time>
      </trkpt>
      <trkpt lat="48.448717" lon="9.860021">
        <ele>535.124948</ele>
        <time>2025-05-18T18:11:32.915Z</time>
      </trkpt>
      <trkpt lat="48.448807" lon="9.859890">
        <ele>535.808797</ele>
        <time>2025-05-18T18:11:36.310Z</time>
      </trkpt>
      <trkpt lat="48.449094" lon="9.859512">
        <ele>537.911086</ele>
        <time>2025-05-18T18:11:46.813Z</time>
      </trkpt>
      <trkpt lat="48.449592" lon="9.859350">
        <ele>540.721519</ele>
        <time>2025-05-18T18:12:01.409Z</time>
      </trkpt>
      <trkpt lat="48.449832" lon="9.859168">
        <ele>542.203521</ele>
        <time>2025-05-18T18:12:09.008Z</time>
      </trkpt>
      <trkpt lat="48.449929" lon="9.858929">
        <ele>543.228734</ele>
        <time>2025-05-18T18:12:14.168Z</time>
      </trkpt>
      <trkpt lat="48.449961" lon="9.858789">
        <ele>543.770550</ele>
        <time>2025-05-18T18:12:16.894Z</time>
      </trkpt>
      <trkpt lat="48.449934" lon="9.858566">
        <ele>544.599978</ele>
        <time>2025-05-18T18:12:20.997Z</time>
      </trkpt>
      <trkpt lat="48.449879" lon="9.858385">
        <ele>545.172512</ele>
        <time>2025-05-18T18:12:24.546Z</time>
      </trkpt>
      <trkpt lat="48.449804" lon="9.858237">
        <ele>545.440230</ele>
        <time>2025-05-18T18:12:27.830Z</time>
      </trkpt>
      <trkpt lat="48.449660" lon="9.858074">
        <ele>545.830460</ele>
        <time>2025-05-18T18:12:32.507Z</time>
      </trkpt>
      <trkpt lat="48.449456" lon="9.857992">
        <ele>546.287995</ele>
        <time>2025-05-18T18:12:37.802Z</time>
      </trkpt>
      <trkpt lat="48.449304" lon="9.857841">
        <ele>546.682476</ele>
        <time>2025-05-18T18:12:42.227Z</time>
      </trkpt>
      <trkpt lat="48.449215" lon="9.857650">
        <ele>547.017999</ele>
        <time>2025-05-18T18:12:45.893Z</time>
      </trkpt>
      <trkpt lat="48.449188" lon="9.857454">
        <ele>547.305744</ele>
        <time>2025-05-18T18:12:48.983Z</time>
      </trkpt>
      <trkpt lat="48.449196" lon="9.857229">
        <ele>547.629627</ele>
        <time>2025-05-18T18:12:52.394Z</time>
      </trkpt>
      <trkpt lat="48.449267" lon="9.856421">
        <ele>548.801204</ele>
        <time>2025-05-18T18:13:03.826Z</time>
      </trkpt>
      <trkpt lat="48.449252" lon="9.856118">
        <ele>548.985511</ele>
        <time>2025-05-18T18:13:07.792Z</time>
      </trkpt>
      <trkpt lat="48.449180" lon="9.855677">
        <ele>549.024462</ele>
        <time>2025-05-18T18:13:13.684Z</time>
      </trkpt>
      <trkpt lat="48.449070" lon="9.855095">
        <ele>549.076363</ele>
        <time>2025-05-18T18:13:21.832Z</time>
      </trkpt>
      <trkpt lat="48.448775" lon="9.854118">
        <ele>549.168428</ele>
        <time>2025-05-18T18:13:37.388Z</time>
      </trkpt>
      <trkpt lat="48.448736" lon="9.853882">
        <ele>549.189287</ele>
        <time>2025-05-18T18:13:40.974Z</time>
      </trkpt>
      <trkpt lat="48.448729" lon="9.853655">
        <ele>549.228092</ele>
        <time>2025-05-18T18:13:44.358Z</time>
      </trkpt>
      <trkpt lat="48.448753" lon="9.853475">
        <ele>549.289125</ele>
        <time>2025-05-18T18:13:47.106Z</time>
      </trkpt>
      <trkpt lat="48.448828" lon="9.853231">
        <ele>549.378523</ele>
        <time>2025-05-18T18:13:51.135Z</time>
      </trkpt>
      <trkpt lat="48.448969" lon="9.853007">
        <ele>549.481179</ele>
        <time>2025-05-18T18:13:55.767Z</time>
      </trkpt>
      <trkpt lat="48.449427" lon="9.852527">
        <ele>549.760729</ele>
        <time>2025-05-18T18:14:08.117Z</time>
      </trkpt>
      <trkpt lat="48.449594" lon="9.852249">
        <ele>549.885409</ele>
        <time>2025-05-18T18:14:13.474Z</time>
      </trkpt>
      <trkpt lat="48.449752" lon="9.851887">
        <ele>550.029461</ele>
        <time>2025-05-18T18:14:19.594Z</time>
      </trkpt>
      <trkpt lat="48.450076" lon="9.851497">
        <ele>550.019969</ele>
        <time>2025-05-18T18:14:28.265Z</time>
      </trkpt>
      <trkpt lat="48.450120" lon="9.851385">
        <ele>549.992946</ele>
        <time>2025-05-18T18:14:30.046Z</time>
      </trkpt>
      <trkpt lat="48.450748" lon="9.849118">
        <ele>549.734838</ele>
        <time>2025-05-18T18:15:03.021Z</time>
      </trkpt>
      <trkpt lat="48.450886" lon="9.848133">
        <ele>550.439611</ele>
        <time>2025-05-18T18:15:17.107Z</time>
      </trkpt>
      <trkpt lat="48.450994" lon="9.847656">
        <ele>550.792458</ele>
        <time>2025-05-18T18:15:24.546Z</time>
      </trkpt>
      <trkpt lat="48.451169" lon="9.847129">
        <ele>551.205041</ele>
        <time>2025-05-18T18:15:33.722Z</time>
      </trkpt>
      <trkpt lat="48.451310" lon="9.846927">
        <ele>551.410333</ele>
        <time>2025-05-18T18:15:38.472Z</time>
      </trkpt>
      <trkpt lat="48.451440" lon="9.846815">
        <ele>551.946638</ele>
        <time>2025-05-18T18:15:42.184Z</time>
      </trkpt>
      <trkpt lat="48.451709" lon="9.846732">
        <ele>553.083697</ele>
        <time>2025-05-18T18:15:49.026Z</time>
      </trkpt>
      <trkpt lat="48.451981" lon="9.846559">
        <ele>554.306215</ele>
        <time>2025-05-18T18:15:56.410Z</time>
      </trkpt>
      <trkpt lat="48.452016" lon="9.846532">
        <ele>554.469025</ele>
        <time>2025-05-18T18:15:57.389Z</time>
      </trkpt>
      <trkpt lat="48.452319" lon="9.846188">
        <ele>556.039745</ele>
        <time>2025-05-18T18:16:07.040Z</time>
      </trkpt>
      <trkpt lat="48.452527" lon="9.845813">
        <ele>557.382423</ele>
        <time>2025-05-18T18:16:15.599Z</time>
      </trkpt>
      <trkpt lat="48.452646" lon="9.845538">
        <ele>558.284278</ele>
        <time>2025-05-18T18:16:21.401Z</time>
      </trkpt>
      <trkpt lat="48.452735" lon="9.845255">
        <ele>559.297171</ele>
        <time>2025-05-18T18:16:26.885Z</time>
      </trkpt>
      <trkpt lat="48.453055" lon="9.843706">
        <ele>566.399410</ele>
        <time>2025-05-18T18:16:57.024Z</time>
      </trkpt>
      <trkpt lat="48.453141" lon="9.843145">
        <ele>568.919983</ele>
        <time>2025-05-18T18:17:09.299Z</time>
      </trkpt>
      <trkpt lat="48.453223" lon="9.841470">
        <ele>579.112690</ele>
        <time>2025-05-18T18:17:45.991Z</time>
      </trkpt>
      <trkpt lat="48.453268" lon="9.840935">
        <ele>582.689676</ele>
        <time>2025-05-18T18:17:58.750Z</time>
      </trkpt>
      <trkpt lat="48.453334" lon="9.840344">
        <ele>586.664854</ele>
        <time>2025-05-18T18:18:14.457Z</time>
      </trkpt>
      <trkpt lat="48.453440" lon="9.839846">
        <ele>590.361647</ele>
        <time>2025-05-18T18:18:29.103Z</time>
      </trkpt>
      <trkpt lat="48.453494" lon="9.839733">
        <ele>591.437121</ele>
        <time>2025-05-18T18:18:32.932Z</time>
      </trkpt>
      <trkpt lat="48.453550" lon="9.839681">
        <ele>592.202842</ele>
        <time>2025-05-18T18:18:35.694Z</time>
      </trkpt>
      <trkpt lat="48.453641" lon="9.839662">
        <ele>593.272444</ele>
        <time>2025-05-18T18:18:39.411Z</time>
      </trkpt>
      <trkpt lat="48.454129" lon="9.839837">
        <ele>599.112603</ele>
        <time>2025-05-18T18:18:59.457Z</time>
      </trkpt>
      <trkpt lat="48.454289" lon="9.839724">
        <ele>601.169672</ele>
        <time>2025-05-18T18:19:06.377Z</time>
      </trkpt>
      <trkpt lat="48.454337" lon="9.839536">
        <ele>602.725206</ele>
        <time>2025-05-18T18:19:11.578Z</time>
      </trkpt>
      <trkpt lat="48.454385" lon="9.838807">
        <ele>608.381983</ele>
        <time>2025-05-18T18:19:30.443Z</time>
      </trkpt>
      <trkpt lat="48.454505" lon="9.838307">
        <ele>612.346759</ele>
        <time>2025-05-18T18:19:43.693Z</time>
      </trkpt>
      <trkpt lat="48.454668" lon="9.837952">
        <ele>615.512768</ele>
        <time>2025-05-18T18:19:54.324Z</time>
      </trkpt>
      <trkpt lat="48.454779" lon="9.837781">
        <ele>617.267263</ele>
        <time>2025-05-18T18:20:00.281Z</time>
      </trkpt>
      <trkpt lat="48.454938" lon="9.837582">
        <ele>619.551875</ele>
        <time>2025-05-18T18:20:08.385Z</time>
      </trkpt>
      <trkpt lat="48.455448" lon="9.837054">
        <ele>626.391661</ele>
        <time>2025-05-18T18:20:33.448Z</time>
      </trkpt>
      <trkpt lat="48.455640" lon="9.836892">
        <ele>628.824177</ele>
        <time>2025-05-18T18:20:42.189Z</time>
      </trkpt>
      <trkpt lat="48.455793" lon="9.836825">
        <ele>630.109605</ele>
        <time>2025-05-18T18:20:48.196Z</time>
      </trkpt>
      <trkpt lat="48.456367" lon="9.836607">
        <ele>633.573950</ele>
        <time>2025-05-18T18:21:07.345Z</time>
      </trkpt>
      <trkpt lat="48.456465" lon="9.836585">
        <ele>634.153831</ele>
        <time>2025-05-18T18:21:10.114Z</time>
      </trkpt>
      <trkpt lat="48.456843" lon="9.836486">
        <ele>636.399256</ele>
        <time>2025-05-18T18:21:20.087Z</time>
      </trkpt>
      <trkpt lat="48.457307" lon="9.836461">
        <ele>639.116619</ele>
        <time>2025-05-18T18:21:31.399Z</time>
      </trkpt>
      <trkpt lat="48.457389" lon="9.836461">
        <ele>639.596536</ele>
        <time>2025-05-18T18:21:33.350Z</time>
      </trkpt>
      <trkpt lat="48.457561" lon="9.837534">
        <ele>641.599724</ele>
        <time>2025-05-18T18:21:50.574Z</time>
      </trkpt>
      <trkpt lat="48.457688" lon="9.838115">
        <ele>642.541107</ele>
        <time>2025-05-18T18:22:00.110Z</time>
      </trkpt>
      <trkpt lat="48.457936" lon="9.838817">
        <ele>643.765089</ele>
        <time>2025-05-18T18:22:12.555Z</time>
      </trkpt>
      <trkpt lat="48.457966" lon="9.838895">
        <ele>643.903844</ele>
        <time>2025-05-18T18:22:13.946Z</time>
      </trkpt>
      <trkpt lat="48.458258" lon="9.839509">
        <ele>645.028851</ele>
        <time>2025-05-18T18:22:25.819Z</time>
      </trkpt>
      <trkpt lat="48.458382" lon="9.839763">
        <ele>645.491112</ele>
        <time>2025-05-18T18:22:30.755Z</time>
      </trkpt>
      <trkpt lat="48.458505" lon="9.840008">
        <ele>645.941479</ele>
        <time>2025-05-18T18:22:35.573Z</time>
      </trkpt>
      <trkpt lat="48.458683" lon="9.840389">
        <ele>646.624535</ele>
        <time>2025-05-18T18:22:42.872Z</time>
      </trkpt>
      <trkpt lat="48.458987" lon="9.840804">
        <ele>647.530807</ele>
        <time>2025-05-18T18:22:52.525Z</time>
      </trkpt>
      <trkpt lat="48.459067" lon="9.840905">
        <ele>647.761396</ele>
        <time>2025-05-18T18:22:54.978Z</time>
      </trkpt>
      <trkpt lat="48.459298" lon="9.841285">
        <ele>648.465544</ele>
        <time>2025-05-18T18:23:02.972Z</time>
      </trkpt>
      <trkpt lat="48.459417" lon="9.841542">
        <ele>648.836630</ele>
        <time>2025-05-18T18:23:07.841Z</time>
      </trkpt>
      <trkpt lat="48.459486" lon="9.841757">
        <ele>649.119404</ele>
        <time>2025-05-18T18:23:11.515Z</time>
      </trkpt>
      <trkpt lat="48.459603" lon="9.842173">
        <ele>649.654358</ele>
        <time>2025-05-18T18:23:18.505Z</time>
      </trkpt>
      <trkpt lat="48.459668" lon="9.842230">
        <ele>649.788593</ele>
        <time>2025-05-18T18:23:20.248Z</time>
      </trkpt>
      <trkpt lat="48.459721" lon="9.842247">
        <ele>649.885327</ele>
        <time>2025-05-18T18:23:21.497Z</time>
      </trkpt>
      <trkpt lat="48.459955" lon="9.842301">
        <ele>650.307935</ele>
        <time>2025-05-18T18:23:26.967Z</time>
      </trkpt>
      <trkpt lat="48.460019" lon="9.842393">
        <ele>650.465786</ele>
        <time>2025-05-18T18:23:29.009Z</time>
      </trkpt>
      <trkpt lat="48.460063" lon="9.842502">
        <ele>650.616854</ele>
        <time>2025-05-18T18:23:30.959Z</time>
      </trkpt>
      <trkpt lat="48.460128" lon="9.842802">
        <ele>650.990490</ele>
        <time>2025-05-18T18:23:35.780Z</time>
      </trkpt>
      <trkpt lat="48.460190" lon="9.843084">
        <ele>651.342208</ele>
        <time>2025-05-18T18:23:40.309Z</time>
      </trkpt>
      <trkpt lat="48.460215" lon="9.843199">
        <ele>651.470477</ele>
        <time>2025-05-18T18:23:42.164Z</time>
      </trkpt>
      <trkpt lat="48.460286" lon="9.843561">
        <ele>651.646918</ele>
        <time>2025-05-18T18:23:47.905Z</time>
      </trkpt>
      <trkpt lat="48.460297" lon="9.843617">
        <ele>651.674217</ele>
        <time>2025-05-18T18:23:48.789Z</time>
      </trkpt>
      <trkpt lat="48.460309" lon="9.843677">
        <ele>651.703508</ele>
        <time>2025-05-18T18:23:49.743Z</time>
      </trkpt>
      <trkpt lat="48.460358" lon="9.843944">
        <ele>651.832992</ele>
        <time>2025-05-18T18:23:53.943Z</time>
      </trkpt>
      <trkpt lat="48.460444" lon="9.844358">
        <ele>652.035764</ele>
        <time>2025-05-18T18:24:00.467Z</time>
      </trkpt>
      <trkpt lat="48.460551" lon="9.844634">
        <ele>652.185191</ele>
        <time>2025-05-18T18:24:05.185Z</time>
      </trkpt>
      <trkpt lat="48.460565" lon="9.844666">
        <ele>652.203109</ele>
        <time>2025-05-18T18:24:05.750Z</time>
      </trkpt>
      <trkpt lat="48.460829" lon="9.845109">
        <ele>652.481486</ele>
        <time>2025-05-18T18:24:14.343Z</time>
      </trkpt>
      <trkpt lat="48.460908" lon="9.845222">
        <ele>652.558230</ele>
        <time>2025-05-18T18:24:16.670Z</time>
      </trkpt>
      <trkpt lat="48.461079" lon="9.845159">
        <ele>652.682299</ele>
        <time>2025-05-18T18:24:20.374Z</time>
      </trkpt>
      <trkpt lat="48.461264" lon="9.845136">
        <ele>652.587763</ele>
        <time>2025-05-18T18:24:24.172Z</time>
      </trkpt>
      <trkpt lat="48.461411" lon="9.845147">
        <ele>652.415568</ele>
        <time>2025-05-18T18:24:27.127Z</time>
      </trkpt>
      <trkpt lat="48.461565" lon="9.845155">
        <ele>652.235288</ele>
        <time>2025-05-18T18:24:30.144Z</time>
      </trkpt>
      <trkpt lat="48.461657" lon="9.845163">
        <ele>652.127473</ele>
        <time>2025-05-18T18:24:31.950Z</time>
      </trkpt>
      <trkpt lat="48.461726" lon="9.845169">
        <ele>652.046613</ele>
        <time>2025-05-18T18:24:33.293Z</time>
      </trkpt>
      <trkpt lat="48.461806" lon="9.845169">
        <ele>651.953016</ele>
        <time>2025-05-18T18:24:34.828Z</time>
      </trkpt>
      <trkpt lat="48.461976" lon="9.845169">
        <ele>651.754124</ele>
        <time>2025-05-18T18:24:38.054Z</time>
      </trkpt>
      <trkpt lat="48.462171" lon="9.845177">
        <ele>651.525899</ele>
        <time>2025-05-18T18:24:41.656Z</time>
      </trkpt>
      <trkpt lat="48.462399" lon="9.845185">
        <ele>651.259077</ele>
        <time>2025-05-18T18:24:45.826Z</time>
      </trkpt>
      <trkpt lat="48.462561" lon="9.845192">
        <ele>651.069467</ele>
        <time>2025-05-18T18:24:48.761Z</time>
      </trkpt>
      <trkpt lat="48.462835" lon="9.845190">
        <ele>650.748895</ele>
        <time>2025-05-18T18:24:53.709Z</time>
      </trkpt>
      <trkpt lat="48.463031" lon="9.845200">
        <ele>650.509464</ele>
        <time>2025-05-18T18:24:57.169Z</time>
      </trkpt>
      <trkpt lat="48.463058" lon="9.845200">
        <ele>650.474859</ele>
        <time>2025-05-18T18:24:57.631Z</time>
      </trkpt>
      <trkpt lat="48.463393" lon="9.845235">
        <ele>650.044473</ele>
        <time>2025-05-18T18:25:03.616Z</time>
      </trkpt>
      <trkpt lat="48.464173" lon="9.845374">
        <ele>649.037821</ele>
        <time>2025-05-18T18:25:18.120Z</time>
      </trkpt>
      <trkpt lat="48.464847" lon="9.845527">
        <ele>648.263998</ele>
        <time>2025-05-18T18:25:31.458Z</time>
      </trkpt>
      <trkpt lat="48.465799" lon="9.845782">
        <ele>647.824463</ele>
        <time>2025-05-18T18:25:51.300Z</time>
      </trkpt>
      <trkpt lat="48.465954" lon="9.845831">
        <ele>647.752472</ele>
        <time>2025-05-18T18:25:54.536Z</time>
      </trkpt>
      <trkpt lat="48.466237" lon="9.845922">
        <ele>647.620934</ele>
        <time>2025-05-18T18:26:00.437Z</time>
      </trkpt>
      <trkpt lat="48.467060" lon="9.846198">
        <ele>647.153947</ele>
        <time>2025-05-18T18:26:17.632Z</time>
      </trkpt>
      <trkpt lat="48.468949" lon="9.846906">
        <ele>645.953565</ele>
        <time>2025-05-18T18:26:56.284Z</time>
      </trkpt>
      <trkpt lat="48.469822" lon="9.847299">
        <ele>645.364723</ele>
        <time>2025-05-18T18:27:14.338Z</time>
      </trkpt>
      <trkpt lat="48.470621" lon="9.847718">
        <ele>645.240871</ele>
        <time>2025-05-18T18:27:31.459Z</time>
      </trkpt>
      <trkpt lat="48.471929" lon="9.848422">
        <ele>645.376130</ele>
        <time>2025-05-18T18:28:01.255Z</time>
      </trkpt>
      <trkpt lat="48.472082" lon="9.848534">
        <ele>645.479865</ele>
        <time>2025-05-18T18:28:05.021Z</time>
      </trkpt>
      <trkpt lat="48.472826" lon="9.849399">
        <ele>646.052846</ele>
        <time>2025-05-18T18:28:26.209Z</time>
      </trkpt>
      <trkpt lat="48.473011" lon="9.849577">
        <ele>646.186693</ele>
        <time>2025-05-18T18:28:31.122Z</time>
      </trkpt>
      <trkpt lat="48.473496" lon="9.849956">
        <ele>645.976477</ele>
        <time>2025-05-18T18:28:42.927Z</time>
      </trkpt>
      <trkpt lat="48.474902" lon="9.851079">
        <ele>644.440954</ele>
        <time>2025-05-18T18:29:12.905Z</time>
      </trkpt>
      <trkpt lat="48.475533" lon="9.851598">
        <ele>643.508589</ele>
        <time>2025-05-18T18:29:25.456Z</time>
      </trkpt>
      <trkpt lat="48.475508" lon="9.851673">
        <ele>643.436393</ele>
        <time>2025-05-18T18:29:26.437Z</time>
      </trkpt>
      <trkpt lat="48.476462" lon="9.852399">
        <ele>642.403373</ele>
        <time>2025-05-18T18:29:47.107Z</time>
      </trkpt>
      <trkpt lat="48.476845" lon="9.852604">
        <ele>642.635651</ele>
        <time>2025-05-18T18:29:56.084Z</time>
      </trkpt>
      <trkpt lat="48.477087" lon="9.852686">
        <ele>642.777414</ele>
        <time>2025-05-18T18:30:01.668Z</time>
      </trkpt>
      <trkpt lat="48.477322" lon="9.852756">
        <ele>642.914323</ele>
        <time>2025-05-18T18:30:07.101Z</time>
      </trkpt>
      <trkpt lat="48.477720" lon="9.852808">
        <ele>643.142653</ele>
        <time>2025-05-18T18:30:16.267Z</time>
      </trkpt>
      <trkpt lat="48.479305" lon="9.852759">
        <ele>644.119136</ele>
        <time>2025-05-18T18:30:51.220Z</time>
      </trkpt>
      <trkpt lat="48.479604" lon="9.852816">
        <ele>644.308102</ele>
        <time>2025-05-18T18:30:57.693Z</time>
      </trkpt>
      <trkpt lat="48.481042" lon="9.853653">
        <ele>645.516552</ele>
        <time>2025-05-18T18:31:32.020Z</time>
      </trkpt>
      <trkpt lat="48.481338" lon="9.853894">
        <ele>645.789444</ele>
        <time>2025-05-18T18:31:39.689Z</time>
      </trkpt>
      <trkpt lat="48.481838" lon="9.854370">
        <ele>645.625251</ele>
        <time>2025-05-18T18:31:52.932Z</time>
      </trkpt>
      <trkpt lat="48.482340" lon="9.854975">
        <ele>645.210825</ele>
        <time>2025-05-18T18:32:06.444Z</time>
      </trkpt>
      <trkpt lat="48.483036" lon="9.855982">
        <ele>643.950338</ele>
        <time>2025-05-18T18:32:23.388Z</time>
      </trkpt>
      <trkpt lat="48.483338" lon="9.856351">
        <ele>642.708484</ele>
        <time>2025-05-18T18:32:29.577Z</time>
      </trkpt>
      <trkpt lat="48.483527" lon="9.856533">
        <ele>641.991986</ele>
        <time>2025-05-18T18:32:33.064Z</time>
      </trkpt>
      <trkpt lat="48.483910" lon="9.856807">
        <ele>640.637468</ele>
        <time>2025-05-18T18:32:39.708Z</time>
      </trkpt>
      <trkpt lat="48.484468" lon="9.857086">
        <ele>638.942584</ele>
        <time>2025-05-18T18:32:49.235Z</time>
      </trkpt>
      <trkpt lat="48.485239" lon="9.857491">
        <ele>638.299329</ele>
        <time>2025-05-18T18:33:03.820Z</time>
      </trkpt>
      <trkpt lat="48.485503" lon="9.857698">
        <ele>638.064904</ele>
        <time>2025-05-18T18:33:10.188Z</time>
      </trkpt>
      <trkpt lat="48.486004" lon="9.858179">
        <ele>637.597009</ele>
        <time>2025-05-18T18:33:23.533Z</time>
      </trkpt>
      <trkpt lat="48.486322" lon="9.858503">
        <ele>637.618935</ele>
        <time>2025-05-18T18:33:32.168Z</time>
      </trkpt>
      <trkpt lat="48.486368" lon="9.858562">
        <ele>637.624407</ele>
        <time>2025-05-18T18:33:33.493Z</time>
      </trkpt>
      <trkpt lat="48.486368" lon="9.858649">
        <ele>637.629634</ele>
        <time>2025-05-18T18:33:34.758Z</time>
      </trkpt>
      <trkpt lat="48.486436" lon="9.858620">
        <ele>637.636039</ele>
        <time>2025-05-18T18:33:36.299Z</time>
      </trkpt>
      <trkpt lat="48.486828" lon="9.859037">
        <ele>637.679515</ele>
        <time>2025-05-18T18:33:46.477Z</time>
      </trkpt>
      <trkpt lat="48.487277" lon="9.859472">
        <ele>637.727882</ele>
        <time>2025-05-18T18:33:57.232Z</time>
      </trkpt>
      <trkpt lat="48.487738" lon="9.859739">
        <ele>637.851238</ele>
        <time>2025-05-18T18:34:07.270Z</time>
      </trkpt>
      <trkpt lat="48.488007" lon="9.859847">
        <ele>637.958662</ele>
        <time>2025-05-18T18:34:12.993Z</time>
      </trkpt>
      <trkpt lat="48.488546" lon="9.860057">
        <ele>638.173494</ele>
        <time>2025-05-18T18:34:24.772Z</time>
      </trkpt>
      <trkpt lat="48.488630" lon="9.860021">
        <ele>638.207193</ele>
        <time>2025-05-18T18:34:26.691Z</time>
      </trkpt>
      <trkpt lat="48.488835" lon="9.860192">
        <ele>638.297591</ele>
        <time>2025-05-18T18:34:31.993Z</time>
      </trkpt>
      <trkpt lat="48.488949" lon="9.860479">
        <ele>638.383172</ele>
        <time>2025-05-18T18:34:37.103Z</time>
      </trkpt>
      <trkpt lat="48.489101" lon="9.860888">
        <ele>638.605713</ele>
        <time>2025-05-18T18:34:44.272Z</time>
      </trkpt>
      <trkpt lat="48.489270" lon="9.861264">
        <ele>638.919095</ele>
        <time>2025-05-18T18:34:51.097Z</time>
      </trkpt>
      <trkpt lat="48.489479" lon="9.861599">
        <ele>639.236453</ele>
        <time>2025-05-18T18:34:57.905Z</time>
      </trkpt>
      <trkpt lat="48.489628" lon="9.861837">
        <ele>639.462288</ele>
        <time>2025-05-18T18:35:02.696Z</time>
      </trkpt>
      <trkpt lat="48.489736" lon="9.861998">
        <ele>639.620303</ele>
        <time>2025-05-18T18:35:06.100Z</time>
      </trkpt>
      <trkpt lat="48.489819" lon="9.862046">
        <ele>639.712816</ele>
        <time>2025-05-18T18:35:08.087Z</time>
      </trkpt>
      <trkpt lat="48.489974" lon="9.862120">
        <ele>639.882022</ele>
        <time>2025-05-18T18:35:11.782Z</time>
      </trkpt>
      <trkpt lat="48.490102" lon="9.862163">
        <ele>640.018506</ele>
        <time>2025-05-18T18:35:14.760Z</time>
      </trkpt>
      <trkpt lat="48.490242" lon="9.861905">
        <ele>640.248512</ele>
        <time>2025-05-18T18:35:19.769Z</time>
      </trkpt>
      <trkpt lat="48.490340" lon="9.861700">
        <ele>640.485937</ele>
        <time>2025-05-18T18:35:23.517Z</time>
      </trkpt>
      <trkpt lat="48.490488" lon="9.861496">
        <ele>640.816178</ele>
        <time>2025-05-18T18:35:27.983Z</time>
      </trkpt>
      <trkpt lat="48.490594" lon="9.861403">
        <ele>641.018181</ele>
        <time>2025-05-18T18:35:30.692Z</time>
      </trkpt>
      <trkpt lat="48.490876" lon="9.861302">
        <ele>641.495667</ele>
        <time>2025-05-18T18:35:37.255Z</time>
      </trkpt>
      <trkpt lat="48.491276" lon="9.861195">
        <ele>642.164918</ele>
        <time>2025-05-18T18:35:46.633Z</time>
      </trkpt>
      <trkpt lat="48.491492" lon="9.861178">
        <ele>642.521248</ele>
        <time>2025-05-18T18:35:51.706Z</time>
      </trkpt>
      <trkpt lat="48.491563" lon="9.861172">
        <ele>642.638399</ele>
        <time>2025-05-18T18:35:53.378Z</time>
      </trkpt>
      <trkpt lat="48.491658" lon="9.861164">
        <ele>642.795150</ele>
        <time>2025-05-18T18:35:55.606Z</time>
      </trkpt>
      <trkpt lat="48.491913" lon="9.861093">
        <ele>643.222338</ele>
        <time>2025-05-18T18:36:01.671Z</time>
      </trkpt>
      <trkpt lat="48.491984" lon="9.861070">
        <ele>643.434860</ele>
        <time>2025-05-18T18:36:03.371Z</time>
      </trkpt>
      <trkpt lat="48.492096" lon="9.861038">
        <ele>643.894523</ele>
        <time>2025-05-18T18:36:06.054Z</time>
      </trkpt>
      <trkpt lat="48.492793" lon="9.860795">
        <ele>646.779209</ele>
        <time>2025-05-18T18:36:23.577Z</time>
      </trkpt>
      <trkpt lat="48.493112" lon="9.860690">
        <ele>648.095820</ele>
        <time>2025-05-18T18:36:31.924Z</time>
      </trkpt>
      <trkpt lat="48.493246" lon="9.860673">
        <ele>648.638079</ele>
        <time>2025-05-18T18:36:35.468Z</time>
      </trkpt>
      <trkpt lat="48.493447" lon="9.860706">
        <ele>649.453391</ele>
        <time>2025-05-18T18:36:41.010Z</time>
      </trkpt>
      <trkpt lat="48.493764" lon="9.860839">
        <ele>650.874524</ele>
        <time>2025-05-18T18:36:50.294Z</time>
      </trkpt>
      <trkpt lat="48.493825" lon="9.860857">
        <ele>651.219988</ele>
        <time>2025-05-18T18:36:52.094Z</time>
      </trkpt>
      <trkpt lat="48.494158" lon="9.860940">
        <ele>653.095908</ele>
        <time>2025-05-18T18:37:01.726Z</time>
      </trkpt>
      <trkpt lat="48.494407" lon="9.860953">
        <ele>654.480698</ele>
        <time>2025-05-18T18:37:08.724Z</time>
      </trkpt>
      <trkpt lat="48.494489" lon="9.860959">
        <ele>654.936996</ele>
        <time>2025-05-18T18:37:10.957Z</time>
      </trkpt>
      <trkpt lat="48.494554" lon="9.860969">
        <ele>655.300144</ele>
        <time>2025-05-18T18:37:12.715Z</time>
      </trkpt>
      <trkpt lat="48.494898" lon="9.861062">
        <ele>657.242566</ele>
        <time>2025-05-18T18:37:21.925Z</time>
      </trkpt>
      <trkpt lat="48.495211" lon="9.861252">
        <ele>659.117727</ele>
        <time>2025-05-18T18:37:31.004Z</time>
      </trkpt>
      <trkpt lat="48.495810" lon="9.861695">
        <ele>663.736489</ele>
        <time>2025-05-18T18:37:49.845Z</time>
      </trkpt>
      <trkpt lat="48.496120" lon="9.861758">
        <ele>666.164505</ele>
        <time>2025-05-18T18:37:59.073Z</time>
      </trkpt>
      <trkpt lat="48.496339" lon="9.861724">
        <ele>667.873408</ele>
        <time>2025-05-18T18:38:05.999Z</time>
      </trkpt>
      <trkpt lat="48.496567" lon="9.861629">
        <ele>669.709421</ele>
        <time>2025-05-18T18:38:13.807Z</time>
      </trkpt>
      <trkpt lat="48.496989" lon="9.861427">
        <ele>673.145927</ele>
        <time>2025-05-18T18:38:29.329Z</time>
      </trkpt>
      <trkpt lat="48.497494" lon="9.861261">
        <ele>676.999026</ele>
        <time>2025-05-18T18:38:47.546Z</time>
      </trkpt>
      <trkpt lat="48.497938" lon="9.861183">
        <ele>680.262318</ele>
        <time>2025-05-18T18:39:02.284Z</time>
      </trkpt>
      <trkpt lat="48.499082" lon="9.861185">
        <ele>688.128527</ele>
        <time>2025-05-18T18:39:35.316Z</time>
      </trkpt>
      <trkpt lat="48.499192" lon="9.861176">
        <ele>688.539860</ele>
        <time>2025-05-18T18:39:38.223Z</time>
      </trkpt>
      <trkpt lat="48.500838" lon="9.860580">
        <ele>694.454791</ele>
        <time>2025-05-18T18:40:19.855Z</time>
      </trkpt>
      <trkpt lat="48.501342" lon="9.860248">
        <ele>694.919447</ele>
        <time>2025-05-18T18:40:32.592Z</time>
      </trkpt>
      <trkpt lat="48.502112" lon="9.859780">
        <ele>695.620843</ele>
        <time>2025-05-18T18:40:50.653Z</time>
      </trkpt>
      <trkpt lat="48.503611" lon="9.859097">
        <ele>694.263017</ele>
        <time>2025-05-18T18:41:20.371Z</time>
      </trkpt>
      <trkpt lat="48.504352" lon="9.858700">
        <ele>693.375935</ele>
        <time>2025-05-18T18:41:34.648Z</time>
      </trkpt>
      <trkpt lat="48.504530" lon="9.858596">
        <ele>693.199243</ele>
        <time>2025-05-18T18:41:38.227Z</time>
      </trkpt>
      <trkpt lat="48.504871" lon="9.858377">
        <ele>692.856185</ele>
        <time>2025-05-18T18:41:45.278Z</time>
      </trkpt>
      <trkpt lat="48.505609" lon="9.857932">
        <ele>692.120507</ele>
        <time>2025-05-18T18:42:01.066Z</time>
      </trkpt>
      <trkpt lat="48.506015" lon="9.857642">
        <ele>691.977345</ele>
        <time>2025-05-18T18:42:10.300Z</time>
      </trkpt>
      <trkpt lat="48.506900" lon="9.856910">
        <ele>692.019113</ele>
        <time>2025-05-18T18:42:31.512Z</time>
      </trkpt>
      <trkpt lat="48.507983" lon="9.856205">
        <ele>692.772220</ele>
        <time>2025-05-18T18:42:57.236Z</time>
      </trkpt>
      <trkpt lat="48.508098" lon="9.856131">
        <ele>692.908441</ele>
        <time>2025-05-18T18:43:00.050Z</time>
      </trkpt>
      <trkpt lat="48.508495" lon="9.855770">
        <ele>693.413465</ele>
        <time>2025-05-18T18:43:10.649Z</time>
      </trkpt>
      <trkpt lat="48.509322" lon="9.854923">
        <ele>694.782088</ele>
        <time>2025-05-18T18:43:33.837Z</time>
      </trkpt>
      <trkpt lat="48.509711" lon="9.854466">
        <ele>695.618133</ele>
        <time>2025-05-18T18:43:45.327Z</time>
      </trkpt>
      <trkpt lat="48.509902" lon="9.854202">
        <ele>696.057376</ele>
        <time>2025-05-18T18:43:51.342Z</time>
      </trkpt>
      <trkpt lat="48.510222" lon="9.853573">
        <ele>696.948480</ele>
        <time>2025-05-18T18:44:03.487Z</time>
      </trkpt>
      <trkpt lat="48.510453" lon="9.852917">
        <ele>697.448290</ele>
        <time>2025-05-18T18:44:14.655Z</time>
      </trkpt>
      <trkpt lat="48.510688" lon="9.852396">
        <ele>697.832725</ele>
        <time>2025-05-18T18:44:23.959Z</time>
      </trkpt>
      <trkpt lat="48.511297" lon="9.851425">
        <ele>698.648269</ele>
        <time>2025-05-18T18:44:43.605Z</time>
      </trkpt>
      <trkpt lat="48.511469" lon="9.851230">
        <ele>698.926191</ele>
        <time>2025-05-18T18:44:48.346Z</time>
      </trkpt>
      <trkpt lat="48.511680" lon="9.851159">
        <ele>699.238975</ele>
        <time>2025-05-18T18:44:53.115Z</time>
      </trkpt>
      <trkpt lat="48.511902" lon="9.851289">
        <ele>699.583503</ele>
        <time>2025-05-18T18:44:58.454Z</time>
      </trkpt>
      <trkpt lat="48.512029" lon="9.851432">
        <ele>699.812745</ele>
        <time>2025-05-18T18:45:02.037Z</time>
      </trkpt>
      <trkpt lat="48.512187" lon="9.851632">
        <ele>700.111089</ele>
        <time>2025-05-18T18:45:06.728Z</time>
      </trkpt>
      <trkpt lat="48.512198" lon="9.851647">
        <ele>700.132537</ele>
        <time>2025-05-18T18:45:07.078Z</time>
      </trkpt>
      <trkpt lat="48.512324" lon="9.851796">
        <ele>700.364123</ele>
        <time>2025-05-18T18:45:10.720Z</time>
      </trkpt>
      <trkpt lat="48.512483" lon="9.851787">
        <ele>700.594337</ele>
        <time>2025-05-18T18:45:14.389Z</time>
      </trkpt>
      <trkpt lat="48.512722" lon="9.851618">
        <ele>700.976199</ele>
        <time>2025-05-18T18:45:20.497Z</time>
      </trkpt>
      <trkpt lat="48.513048" lon="9.851374">
        <ele>701.777407</ele>
        <time>2025-05-18T18:45:29.163Z</time>
      </trkpt>
      <trkpt lat="48.513214" lon="9.851242">
        <ele>702.433880</ele>
        <time>2025-05-18T18:45:33.678Z</time>
      </trkpt>
      <trkpt lat="48.513228" lon="9.851231">
        <ele>702.489103</ele>
        <time>2025-05-18T18:45:34.061Z</time>
      </trkpt>
      <trkpt lat="48.513361" lon="9.851140">
        <ele>703.000026</ele>
        <time>2025-05-18T18:45:37.619Z</time>
      </trkpt>
      <trkpt lat="48.513636" lon="9.851001">
        <ele>704.014729</ele>
        <time>2025-05-18T18:45:44.846Z</time>
      </trkpt>
      <trkpt lat="48.513905" lon="9.850864">
        <ele>705.008055</ele>
        <time>2025-05-18T18:45:52.133Z</time>
      </trkpt>
      <trkpt lat="48.514095" lon="9.850767">
        <ele>705.709834</ele>
        <time>2025-05-18T18:45:57.297Z</time>
      </trkpt>
      <trkpt lat="48.514256" lon="9.850685">
        <ele>706.304355</ele>
        <time>2025-05-18T18:46:01.644Z</time>
      </trkpt>
      <trkpt lat="48.514480" lon="9.850494">
        <ele>707.204493</ele>
        <time>2025-05-18T18:46:08.246Z</time>
      </trkpt>
      <trkpt lat="48.514589" lon="9.850404">
        <ele>707.613309</ele>
        <time>2025-05-18T18:46:11.404Z</time>
      </trkpt>
      <trkpt lat="48.514741" lon="9.850283">
        <ele>707.793458</ele>
        <time>2025-05-18T18:46:15.727Z</time>
      </trkpt>
      <trkpt lat="48.514858" lon="9.850423">
        <ele>707.949976</ele>
        <time>2025-05-18T18:46:19.426Z</time>
      </trkpt>
      <trkpt lat="48.515037" lon="9.850634">
        <ele>708.188065</ele>
        <time>2025-05-18T18:46:24.848Z</time>
      </trkpt>
      <trkpt lat="48.515141" lon="9.850839">
        <ele>708.367384</ele>
        <time>2025-05-18T18:46:28.857Z</time>
      </trkpt>
      <trkpt lat="48.515229" lon="9.850851">
        <ele>708.460015</ele>
        <time>2025-05-18T18:46:31.346Z</time>
      </trkpt>
      <trkpt lat="48.515491" lon="9.851128">
        <ele>708.795348</ele>
        <time>2025-05-18T18:46:40.324Z</time>
      </trkpt>
      <trkpt lat="48.515627" lon="9.850907">
        <ele>709.004830</ele>
        <time>2025-05-18T18:46:44.708Z</time>
      </trkpt>
      <trkpt lat="48.515831" lon="9.850730">
        <ele>709.251503</ele>
        <time>2025-05-18T18:46:49.474Z</time>
      </trkpt>
      <trkpt lat="48.515857" lon="9.850708">
        <ele>709.282750</ele>
        <time>2025-05-18T18:46:50.035Z</time>
      </trkpt>
      <trkpt lat="48.516334" lon="9.850331">
        <ele>708.058890</ele>
        <time>2025-05-18T18:46:59.849Z</time>
      </trkpt>
      <trkpt lat="48.517021" lon="9.849796">
        <ele>704.836191</ele>
        <time>2025-05-18T18:47:12.021Z</time>
      </trkpt>
      <trkpt lat="48.519391" lon="9.847976">
        <ele>690.494788</ele>
        <time>2025-05-18T18:47:52.942Z</time>
      </trkpt>
      <trkpt lat="48.519633" lon="9.847861">
        <ele>689.324555</ele>
        <time>2025-05-18T18:47:56.627Z</time>
      </trkpt>
      <trkpt lat="48.521104" lon="9.847672">
        <ele>683.134398</ele>
        <time>2025-05-18T18:48:19.172Z</time>
      </trkpt>
      <trkpt lat="48.521515" lon="9.847611">
        <ele>683.579502</ele>
        <time>2025-05-18T18:48:27.307Z</time>
      </trkpt>
      <trkpt lat="48.522593" lon="9.847301">
        <ele>684.762239</ele>
        <time>2025-05-18T18:49:04.074Z</time>
      </trkpt>
      <trkpt lat="48.523306" lon="9.847046">
        <ele>686.731230</ele>
        <time>2025-05-18T18:49:29.295Z</time>
      </trkpt>
      <trkpt lat="48.524765" lon="9.846523">
        <ele>690.813658</ele>
        <time>2025-05-18T18:50:19.847Z</time>
      </trkpt>
      <trkpt lat="48.524986" lon="9.847927">
        <ele>691.137188</ele>
        <time>2025-05-18T18:50:52.785Z</time>
      </trkpt>
      <trkpt lat="48.525028" lon="9.848026">
        <ele>691.163546</ele>
        <time>2025-05-18T18:50:55.476Z</time>
      </trkpt>
      <trkpt lat="48.525025" lon="9.848133">
        <ele>691.187556</ele>
        <time>2025-05-18T18:50:56.791Z</time>
      </trkpt>
      <trkpt lat="48.525225" lon="9.849139">
        <ele>690.917557</ele>
        <time>2025-05-18T18:51:09.782Z</time>
      </trkpt>
      <trkpt lat="48.525432" lon="9.850302">
        <ele>689.611320</ele>
        <time>2025-05-18T18:51:24.169Z</time>
      </trkpt>
      <trkpt lat="48.526157" lon="9.853832">
        <ele>685.999066</ele>
        <time>2025-05-18T18:52:08.032Z</time>
      </trkpt>
      <trkpt lat="48.526193" lon="9.853975">
        <ele>685.862930</ele>
        <time>2025-05-18T18:52:10.300Z</time>
      </trkpt>
      <trkpt lat="48.526268" lon="9.854082">
        <ele>685.844166</ele>
        <time>2025-05-18T18:52:12.634Z</time>
      </trkpt>
      <trkpt lat="48.526443" lon="9.853864">
        <ele>685.802912</ele>
        <time>2025-05-18T18:52:17.677Z</time>
      </trkpt>
      <trkpt lat="48.526829" lon="9.853642">
        <ele>685.727801</ele>
        <time>2025-05-18T18:52:26.849Z</time>
      </trkpt>
      <trkpt lat="48.526960" lon="9.853591">
        <ele>685.703200</ele>
        <time>2025-05-18T18:52:29.842Z</time>
      </trkpt>
      <trkpt lat="48.527302" lon="9.853495">
        <ele>685.639944</ele>
        <time>2025-05-18T18:52:37.585Z</time>
      </trkpt>
      <trkpt lat="48.527328" lon="9.853806">
        <ele>685.602194</ele>
        <time>2025-05-18T18:52:42.052Z</time>
      </trkpt>
      <trkpt lat="48.527357" lon="9.854468">
        <ele>685.283539</ele>
        <time>2025-05-18T18:52:50.500Z</time>
      </trkpt>
      <trkpt lat="48.527358" lon="9.854498">
        <ele>685.220289</ele>
        <time>2025-05-18T18:52:50.848Z</time>
      </trkpt>
      <trkpt lat="48.527388" lon="9.855102">
        <ele>683.944896</ele>
        <time>2025-05-18T18:52:57.607Z</time>
      </trkpt>
      <trkpt lat="48.527434" lon="9.855519">
        <ele>683.054737</ele>
        <time>2025-05-18T18:53:02.179Z</time>
      </trkpt>
      <trkpt lat="48.527449" lon="9.855625">
        <ele>682.826498</ele>
        <time>2025-05-18T18:53:03.321Z</time>
      </trkpt>
      <trkpt lat="48.527584" lon="9.856208">
        <ele>681.526021</ele>
        <time>2025-05-18T18:53:09.831Z</time>
      </trkpt>
      <trkpt lat="48.527667" lon="9.856530">
        <ele>680.798453</ele>
        <time>2025-05-18T18:53:13.428Z</time>
      </trkpt>
      <trkpt lat="48.527771" lon="9.856932">
        <ele>679.889687</ele>
        <time>2025-05-18T18:53:17.847Z</time>
      </trkpt>
      <trkpt lat="48.528000" lon="9.857632">
        <ele>677.657058</ele>
        <time>2025-05-18T18:53:25.844Z</time>
      </trkpt>
      <trkpt lat="48.528109" lon="9.857945">
        <ele>676.633644</ele>
        <time>2025-05-18T18:53:29.479Z</time>
      </trkpt>
      <trkpt lat="48.528267" lon="9.858402">
        <ele>675.141724</ele>
        <time>2025-05-18T18:53:34.752Z</time>
      </trkpt>
      <trkpt lat="48.528420" lon="9.858728">
        <ele>673.985405</ele>
        <time>2025-05-18T18:53:38.798Z</time>
      </trkpt>
      <trkpt lat="48.528863" lon="9.859439">
        <ele>671.177475</ele>
        <time>2025-05-18T18:53:48.755Z</time>
      </trkpt>
      <trkpt lat="48.528894" lon="9.859491">
        <ele>670.979359</ele>
        <time>2025-05-18T18:53:49.469Z</time>
      </trkpt>
      <trkpt lat="48.530351" lon="9.861756">
        <ele>661.744377</ele>
        <time>2025-05-18T18:54:21.972Z</time>
      </trkpt>
      <trkpt lat="48.530684" lon="9.862260">
        <ele>659.462750</ele>
        <time>2025-05-18T18:54:29.146Z</time>
      </trkpt>
      <trkpt lat="48.531210" lon="9.862762">
        <ele>656.451474</ele>
        <time>2025-05-18T18:54:38.453Z</time>
      </trkpt>
      <trkpt lat="48.531373" lon="9.862868">
        <ele>655.592619</ele>
        <time>2025-05-18T18:54:41.100Z</time>
      </trkpt>
      <trkpt lat="48.532151" lon="9.863422">
        <ele>651.914264</ele>
        <time>2025-05-18T18:54:54.092Z</time>
      </trkpt>
      <trkpt lat="48.533423" lon="9.864322">
        <ele>646.289746</ele>
        <time>2025-05-18T18:55:16.541Z</time>
      </trkpt>
      <trkpt lat="48.533832" lon="9.864518">
        <ele>644.807917</ele>
        <time>2025-05-18T18:55:23.741Z</time>
      </trkpt>
      <trkpt lat="48.534655" lon="9.864844">
        <ele>641.869669</ele>
        <time>2025-05-18T18:55:37.523Z</time>
      </trkpt>
      <trkpt lat="48.534828" lon="9.864939">
        <ele>640.976739</ele>
        <time>2025-05-18T18:55:40.409Z</time>
      </trkpt>
      <trkpt lat="48.535296" lon="9.865282">
        <ele>638.114066</ele>
        <time>2025-05-18T18:55:48.308Z</time>
      </trkpt>
      <trkpt lat="48.535569" lon="9.865590">
        <ele>636.238816</ele>
        <time>2025-05-18T18:55:53.381Z</time>
      </trkpt>
      <trkpt lat="48.535715" lon="9.865814">
        <ele>635.093505</ele>
        <time>2025-05-18T18:55:56.424Z</time>
      </trkpt>
      <trkpt lat="48.535884" lon="9.866084">
        <ele>633.739675</ele>
        <time>2025-05-18T18:55:59.987Z</time>
      </trkpt>
      <trkpt lat="48.536146" lon="9.866609">
        <ele>631.322546</ele>
        <time>2025-05-18T18:56:06.264Z</time>
      </trkpt>
      <trkpt lat="48.536404" lon="9.867166">
        <ele>628.719574</ele>
        <time>2025-05-18T18:56:12.730Z</time>
      </trkpt>
      <trkpt lat="48.536604" lon="9.867783">
        <ele>626.089008</ele>
        <time>2025-05-18T18:56:19.367Z</time>
      </trkpt>
      <trkpt lat="48.536725" lon="9.868299">
        <ele>623.992872</ele>
        <time>2025-05-18T18:56:24.749Z</time>
      </trkpt>
      <trkpt lat="48.536832" lon="9.869220">
        <ele>620.602349</ele>
        <time>2025-05-18T18:56:34.160Z</time>
      </trkpt>
      <trkpt lat="48.536802" lon="9.870356">
        <ele>617.115039</ele>
        <time>2025-05-18T18:56:45.970Z</time>
      </trkpt>
      <trkpt lat="48.536788" lon="9.871528">
        <ele>613.519487</ele>
        <time>2025-05-18T18:56:57.870Z</time>
      </trkpt>
      <trkpt lat="48.536819" lon="9.871977">
        <ele>611.920420</ele>
        <time>2025-05-18T18:57:02.330Z</time>
      </trkpt>
      <trkpt lat="48.536999" lon="9.872827">
        <ele>608.531540</ele>
        <time>2025-05-18T18:57:11.012Z</time>
      </trkpt>
      <trkpt lat="48.537341" lon="9.873853">
        <ele>604.169534</ele>
        <time>2025-05-18T18:57:22.114Z</time>
      </trkpt>
      <trkpt lat="48.537477" lon="9.874404">
        <ele>602.050446</ele>
        <time>2025-05-18T18:57:27.884Z</time>
      </trkpt>
      <trkpt lat="48.537565" lon="9.874928">
        <ele>600.296146</ele>
        <time>2025-05-18T18:57:33.245Z</time>
      </trkpt>
      <trkpt lat="48.537879" lon="9.877731">
        <ele>592.017811</ele>
        <time>2025-05-18T18:58:02.034Z</time>
      </trkpt>
      <trkpt lat="48.537956" lon="9.878673">
        <ele>589.967035</ele>
        <time>2025-05-18T18:58:12.134Z</time>
      </trkpt>
      <trkpt lat="48.537956" lon="9.879036">
        <ele>589.182723</ele>
        <time>2025-05-18T18:58:16.186Z</time>
      </trkpt>
      <trkpt lat="48.537904" lon="9.879700">
        <ele>587.998013</ele>
        <time>2025-05-18T18:58:23.952Z</time>
      </trkpt>
      <trkpt lat="48.537765" lon="9.880988">
        <ele>587.644255</ele>
        <time>2025-05-18T18:58:41.437Z</time>
      </trkpt>
      <trkpt lat="48.537718" lon="9.881493">
        <ele>587.506014</ele>
        <time>2025-05-18T18:58:48.858Z</time>
      </trkpt>
      <trkpt lat="48.537730" lon="9.882097">
        <ele>587.342209</ele>
        <time>2025-05-18T18:58:57.724Z</time>
      </trkpt>
      <trkpt lat="48.537766" lon="9.882602">
        <ele>586.872104</ele>
        <time>2025-05-18T18:59:05.028Z</time>
      </trkpt>
      <trkpt lat="48.538007" lon="9.883785">
        <ele>585.355151</ele>
        <time>2025-05-18T18:59:20.600Z</time>
      </trkpt>
      <trkpt lat="48.538265" lon="9.884870">
        <ele>583.943009</ele>
        <time>2025-05-18T18:59:32.867Z</time>
      </trkpt>
      <trkpt lat="48.538409" lon="9.885338">
        <ele>583.328391</ele>
        <time>2025-05-18T18:59:38.203Z</time>
      </trkpt>
      <trkpt lat="48.538529" lon="9.885594">
        <ele>582.954832</ele>
        <time>2025-05-18T18:59:41.503Z</time>
      </trkpt>
      <trkpt lat="48.538787" lon="9.885981">
        <ele>582.300773</ele>
        <time>2025-05-18T18:59:47.564Z</time>
      </trkpt>
      <trkpt lat="48.538985" lon="9.886203">
        <ele>581.857214</ele>
        <time>2025-05-18T18:59:51.970Z</time>
      </trkpt>
      <trkpt lat="48.539934" lon="9.886946">
        <ele>580.997176</ele>
        <time>2025-05-18T19:00:15.259Z</time>
      </trkpt>
      <trkpt lat="48.540419" lon="9.887411">
        <ele>581.336684</ele>
        <time>2025-05-18T19:00:28.449Z</time>
      </trkpt>
      <trkpt lat="48.540622" lon="9.887586">
        <ele>581.474822</ele>
        <time>2025-05-18T19:00:33.697Z</time>
      </trkpt>
      <trkpt lat="48.540824" lon="9.887701">
        <ele>581.602403</ele>
        <time>2025-05-18T19:00:38.454Z</time>
      </trkpt>
      <trkpt lat="48.541273" lon="9.887780">
        <ele>581.561432</ele>
        <time>2025-05-18T19:00:48.099Z</time>
      </trkpt>
      <trkpt lat="48.541913" lon="9.887824">
        <ele>580.324072</ele>
        <time>2025-05-18T19:01:00.539Z</time>
      </trkpt>
      <trkpt lat="48.542115" lon="9.887902">
        <ele>579.921387</ele>
        <time>2025-05-18T19:01:04.167Z</time>
      </trkpt>
      <trkpt lat="48.542372" lon="9.888089">
        <ele>579.370430</ele>
        <time>2025-05-18T19:01:08.988Z</time>
      </trkpt>
      <trkpt lat="48.542604" lon="9.888356">
        <ele>578.807104</ele>
        <time>2025-05-18T19:01:13.748Z</time>
      </trkpt>
      <trkpt lat="48.542741" lon="9.888544">
        <ele>578.449610</ele>
        <time>2025-05-18T19:01:16.725Z</time>
      </trkpt>
      <trkpt lat="48.543018" lon="9.889092">
        <ele>576.923454</ele>
        <time>2025-05-18T19:01:23.986Z</time>
      </trkpt>
      <trkpt lat="48.543243" lon="9.889661">
        <ele>575.352973</ele>
        <time>2025-05-18T19:01:30.859Z</time>
      </trkpt>
      <trkpt lat="48.543840" lon="9.891146">
        <ele>571.658516</ele>
        <time>2025-05-18T19:01:49.165Z</time>
      </trkpt>
      <trkpt lat="48.544098" lon="9.891692">
        <ele>571.102149</ele>
        <time>2025-05-18T19:01:56.881Z</time>
      </trkpt>
      <trkpt lat="48.544330" lon="9.892073">
        <ele>570.672813</ele>
        <time>2025-05-18T19:02:03.311Z</time>
      </trkpt>
      <trkpt lat="48.544585" lon="9.892401">
        <ele>570.253218</ele>
        <time>2025-05-18T19:02:10.045Z</time>
      </trkpt>
      <trkpt lat="48.544880" lon="9.892667">
        <ele>569.822806</ele>
        <time>2025-05-18T19:02:17.422Z</time>
      </trkpt>
      <trkpt lat="48.545699" lon="9.893120">
        <ele>569.318769</ele>
        <time>2025-05-18T19:02:36.562Z</time>
      </trkpt>
      <trkpt lat="48.545892" lon="9.893322">
        <ele>569.216469</ele>
        <time>2025-05-18T19:02:41.378Z</time>
      </trkpt>
      <trkpt lat="48.546102" lon="9.893598">
        <ele>569.095191</ele>
        <time>2025-05-18T19:02:46.577Z</time>
      </trkpt>
      <trkpt lat="48.546562" lon="9.894173">
        <ele>568.817608</ele>
        <time>2025-05-18T19:02:58.072Z</time>
      </trkpt>
      <trkpt lat="48.546651" lon="9.894272">
        <ele>568.709134</ele>
        <time>2025-05-18T19:03:00.234Z</time>
      </trkpt>
      <trkpt lat="48.546796" lon="9.893952">
        <ele>568.457189</ele>
        <time>2025-05-18T19:03:05.073Z</time>
      </trkpt>
      <trkpt lat="48.546996" lon="9.893605">
        <ele>568.158267</ele>
        <time>2025-05-18T19:03:10.835Z</time>
      </trkpt>
      <trkpt lat="48.547031" lon="9.893474">
        <ele>568.066485</ele>
        <time>2025-05-18T19:03:12.612Z</time>
      </trkpt>
      <trkpt lat="48.547145" lon="9.893462">
        <ele>567.954332</ele>
        <time>2025-05-18T19:03:14.747Z</time>
      </trkpt>
      <trkpt lat="48.547325" lon="9.893353">
        <ele>567.764010</ele>
        <time>2025-05-18T19:03:18.549Z</time>
      </trkpt>
      <trkpt lat="48.547376" lon="9.893303">
        <ele>567.704340</ele>
        <time>2025-05-18T19:03:19.656Z</time>
      </trkpt>
      <trkpt lat="48.547433" lon="9.893239">
        <ele>567.634639</ele>
        <time>2025-05-18T19:03:21.100Z</time>
      </trkpt>
      <trkpt lat="48.547455" lon="9.893211">
        <ele>567.606405</ele>
        <time>2025-05-18T19:03:21.647Z</time>
      </trkpt>
      <trkpt lat="48.547701" lon="9.892959">
        <ele>567.314697</ele>
        <time>2025-05-18T19:03:27.732Z</time>
      </trkpt>
      <trkpt lat="48.547725" lon="9.892931">
        <ele>567.284936</ele>
        <time>2025-05-18T19:03:28.380Z</time>
      </trkpt>
      <trkpt lat="48.547795" lon="9.892848">
        <ele>567.197601</ele>
        <time>2025-05-18T19:03:30.269Z</time>
      </trkpt>
      <trkpt lat="48.547899" lon="9.892713">
        <ele>567.054604</ele>
        <time>2025-05-18T19:03:33.087Z</time>
      </trkpt>
      <trkpt lat="48.547998" lon="9.892599">
        <ele>566.882817</ele>
        <time>2025-05-18T19:03:35.563Z</time>
      </trkpt>
      <trkpt lat="48.548150" lon="9.892423">
        <ele>566.618526</ele>
        <time>2025-05-18T19:03:39.182Z</time>
      </trkpt>
      <trkpt lat="48.548264" lon="9.892301">
        <ele>566.425729</ele>
        <time>2025-05-18T19:03:41.715Z</time>
      </trkpt>
      <trkpt lat="48.548524" lon="9.892063">
        <ele>566.006197</ele>
        <time>2025-05-18T19:03:47.105Z</time>
      </trkpt>
      <trkpt lat="48.548805" lon="9.891933">
        <ele>565.600642</ele>
        <time>2025-05-18T19:03:52.326Z</time>
      </trkpt>
      <trkpt lat="48.549084" lon="9.891886">
        <ele>565.213239</ele>
        <time>2025-05-18T19:03:57.511Z</time>
      </trkpt>
      <trkpt lat="48.549132" lon="9.891877">
        <ele>565.146491</ele>
        <time>2025-05-18T19:03:58.426Z</time>
      </trkpt>
      <trkpt lat="48.549342" lon="9.891841">
        <ele>564.854834</ele>
        <time>2025-05-18T19:04:02.185Z</time>
      </trkpt>
      <trkpt lat="48.549528" lon="9.891814">
        <ele>564.600251</ele>
        <time>2025-05-18T19:04:05.543Z</time>
      </trkpt>
      <trkpt lat="48.549911" lon="9.891737">
        <ele>564.440563</ele>
        <time>2025-05-18T19:04:12.944Z</time>
      </trkpt>
      <trkpt lat="48.549985" lon="9.891727">
        <ele>564.409857</ele>
        <time>2025-05-18T19:04:14.373Z</time>
      </trkpt>
      <trkpt lat="48.550531" lon="9.891636">
        <ele>564.182827</ele>
        <time>2025-05-18T19:04:25.602Z</time>
      </trkpt>
      <trkpt lat="48.550572" lon="9.891629">
        <ele>564.165774</ele>
        <time>2025-05-18T19:04:26.466Z</time>
      </trkpt>
      <trkpt lat="48.550548" lon="9.891262">
        <ele>564.064879</ele>
        <time>2025-05-18T19:04:31.689Z</time>
      </trkpt>
      <trkpt lat="48.550937" lon="9.891324">
        <ele>563.903214</ele>
        <time>2025-05-18T19:04:39.973Z</time>
      </trkpt>
      <trkpt lat="48.551331" lon="9.891255">
        <ele>563.909008</ele>
        <time>2025-05-18T19:04:48.527Z</time>
      </trkpt>
      <trkpt lat="48.551557" lon="9.891138">
        <ele>563.951102</ele>
        <time>2025-05-18T19:04:53.713Z</time>
      </trkpt>
      <trkpt lat="48.551712" lon="9.891042">
        <ele>563.980619</ele>
        <time>2025-05-18T19:04:57.300Z</time>
      </trkpt>
      <trkpt lat="48.551913" lon="9.890811">
        <ele>564.025118</ele>
        <time>2025-05-18T19:05:02.678Z</time>
      </trkpt>
      <trkpt lat="48.551931" lon="9.890819">
        <ele>564.028424</ele>
        <time>2025-05-18T19:05:03.081Z</time>
      </trkpt>
      <trkpt lat="48.551997" lon="9.890848">
        <ele>564.040535</ele>
        <time>2025-05-18T19:05:04.562Z</time>
      </trkpt>
      <trkpt lat="48.552899" lon="9.890104">
        <ele>564.358358</ele>
        <time>2025-05-18T19:05:26.405Z</time>
      </trkpt>
      <trkpt lat="48.553824" lon="9.889643">
        <ele>565.035603</ele>
        <time>2025-05-18T19:05:47.899Z</time>
      </trkpt>
      <trkpt lat="48.554502" lon="9.889511">
        <ele>565.563060</ele>
        <time>2025-05-18T19:06:03.368Z</time>
      </trkpt>
      <trkpt lat="48.556070" lon="9.889310">
        <ele>567.327481</ele>
        <time>2025-05-18T19:06:39.213Z</time>
      </trkpt>
      <trkpt lat="48.556549" lon="9.889507">
        <ele>567.452624</ele>
        <time>2025-05-18T19:06:50.205Z</time>
      </trkpt>
      <trkpt lat="48.556909" lon="9.889780">
        <ele>567.462974</ele>
        <time>2025-05-18T19:06:58.735Z</time>
      </trkpt>
      <trkpt lat="48.557194" lon="9.890076">
        <ele>567.471861</ele>
        <time>2025-05-18T19:07:05.821Z</time>
      </trkpt>
      <trkpt lat="48.557763" lon="9.890441">
        <ele>567.487746</ele>
        <time>2025-05-18T19:07:18.221Z</time>
      </trkpt>
      <trkpt lat="48.557947" lon="9.890524">
        <ele>567.602640</ele>
        <time>2025-05-18T19:07:22.049Z</time>
      </trkpt>
      <trkpt lat="48.558079" lon="9.890595">
        <ele>567.706265</ele>
        <time>2025-05-18T19:07:24.894Z</time>
      </trkpt>
      <trkpt lat="48.558890" lon="9.891170">
        <ele>568.368807</ele>
        <time>2025-05-18T19:07:44.440Z</time>
      </trkpt>
      <trkpt lat="48.559334" lon="9.891329">
        <ele>568.706271</ele>
        <time>2025-05-18T19:07:55.098Z</time>
      </trkpt>
      <trkpt lat="48.559598" lon="9.891424">
        <ele>568.914106</ele>
        <time>2025-05-18T19:08:01.452Z</time>
      </trkpt>
      <trkpt lat="48.560098" lon="9.891565">
        <ele>569.320731</ele>
        <time>2025-05-18T19:08:13.229Z</time>
      </trkpt>
      <trkpt lat="48.560401" lon="9.891585">
        <ele>569.563194</ele>
        <time>2025-05-18T19:08:20.096Z</time>
      </trkpt>
      <trkpt lat="48.561387" lon="9.891234">
        <ele>570.215200</ele>
        <time>2025-05-18T19:08:41.607Z</time>
      </trkpt>
      <trkpt lat="48.561507" lon="9.891150">
        <ele>570.177289</ele>
        <time>2025-05-18T19:08:44.193Z</time>
      </trkpt>
      <trkpt lat="48.561647" lon="9.890962">
        <ele>570.123600</ele>
        <time>2025-05-18T19:08:47.875Z</time>
      </trkpt>
      <trkpt lat="48.562503" lon="9.888848">
        <ele>569.790132</ele>
        <time>2025-05-18T19:09:21.549Z</time>
      </trkpt>
      <trkpt lat="48.563148" lon="9.887535">
        <ele>569.962722</ele>
        <time>2025-05-18T19:09:44.701Z</time>
      </trkpt>
      <trkpt lat="48.564130" lon="9.885653">
        <ele>570.641502</ele>
        <time>2025-05-18T19:10:19.477Z</time>
      </trkpt>
      <trkpt lat="48.565076" lon="9.883822">
        <ele>571.877134</ele>
        <time>2025-05-18T19:10:53.261Z</time>
      </trkpt>
      <trkpt lat="48.565257" lon="9.883396">
        <ele>572.210785</ele>
        <time>2025-05-18T19:11:00.797Z</time>
      </trkpt>
      <trkpt lat="48.565414" lon="9.882930">
        <ele>572.555422</ele>
        <time>2025-05-18T19:11:08.714Z</time>
      </trkpt>
      <trkpt lat="48.565419" lon="9.882649">
        <ele>572.740687</ele>
        <time>2025-05-18T19:11:13.027Z</time>
      </trkpt>
      <trkpt lat="48.565559" lon="9.882038">
        <ele>573.541774</ele>
        <time>2025-05-18T19:11:23.013Z</time>
      </trkpt>
      <trkpt lat="48.565922" lon="9.880993">
        <ele>575.032289</ele>
        <time>2025-05-18T19:11:41.451Z</time>
      </trkpt>
      <trkpt lat="48.566238" lon="9.880304">
        <ele>576.090980</ele>
        <time>2025-05-18T19:11:54.404Z</time>
      </trkpt>
      <trkpt lat="48.566540" lon="9.879825">
        <ele>576.425824</ele>
        <time>2025-05-18T19:12:04.391Z</time>
      </trkpt>
      <trkpt lat="48.567094" lon="9.879075">
        <ele>576.880117</ele>
        <time>2025-05-18T19:12:20.863Z</time>
      </trkpt>
      <trkpt lat="48.567487" lon="9.878630">
        <ele>577.180058</ele>
        <time>2025-05-18T19:12:31.325Z</time>
      </trkpt>
      <trkpt lat="48.567862" lon="9.878290">
        <ele>577.208197</ele>
        <time>2025-05-18T19:12:40.291Z</time>
      </trkpt>
      <trkpt lat="48.568376" lon="9.877921">
        <ele>577.031540</ele>
        <time>2025-05-18T19:12:51.633Z</time>
      </trkpt>
      <trkpt lat="48.569015" lon="9.877573">
        <ele>576.820680</ele>
        <time>2025-05-18T19:13:05.530Z</time>
      </trkpt>
      <trkpt lat="48.569277" lon="9.877487">
        <ele>576.737449</ele>
        <time>2025-05-18T19:13:11.110Z</time>
      </trkpt>
      <trkpt lat="48.570167" lon="9.877253">
        <ele>577.216363</ele>
        <time>2025-05-18T19:13:30.128Z</time>
      </trkpt>
      <trkpt lat="48.570587" lon="9.877186">
        <ele>577.449476</ele>
        <time>2025-05-18T19:13:39.465Z</time>
      </trkpt>
      <trkpt lat="48.570755" lon="9.877097">
        <ele>577.547738</ele>
        <time>2025-05-18T19:13:43.485Z</time>
      </trkpt>
      <trkpt lat="48.571234" lon="9.877035">
        <ele>578.008757</ele>
        <time>2025-05-18T19:13:54.491Z</time>
      </trkpt>
      <trkpt lat="48.571472" lon="9.876932">
        <ele>578.442616</ele>
        <time>2025-05-18T19:14:00.263Z</time>
      </trkpt>
      <trkpt lat="48.572692" lon="9.876530">
        <ele>580.630893</ele>
        <time>2025-05-18T19:14:29.676Z</time>
      </trkpt>
      <trkpt lat="48.572918" lon="9.876501">
        <ele>580.852841</ele>
        <time>2025-05-18T19:14:34.809Z</time>
      </trkpt>
      <trkpt lat="48.573366" lon="9.876323">
        <ele>580.733988</ele>
        <time>2025-05-18T19:14:44.839Z</time>
      </trkpt>
      <trkpt lat="48.573862" lon="9.876066">
        <ele>580.599453</ele>
        <time>2025-05-18T19:14:55.175Z</time>
      </trkpt>
      <trkpt lat="48.575455" lon="9.875067">
        <ele>579.917218</ele>
        <time>2025-05-18T19:15:29.109Z</time>
      </trkpt>
      <trkpt lat="48.575834" lon="9.874880">
        <ele>579.719447</ele>
        <time>2025-05-18T19:15:37.337Z</time>
      </trkpt>
      <trkpt lat="48.575997" lon="9.874747">
        <ele>579.627559</ele>
        <time>2025-05-18T19:15:41.211Z</time>
      </trkpt>
      <trkpt lat="48.576081" lon="9.874604">
        <ele>579.564797</ele>
        <time>2025-05-18T19:15:43.896Z</time>
      </trkpt>
      <trkpt lat="48.576135" lon="9.874432">
        <ele>579.526047</ele>
        <time>2025-05-18T19:15:46.549Z</time>
      </trkpt>
      <trkpt lat="48.576120" lon="9.874327">
        <ele>579.534337</ele>
        <time>2025-05-18T19:15:48.023Z</time>
      </trkpt>
      <trkpt lat="48.576142" lon="9.874222">
        <ele>579.542836</ele>
        <time>2025-05-18T19:15:49.549Z</time>
      </trkpt>
      <trkpt lat="48.576225" lon="9.874241">
        <ele>579.552627</ele>
        <time>2025-05-18T19:15:51.304Z</time>
      </trkpt>
      <trkpt lat="48.576331" lon="9.874183">
        <ele>579.565775</ele>
        <time>2025-05-18T19:15:53.679Z</time>
      </trkpt>
      <trkpt lat="48.576620" lon="9.873902">
        <ele>579.605855</ele>
        <time>2025-05-18T19:16:00.977Z</time>
      </trkpt>
      <trkpt lat="48.576688" lon="9.873879">
        <ele>579.613982</ele>
        <time>2025-05-18T19:16:02.451Z</time>
      </trkpt>
      <trkpt lat="48.576812" lon="9.873933">
        <ele>579.629033</ele>
        <time>2025-05-18T19:16:05.195Z</time>
      </trkpt>
      <trkpt lat="48.576850" lon="9.874014">
        <ele>579.636696</ele>
        <time>2025-05-18T19:16:06.570Z</time>
      </trkpt>
      <trkpt lat="48.576951" lon="9.874261">
        <ele>579.659103</ele>
        <time>2025-05-18T19:16:10.614Z</time>
      </trkpt>
      <trkpt lat="48.576969" lon="9.874462">
        <ele>579.674755</ele>
        <time>2025-05-18T19:16:13.429Z</time>
      </trkpt>
      <trkpt lat="48.576943" lon="9.874574">
        <ele>579.683914</ele>
        <time>2025-05-18T19:16:15.105Z</time>
      </trkpt>
      <trkpt lat="48.576894" lon="9.874647">
        <ele>579.691938</ele>
        <time>2025-05-18T19:16:16.565Z</time>
      </trkpt>
      <trkpt lat="48.576493" lon="9.874981">
        <ele>579.767732</ele>
        <time>2025-05-18T19:16:26.522Z</time>
      </trkpt>
      <trkpt lat="48.576443" lon="9.875134">
        <ele>579.801920</ele>
        <time>2025-05-18T19:16:29.003Z</time>
      </trkpt>
      <trkpt lat="48.576442" lon="9.875222">
        <ele>579.819553</ele>
        <time>2025-05-18T19:16:30.277Z</time>
      </trkpt>
      <trkpt lat="48.576483" lon="9.875548">
        <ele>579.886036</ele>
        <time>2025-05-18T19:16:35.102Z</time>
      </trkpt>
      <trkpt lat="48.576574" lon="9.875978">
        <ele>579.976484</ele>
        <time>2025-05-18T19:16:41.657Z</time>
      </trkpt>
      <trkpt lat="48.576642" lon="9.876380">
        <ele>580.059613</ele>
        <time>2025-05-18T19:16:47.783Z</time>
      </trkpt>
      <trkpt lat="48.576645" lon="9.876615">
        <ele>580.106703</ele>
        <time>2025-05-18T19:16:51.215Z</time>
      </trkpt>
      <trkpt lat="48.576615" lon="9.876750">
        <ele>580.135235</ele>
        <time>2025-05-18T19:16:53.302Z</time>
      </trkpt>
      <trkpt lat="48.576378" lon="9.877142">
        <ele>580.241622</ele>
        <time>2025-05-18T19:17:01.147Z</time>
      </trkpt>
      <trkpt lat="48.576067" lon="9.877186">
        <ele>580.339306</ele>
        <time>2025-05-18T19:17:07.905Z</time>
      </trkpt>
      <trkpt lat="48.575904" lon="9.877282">
        <ele>580.395003</ele>
        <time>2025-05-18T19:17:11.630Z</time>
      </trkpt>
      <trkpt lat="48.575690" lon="9.877621">
        <ele>580.493704</ele>
        <time>2025-05-18T19:17:18.049Z</time>
      </trkpt>
      <trkpt lat="48.575400" lon="9.878248">
        <ele>580.654856</ele>
        <time>2025-05-18T19:17:28.490Z</time>
      </trkpt>
      <trkpt lat="48.575176" lon="9.878766">
        <ele>580.785214</ele>
        <time>2025-05-18T19:17:37.522Z</time>
      </trkpt>
      <trkpt lat="48.575018" lon="9.879187">
        <ele>581.093984</ele>
        <time>2025-05-18T19:17:44.793Z</time>
      </trkpt>
      <trkpt lat="48.575226" lon="9.879478">
        <ele>581.668305</ele>
        <time>2025-05-18T19:17:51.317Z</time>
      </trkpt>
      <trkpt lat="48.575538" lon="9.879780">
        <ele>582.419048</ele>
        <time>2025-05-18T19:17:59.908Z</time>
      </trkpt>
      <trkpt lat="48.576076" lon="9.880150">
        <ele>583.616750</ele>
        <time>2025-05-18T19:18:13.901Z</time>
      </trkpt>
      <trkpt lat="48.576719" lon="9.880496">
        <ele>584.982174</ele>
        <time>2025-05-18T19:18:30.274Z</time>
      </trkpt>
      <trkpt lat="48.577302" lon="9.880917">
        <ele>586.245928</ele>
        <time>2025-05-18T19:18:45.649Z</time>
      </trkpt>
      <trkpt lat="48.577816" lon="9.881384">
        <ele>587.418917</ele>
        <time>2025-05-18T19:18:59.511Z</time>
      </trkpt>
      <trkpt lat="48.578653" lon="9.882367">
        <ele>588.532813</ele>
        <time>2025-05-18T19:19:23.254Z</time>
      </trkpt>
      <trkpt lat="48.580058" lon="9.884209">
        <ele>590.353185</ele>
        <time>2025-05-18T19:20:03.868Z</time>
      </trkpt>
      <trkpt lat="48.580498" lon="9.884922">
        <ele>591.222488</ele>
        <time>2025-05-18T19:20:18.762Z</time>
      </trkpt>
      <trkpt lat="48.581179" lon="9.886425">
        <ele>594.150211</ele>
        <time>2025-05-18T19:20:47.685Z</time>
      </trkpt>
      <trkpt lat="48.581780" lon="9.888048">
        <ele>597.661714</ele>
        <time>2025-05-18T19:21:17.700Z</time>
      </trkpt>
      <trkpt lat="48.581997" lon="9.888770">
        <ele>599.171361</ele>
        <time>2025-05-18T19:21:30.227Z</time>
      </trkpt>
      <trkpt lat="48.582154" lon="9.889437">
        <ele>600.519082</ele>
        <time>2025-05-18T19:21:41.356Z</time>
      </trkpt>
      <trkpt lat="48.582220" lon="9.889861">
        <ele>601.348277</ele>
        <time>2025-05-18T19:21:48.261Z</time>
      </trkpt>
      <trkpt lat="48.582280" lon="9.890515">
        <ele>602.895221</ele>
        <time>2025-05-18T19:21:58.948Z</time>
      </trkpt>
      <trkpt lat="48.582275" lon="9.891312">
        <ele>605.104322</ele>
        <time>2025-05-18T19:22:12.320Z</time>
      </trkpt>
      <trkpt lat="48.582158" lon="9.892551">
        <ele>608.573205</ele>
        <time>2025-05-18T19:22:34.028Z</time>
      </trkpt>
      <trkpt lat="48.582020" lon="9.893587">
        <ele>611.398771</ele>
        <time>2025-05-18T19:22:52.620Z</time>
      </trkpt>
      <trkpt lat="48.581893" lon="9.895059">
        <ele>615.300020</ele>
        <time>2025-05-18T19:23:17.324Z</time>
      </trkpt>
      <trkpt lat="48.581868" lon="9.895992">
        <ele>617.504207</ele>
        <time>2025-05-18T19:23:32.494Z</time>
      </trkpt>
      <trkpt lat="48.581889" lon="9.896605">
        <ele>618.752350</ele>
        <time>2025-05-18T19:23:42.312Z</time>
      </trkpt>
      <trkpt lat="48.581927" lon="9.897364">
        <ele>620.300112</ele>
        <time>2025-05-18T19:23:54.404Z</time>
      </trkpt>
      <trkpt lat="48.582109" lon="9.899553">
        <ele>625.153151</ele>
        <time>2025-05-18T19:24:30.126Z</time>
      </trkpt>
      <trkpt lat="48.582190" lon="9.900634">
        <ele>627.676565</ele>
        <time>2025-05-18T19:24:48.169Z</time>
      </trkpt>
      <trkpt lat="48.582218" lon="9.901501">
        <ele>629.847319</ele>
        <time>2025-05-18T19:25:02.595Z</time>
      </trkpt>
      <trkpt lat="48.582201" lon="9.902472">
        <ele>632.394530</ele>
        <time>2025-05-18T19:25:18.720Z</time>
      </trkpt>
      <trkpt lat="48.582119" lon="9.903464">
        <ele>635.016150</ele>
        <time>2025-05-18T19:25:35.465Z</time>
      </trkpt>
      <trkpt lat="48.582045" lon="9.903933">
        <ele>636.485679</ele>
        <time>2025-05-18T19:25:43.684Z</time>
      </trkpt>
      <trkpt lat="48.581771" lon="9.905185">
        <ele>641.009364</ele>
        <time>2025-05-18T19:26:06.901Z</time>
      </trkpt>
      <trkpt lat="48.581089" lon="9.907526">
        <ele>650.090621</ele>
        <time>2025-05-18T19:26:54.422Z</time>
      </trkpt>
      <trkpt lat="48.580982" lon="9.907806">
        <ele>651.270087</ele>
        <time>2025-05-18T19:27:00.494Z</time>
      </trkpt>
      <trkpt lat="48.580445" lon="9.908711">
        <ele>655.305866</ele>
        <time>2025-05-18T19:27:22.251Z</time>
      </trkpt>
      <trkpt lat="48.580363" lon="9.908896">
        <ele>655.735557</ele>
        <time>2025-05-18T19:27:26.036Z</time>
      </trkpt>
      <trkpt lat="48.580324" lon="9.909178">
        <ele>656.291467</ele>
        <time>2025-05-18T19:27:30.826Z</time>
      </trkpt>
      <trkpt lat="48.580345" lon="9.909377">
        <ele>656.680313</ele>
        <time>2025-05-18T19:27:34.100Z</time>
      </trkpt>
      <trkpt lat="48.580362" lon="9.909501">
        <ele>656.924667</ele>
        <time>2025-05-18T19:27:36.139Z</time>
      </trkpt>
      <trkpt lat="48.580378" lon="9.909605">
        <ele>657.130701</ele>
        <time>2025-05-18T19:27:37.822Z</time>
      </trkpt>
      <trkpt lat="48.580437" lon="9.909942">
        <ele>657.803361</ele>
        <time>2025-05-18T19:27:43.263Z</time>
      </trkpt>
      <trkpt lat="48.580542" lon="9.910491">
        <ele>658.906090</ele>
        <time>2025-05-18T19:27:52.009Z</time>
      </trkpt>
      <trkpt lat="48.580779" lon="9.911380">
        <ele>660.889026</ele>
        <time>2025-05-18T19:28:06.602Z</time>
      </trkpt>
      <trkpt lat="48.581046" lon="9.912195">
        <ele>663.003615</ele>
        <time>2025-05-18T19:28:21.090Z</time>
      </trkpt>
      <trkpt lat="48.581243" lon="9.912710">
        <ele>664.386806</ele>
        <time>2025-05-18T19:28:31.150Z</time>
      </trkpt>
      <trkpt lat="48.581348" lon="9.913055">
        <ele>665.269779</ele>
        <time>2025-05-18T19:28:37.770Z</time>
      </trkpt>
      <trkpt lat="48.581471" lon="9.913672">
        <ele>666.812719</ele>
        <time>2025-05-18T19:28:49.120Z</time>
      </trkpt>
      <trkpt lat="48.581566" lon="9.914146">
        <ele>668.114468</ele>
        <time>2025-05-18T19:28:57.732Z</time>
      </trkpt>
      <trkpt lat="48.581624" lon="9.914467">
        <ele>668.989066</ele>
        <time>2025-05-18T19:29:03.463Z</time>
      </trkpt>
      <trkpt lat="48.581682" lon="9.914749">
        <ele>669.765249</ele>
        <time>2025-05-18T19:29:08.609Z</time>
      </trkpt>
      <trkpt lat="48.581808" lon="9.915210">
        <ele>671.076245</ele>
        <time>2025-05-18T19:29:17.057Z</time>
      </trkpt>
      <trkpt lat="48.581894" lon="9.915519">
        <ele>671.957342</ele>
        <time>2025-05-18T19:29:22.566Z</time>
      </trkpt>
      <trkpt lat="48.581924" lon="9.915722">
        <ele>672.504041</ele>
        <time>2025-05-18T19:29:25.935Z</time>
      </trkpt>
      <trkpt lat="48.581998" lon="9.915752">
        <ele>672.808431</ele>
        <time>2025-05-18T19:29:27.815Z</time>
      </trkpt>
      <trkpt lat="48.582052" lon="9.915773">
        <ele>673.029958</ele>
        <time>2025-05-18T19:29:29.153Z</time>
      </trkpt>
      <trkpt lat="48.582363" lon="9.915897">
        <ele>673.944348</ele>
        <time>2025-05-18T19:29:36.873Z</time>
      </trkpt>
      <trkpt lat="48.583199" lon="9.916405">
        <ele>675.756338</ele>
        <time>2025-05-18T19:29:58.106Z</time>
      </trkpt>
      <trkpt lat="48.583544" lon="9.916713">
        <ele>676.562112</ele>
        <time>2025-05-18T19:30:07.255Z</time>
      </trkpt>
      <trkpt lat="48.583636" lon="9.916738">
        <ele>676.750094</ele>
        <time>2025-05-18T19:30:09.386Z</time>
      </trkpt>
      <trkpt lat="48.583952" lon="9.917286">
        <ele>677.679546</ele>
        <time>2025-05-18T19:30:20.268Z</time>
      </trkpt>
      <trkpt lat="48.584007" lon="9.917298">
        <ele>677.783329</ele>
        <time>2025-05-18T19:30:21.542Z</time>
      </trkpt>
      <trkpt lat="48.584222" lon="9.917540">
        <ele>678.283950</ele>
        <time>2025-05-18T19:30:27.672Z</time>
      </trkpt>
      <trkpt lat="48.584401" lon="9.917690">
        <ele>678.666181</ele>
        <time>2025-05-18T19:30:32.437Z</time>
      </trkpt>
      <trkpt lat="48.584585" lon="9.917792">
        <ele>679.032199</ele>
        <time>2025-05-18T19:30:37.010Z</time>
      </trkpt>
      <trkpt lat="48.585073" lon="9.917981">
        <ele>679.973029</ele>
        <time>2025-05-18T19:30:48.804Z</time>
      </trkpt>
      <trkpt lat="48.585566" lon="9.918173">
        <ele>680.966583</ele>
        <time>2025-05-18T19:31:00.899Z</time>
      </trkpt>
      <trkpt lat="48.585881" lon="9.918331">
        <ele>681.656958</ele>
        <time>2025-05-18T19:31:08.857Z</time>
      </trkpt>
      <trkpt lat="48.586158" lon="9.918515">
        <ele>682.286332</ele>
        <time>2025-05-18T19:31:16.060Z</time>
      </trkpt>
      <trkpt lat="48.586408" lon="9.918753">
        <ele>682.900895</ele>
        <time>2025-05-18T19:31:23.003Z</time>
      </trkpt>
      <trkpt lat="48.586590" lon="9.918985">
        <ele>683.396110</ele>
        <time>2025-05-18T19:31:28.563Z</time>
      </trkpt>
      <trkpt lat="48.587021" lon="9.919653">
        <ele>684.404949</ele>
        <time>2025-05-18T19:31:42.720Z</time>
      </trkpt>
      <trkpt lat="48.587205" lon="9.919894">
        <ele>684.554575</ele>
        <time>2025-05-18T19:31:48.245Z</time>
      </trkpt>
      <trkpt lat="48.587402" lon="9.920078">
        <ele>684.696895</ele>
        <time>2025-05-18T19:31:53.443Z</time>
      </trkpt>
      <trkpt lat="48.587650" lon="9.920253">
        <ele>684.865102</ele>
        <time>2025-05-18T19:31:59.570Z</time>
      </trkpt>
      <trkpt lat="48.588119" lon="9.920391">
        <ele>685.158757</ele>
        <time>2025-05-18T19:32:10.036Z</time>
      </trkpt>
      <trkpt lat="48.588599" lon="9.920344">
        <ele>685.293600</ele>
        <time>2025-05-18T19:32:20.045Z</time>
      </trkpt>
      <trkpt lat="48.588758" lon="9.920228">
        <ele>685.108316</ele>
        <time>2025-05-18T19:32:23.610Z</time>
      </trkpt>
      <trkpt lat="48.588788" lon="9.920364">
        <ele>685.008794</ele>
        <time>2025-05-18T19:32:25.493Z</time>
      </trkpt>
      <trkpt lat="48.590228" lon="9.919553">
        <ele>683.381247</ele>
        <time>2025-05-18T19:32:54.481Z</time>
      </trkpt>
      <trkpt lat="48.591386" lon="9.918978">
        <ele>681.931679</ele>
        <time>2025-05-18T19:33:16.764Z</time>
      </trkpt>
      <trkpt lat="48.592292" lon="9.918645">
        <ele>682.352250</ele>
        <time>2025-05-18T19:33:35.130Z</time>
      </trkpt>
      <trkpt lat="48.592341" lon="9.918627">
        <ele>682.460442</ele>
        <time>2025-05-18T19:33:36.256Z</time>
      </trkpt>
      <trkpt lat="48.592901" lon="9.918458">
        <ele>683.685667</ele>
        <time>2025-05-18T19:33:49.495Z</time>
      </trkpt>
      <trkpt lat="48.593221" lon="9.918356">
        <ele>684.387344</ele>
        <time>2025-05-18T19:33:57.743Z</time>
      </trkpt>
      <trkpt lat="48.593477" lon="9.918236">
        <ele>684.962404</ele>
        <time>2025-05-18T19:34:05.020Z</time>
      </trkpt>
      <trkpt lat="48.593555" lon="9.918142">
        <ele>685.176417</ele>
        <time>2025-05-18T19:34:07.773Z</time>
      </trkpt>
      <trkpt lat="48.593737" lon="9.917730">
        <ele>685.452704</ele>
        <time>2025-05-18T19:34:16.700Z</time>
      </trkpt>
      <trkpt lat="48.593854" lon="9.917622">
        <ele>685.554336</ele>
        <time>2025-05-18T19:34:20.329Z</time>
      </trkpt>
      <trkpt lat="48.594137" lon="9.917550">
        <ele>685.767100</ele>
        <time>2025-05-18T19:34:27.476Z</time>
      </trkpt>
      <trkpt lat="48.594390" lon="9.917549">
        <ele>685.954673</ele>
        <time>2025-05-18T19:34:33.247Z</time>
      </trkpt>
      <trkpt lat="48.594422" lon="9.917549">
        <ele>685.978398</ele>
        <time>2025-05-18T19:34:33.899Z</time>
      </trkpt>
      <trkpt lat="48.594651" lon="9.917552">
        <ele>686.148184</ele>
        <time>2025-05-18T19:34:38.542Z</time>
      </trkpt>
      <trkpt lat="48.594795" lon="9.917487">
        <ele>686.259600</ele>
        <time>2025-05-18T19:34:41.363Z</time>
      </trkpt>
      <trkpt lat="48.594931" lon="9.917302">
        <ele>686.395231</ele>
        <time>2025-05-18T19:34:44.523Z</time>
      </trkpt>
      <trkpt lat="48.595011" lon="9.917363">
        <ele>686.461657</ele>
        <time>2025-05-18T19:34:46.058Z</time>
      </trkpt>
      <trkpt lat="48.595242" lon="9.917430">
        <ele>685.957651</ele>
        <time>2025-05-18T19:34:49.894Z</time>
      </trkpt>
      <trkpt lat="48.595266" lon="9.917436">
        <ele>685.812929</ele>
        <time>2025-05-18T19:34:50.265Z</time>
      </trkpt>
      <trkpt lat="48.595303" lon="9.917441">
        <ele>685.591927</ele>
        <time>2025-05-18T19:34:50.851Z</time>
      </trkpt>
      <trkpt lat="48.595443" lon="9.917457">
        <ele>684.756648</ele>
        <time>2025-05-18T19:34:53.012Z</time>
      </trkpt>
      <trkpt lat="48.595748" lon="9.917493">
        <ele>682.936590</ele>
        <time>2025-05-18T19:34:57.615Z</time>
      </trkpt>
      <trkpt lat="48.597712" lon="9.918640">
        <ele>672.637310</ele>
        <time>2025-05-18T19:35:28.097Z</time>
      </trkpt>
      <trkpt lat="48.599340" lon="9.918864">
        <ele>669.949127</ele>
        <time>2025-05-18T19:36:01.266Z</time>
      </trkpt>
      <trkpt lat="48.599905" lon="9.918905">
        <ele>670.263259</ele>
        <time>2025-05-18T19:36:14.053Z</time>
      </trkpt>
      <trkpt lat="48.600179" lon="9.918872">
        <ele>670.415905</ele>
        <time>2025-05-18T19:36:20.291Z</time>
      </trkpt>
      <trkpt lat="48.602099" lon="9.918370">
        <ele>673.072091</ele>
        <time>2025-05-18T19:37:05.077Z</time>
      </trkpt>
      <trkpt lat="48.603973" lon="9.917460">
        <ele>676.066423</ele>
        <time>2025-05-18T19:37:50.022Z</time>
      </trkpt>
      <trkpt lat="48.603991" lon="9.917864">
        <ele>676.659307</ele>
        <time>2025-05-18T19:37:58.995Z</time>
      </trkpt>
      <trkpt lat="48.604145" lon="9.918605">
        <ele>677.796613</ele>
        <time>2025-05-18T19:38:16.222Z</time>
      </trkpt>
      <trkpt lat="48.604206" lon="9.918781">
        <ele>678.087567</ele>
        <time>2025-05-18T19:38:20.607Z</time>
      </trkpt>
      <trkpt lat="48.604293" lon="9.918819">
        <ele>678.288084</ele>
        <time>2025-05-18T19:38:23.672Z</time>
      </trkpt>
      <trkpt lat="48.606200" lon="9.918805">
        <ele>681.805416</ele>
        <time>2025-05-18T19:39:27.562Z</time>
      </trkpt>
      <trkpt lat="48.608338" lon="9.918722">
        <ele>683.516288</ele>
        <time>2025-05-18T19:40:41.033Z</time>
      </trkpt>
      <trkpt lat="48.610119" lon="9.915045">
        <ele>684.649924</ele>
        <time>2025-05-18T19:42:25.035Z</time>
      </trkpt>
      <trkpt lat="48.610262" lon="9.914701">
        <ele>684.789641</ele>
        <time>2025-05-18T19:42:34.178Z</time>
      </trkpt>
      <trkpt lat="48.610420" lon="9.913386">
        <ele>685.218940</ele>
        <time>2025-05-18T19:43:04.379Z</time>
      </trkpt>
      <trkpt lat="48.610736" lon="9.912784">
        <ele>685.437369</ele>
        <time>2025-05-18T19:43:21.791Z</time>
      </trkpt>
      <trkpt lat="48.610763" lon="9.912379">
        <ele>685.553042</ele>
        <time>2025-05-18T19:43:31.074Z</time>
      </trkpt>
      <trkpt lat="48.610835" lon="9.912144">
        <ele>685.626644</ele>
        <time>2025-05-18T19:43:36.995Z</time>
      </trkpt>
      <trkpt lat="48.611153" lon="9.912144">
        <ele>685.763320</ele>
        <time>2025-05-18T19:43:43.669Z</time>
      </trkpt>
      <trkpt lat="48.611449" lon="9.912061">
        <ele>685.807878</ele>
        <time>2025-05-18T19:43:50.223Z</time>
      </trkpt>
      <trkpt lat="48.611521" lon="9.912025">
        <ele>685.778791</ele>
        <time>2025-05-18T19:43:51.855Z</time>
      </trkpt>
      <trkpt lat="48.612086" lon="9.911719">
        <ele>685.548606</ele>
        <time>2025-05-18T19:44:04.564Z</time>
      </trkpt>
      <trkpt lat="48.612284" lon="9.911639">
        <ele>685.469998</ele>
        <time>2025-05-18T19:44:08.774Z</time>
      </trkpt>
      <trkpt lat="48.612428" lon="9.911622">
        <ele>685.414598</ele>
        <time>2025-05-18T19:44:11.687Z</time>
      </trkpt>
      <trkpt lat="48.612560" lon="9.911656">
        <ele>685.363239</ele>
        <time>2025-05-18T19:44:14.333Z</time>
      </trkpt>
      <trkpt lat="48.612693" lon="9.911691">
        <ele>685.311459</ele>
        <time>2025-05-18T19:44:16.943Z</time>
      </trkpt>
      <trkpt lat="48.612877" lon="9.911800">
        <ele>685.235664</ele>
        <time>2025-05-18T19:44:20.731Z</time>
      </trkpt>
      <trkpt lat="48.612920" lon="9.911836">
        <ele>685.216813</ele>
        <time>2025-05-18T19:44:21.681Z</time>
      </trkpt>
      <trkpt lat="48.613217" lon="9.912133">
        <ele>684.923308</ele>
        <time>2025-05-18T19:44:28.764Z</time>
      </trkpt>
      <trkpt lat="48.613443" lon="9.912459">
        <ele>684.561717</ele>
        <time>2025-05-18T19:44:34.781Z</time>
      </trkpt>
      <trkpt lat="48.613643" lon="9.912909">
        <ele>684.146647</ele>
        <time>2025-05-18T19:44:41.631Z</time>
      </trkpt>
      <trkpt lat="48.613944" lon="9.912552">
        <ele>683.703769</ele>
        <time>2025-05-18T19:44:49.451Z</time>
      </trkpt>
      <trkpt lat="48.614631" lon="9.912026">
        <ele>682.683182</ele>
        <time>2025-05-18T19:45:04.492Z</time>
      </trkpt>
      <trkpt lat="48.615094" lon="9.911713">
        <ele>681.808117</ele>
        <time>2025-05-18T19:45:13.736Z</time>
      </trkpt>
      <trkpt lat="48.615256" lon="9.911646">
        <ele>681.518326</ele>
        <time>2025-05-18T19:45:16.754Z</time>
      </trkpt>
      <trkpt lat="48.615562" lon="9.911672">
        <ele>680.989492</ele>
        <time>2025-05-18T19:45:22.336Z</time>
      </trkpt>
      <trkpt lat="48.615871" lon="9.911647">
        <ele>680.455551</ele>
        <time>2025-05-18T19:45:28.063Z</time>
      </trkpt>
      <trkpt lat="48.616065" lon="9.913214">
        <ele>680.053862</ele>
        <time>2025-05-18T19:45:49.247Z</time>
      </trkpt>
      <trkpt lat="48.616079" lon="9.913300">
        <ele>680.060066</ele>
        <time>2025-05-18T19:45:50.500Z</time>
      </trkpt>
      <trkpt lat="48.616086" lon="9.913340">
        <ele>680.062964</ele>
        <time>2025-05-18T19:45:51.113Z</time>
      </trkpt>
      <trkpt lat="48.616120" lon="9.913586">
        <ele>680.080566</ele>
        <time>2025-05-18T19:45:54.877Z</time>
      </trkpt>
      <trkpt lat="48.616132" lon="9.913669">
        <ele>680.086517</ele>
        <time>2025-05-18T19:45:56.161Z</time>
      </trkpt>
      <trkpt lat="48.616149" lon="9.913777">
        <ele>680.094293</ele>
        <time>2025-05-18T19:45:57.813Z</time>
      </trkpt>
      <trkpt lat="48.616160" lon="9.913848">
        <ele>680.099400</ele>
        <time>2025-05-18T19:45:58.941Z</time>
      </trkpt>
      <trkpt lat="48.616170" lon="9.913913">
        <ele>680.104074</ele>
        <time>2025-05-18T19:45:59.959Z</time>
      </trkpt>
      <trkpt lat="48.616190" lon="9.914013">
        <ele>680.111392</ele>
        <time>2025-05-18T19:46:01.539Z</time>
      </trkpt>
      <trkpt lat="48.616287" lon="9.914518">
        <ele>680.148224</ele>
        <time>2025-05-18T19:46:09.726Z</time>
      </trkpt>
      <trkpt lat="48.616299" lon="9.914654">
        <ele>680.157834</ele>
        <time>2025-05-18T19:46:11.845Z</time>
      </trkpt>
      <trkpt lat="48.616587" lon="9.914368">
        <ele>680.876471</ele>
        <time>2025-05-18T19:46:19.880Z</time>
      </trkpt>
      <trkpt lat="48.616741" lon="9.914291">
        <ele>681.261328</ele>
        <time>2025-05-18T19:46:23.690Z</time>
      </trkpt>
      <trkpt lat="48.616876" lon="9.914224">
        <ele>681.598457</ele>
        <time>2025-05-18T19:46:27.038Z</time>
      </trkpt>
      <trkpt lat="48.617037" lon="9.914167">
        <ele>681.990802</ele>
        <time>2025-05-18T19:46:31.053Z</time>
      </trkpt>
      <trkpt lat="48.617204" lon="9.914111">
        <ele>682.396679</ele>
        <time>2025-05-18T19:46:35.237Z</time>
      </trkpt>
      <trkpt lat="48.618192" lon="9.913927">
        <ele>684.464156</ele>
        <time>2025-05-18T19:46:59.377Z</time>
      </trkpt>
      <trkpt lat="48.619279" lon="9.913700">
        <ele>684.732754</ele>
        <time>2025-05-18T19:47:23.618Z</time>
      </trkpt>
      <trkpt lat="48.620231" lon="9.913418">
        <ele>684.247310</ele>
        <time>2025-05-18T19:47:41.139Z</time>
      </trkpt>
      <trkpt lat="48.621410" lon="9.913069">
        <ele>682.408412</ele>
        <time>2025-05-18T19:48:02.096Z</time>
      </trkpt>
      <trkpt lat="48.621412" lon="9.913068">
        <ele>682.405188</ele>
        <time>2025-05-18T19:48:02.142Z</time>
      </trkpt>
      <trkpt lat="48.621746" lon="9.913031">
        <ele>682.187237</ele>
        <time>2025-05-18T19:48:08.926Z</time>
      </trkpt>
      <trkpt lat="48.621983" lon="9.913095">
        <ele>682.301712</ele>
        <time>2025-05-18T19:48:14.174Z</time>
      </trkpt>
      <trkpt lat="48.622215" lon="9.913212">
        <ele>682.417997</ele>
        <time>2025-05-18T19:48:19.696Z</time>
      </trkpt>
      <trkpt lat="48.622529" lon="9.913434">
        <ele>682.582806</ele>
        <time>2025-05-18T19:48:27.695Z</time>
      </trkpt>
      <trkpt lat="48.622871" lon="9.913621">
        <ele>682.755724</ele>
        <time>2025-05-18T19:48:36.039Z</time>
      </trkpt>
      <trkpt lat="48.623128" lon="9.913695">
        <ele>682.880123</ele>
        <time>2025-05-18T19:48:41.964Z</time>
      </trkpt>
      <trkpt lat="48.623444" lon="9.913711">
        <ele>682.770782</ele>
        <time>2025-05-18T19:48:48.972Z</time>
      </trkpt>
      <trkpt lat="48.624934" lon="9.913374">
        <ele>680.269136</ele>
        <time>2025-05-18T19:49:15.391Z</time>
      </trkpt>
      <trkpt lat="48.625386" lon="9.913211">
        <ele>679.629894</ele>
        <time>2025-05-18T19:49:23.082Z</time>
      </trkpt>
      <trkpt lat="48.625761" lon="9.913062">
        <ele>679.160513</ele>
        <time>2025-05-18T19:49:29.725Z</time>
      </trkpt>
      <trkpt lat="48.627063" lon="9.912412">
        <ele>677.673892</ele>
        <time>2025-05-18T19:49:57.379Z</time>
      </trkpt>
      <trkpt lat="48.627613" lon="9.912179">
        <ele>677.371506</ele>
        <time>2025-05-18T19:50:09.670Z</time>
      </trkpt>
      <trkpt lat="48.628027" lon="9.912053">
        <ele>677.147931</ele>
        <time>2025-05-18T19:50:18.333Z</time>
      </trkpt>
      <trkpt lat="48.628608" lon="9.911936">
        <ele>676.798792</ele>
        <time>2025-05-18T19:50:29.744Z</time>
      </trkpt>
      <trkpt lat="48.629856" lon="9.911876">
        <ele>674.760677</ele>
        <time>2025-05-18T19:50:52.078Z</time>
      </trkpt>
      <trkpt lat="48.632013" lon="9.911692">
        <ele>671.379427</ele>
        <time>2025-05-18T19:51:30.927Z</time>
      </trkpt>
      <trkpt lat="48.632524" lon="9.911627">
        <ele>671.042985</ele>
        <time>2025-05-18T19:51:41.038Z</time>
      </trkpt>
      <trkpt lat="48.633058" lon="9.911513">
        <ele>670.892848</ele>
        <time>2025-05-18T19:51:52.023Z</time>
      </trkpt>
      <trkpt lat="48.633505" lon="9.911333">
        <ele>670.764073</ele>
        <time>2025-05-18T19:52:01.836Z</time>
      </trkpt>
      <trkpt lat="48.634029" lon="9.911126">
        <ele>670.601189</ele>
        <time>2025-05-18T19:52:13.643Z</time>
      </trkpt>
      <trkpt lat="48.634963" lon="9.910821">
        <ele>670.224463</ele>
        <time>2025-05-18T19:52:34.129Z</time>
      </trkpt>
      <trkpt lat="48.635099" lon="9.910810">
        <ele>670.170766</ele>
        <time>2025-05-18T19:52:36.963Z</time>
      </trkpt>
      <trkpt lat="48.636104" lon="9.910651">
        <ele>669.076252</ele>
        <time>2025-05-18T19:52:55.866Z</time>
      </trkpt>
      <trkpt lat="48.636670" lon="9.910640">
        <ele>667.887487</ele>
        <time>2025-05-18T19:53:05.299Z</time>
      </trkpt>
      <trkpt lat="48.636916" lon="9.910679">
        <ele>667.368031</ele>
        <time>2025-05-18T19:53:09.377Z</time>
      </trkpt>
      <trkpt lat="48.637693" lon="9.910912">
        <ele>666.179531</ele>
        <time>2025-05-18T19:53:23.138Z</time>
      </trkpt>
      <trkpt lat="48.637917" lon="9.911015">
        <ele>666.205277</ele>
        <time>2025-05-18T19:53:27.738Z</time>
      </trkpt>
      <trkpt lat="48.638163" lon="9.911128">
        <ele>666.233549</ele>
        <time>2025-05-18T19:53:33.073Z</time>
      </trkpt>
      <trkpt lat="48.638548" lon="9.911385">
        <ele>666.279824</ele>
        <time>2025-05-18T19:53:42.310Z</time>
      </trkpt>
      <trkpt lat="48.638949" lon="9.911743">
        <ele>666.331025</ele>
        <time>2025-05-18T19:53:52.969Z</time>
      </trkpt>
      <trkpt lat="48.639289" lon="9.912150">
        <ele>666.509291</ele>
        <time>2025-05-18T19:54:02.899Z</time>
      </trkpt>
      <trkpt lat="48.639521" lon="9.912487">
        <ele>666.729358</ele>
        <time>2025-05-18T19:54:10.195Z</time>
      </trkpt>
      <trkpt lat="48.639750" lon="9.912880">
        <ele>666.966298</ele>
        <time>2025-05-18T19:54:17.986Z</time>
      </trkpt>
      <trkpt lat="48.640065" lon="9.913528">
        <ele>667.330071</ele>
        <time>2025-05-18T19:54:29.675Z</time>
      </trkpt>
      <trkpt lat="48.640453" lon="9.914528">
        <ele>667.441678</ele>
        <time>2025-05-18T19:54:45.636Z</time>
      </trkpt>
      <trkpt lat="48.640580" lon="9.915010">
        <ele>667.317460</ele>
        <time>2025-05-18T19:54:52.626Z</time>
      </trkpt>
      <trkpt lat="48.641127" lon="9.917723">
        <ele>666.095663</ele>
        <time>2025-05-18T19:55:30.313Z</time>
      </trkpt>
      <trkpt lat="48.641456" lon="9.917691">
        <ele>665.756101</ele>
        <time>2025-05-18T19:55:37.101Z</time>
      </trkpt>
      <trkpt lat="48.642498" lon="9.917469">
        <ele>664.192317</ele>
        <time>2025-05-18T19:55:57.149Z</time>
      </trkpt>
      <trkpt lat="48.643147" lon="9.917371">
        <ele>662.730492</ele>
        <time>2025-05-18T19:56:08.929Z</time>
      </trkpt>
      <trkpt lat="48.643585" lon="9.917355">
        <ele>661.748517</ele>
        <time>2025-05-18T19:56:16.735Z</time>
      </trkpt>
      <trkpt lat="48.644173" lon="9.917439">
        <ele>660.102102</ele>
        <time>2025-05-18T19:56:27.134Z</time>
      </trkpt>
      <trkpt lat="48.645421" lon="9.917775">
        <ele>655.792675</ele>
        <time>2025-05-18T19:56:48.689Z</time>
      </trkpt>
      <trkpt lat="48.646431" lon="9.918049">
        <ele>652.085946</ele>
        <time>2025-05-18T19:57:05.270Z</time>
      </trkpt>
      <trkpt lat="48.646931" lon="9.918134">
        <ele>650.233419</ele>
        <time>2025-05-18T19:57:13.577Z</time>
      </trkpt>
      <trkpt lat="48.647411" lon="9.918136">
        <ele>648.466099</ele>
        <time>2025-05-18T19:57:21.827Z</time>
      </trkpt>
      <trkpt lat="48.648261" lon="9.918022">
        <ele>646.688794</ele>
        <time>2025-05-18T19:57:37.726Z</time>
      </trkpt>
      <trkpt lat="48.648954" lon="9.917881">
        <ele>645.290180</ele>
        <time>2025-05-18T19:57:51.361Z</time>
      </trkpt>
      <trkpt lat="48.649573" lon="9.917879">
        <ele>643.348662</ele>
        <time>2025-05-18T19:58:02.591Z</time>
      </trkpt>
      <trkpt lat="48.650280" lon="9.918091">
        <ele>640.375541</ele>
        <time>2025-05-18T19:58:14.564Z</time>
      </trkpt>
      <trkpt lat="48.650585" lon="9.918106">
        <ele>639.116722</ele>
        <time>2025-05-18T19:58:19.403Z</time>
      </trkpt>
      <trkpt lat="48.651617" lon="9.917757">
        <ele>633.590318</ele>
        <time>2025-05-18T19:58:35.689Z</time>
      </trkpt>
      <trkpt lat="48.652373" lon="9.917509">
        <ele>628.936541</ele>
        <time>2025-05-18T19:58:47.534Z</time>
      </trkpt>
      <trkpt lat="48.652658" lon="9.917499">
        <ele>627.221482</ele>
        <time>2025-05-18T19:58:51.942Z</time>
      </trkpt>
      <trkpt lat="48.652892" lon="9.917713">
        <ele>625.929420</ele>
        <time>2025-05-18T19:58:56.125Z</time>
      </trkpt>
      <trkpt lat="48.653067" lon="9.918001">
        <ele>624.985740</ele>
        <time>2025-05-18T19:59:00.059Z</time>
      </trkpt>
      <trkpt lat="48.653274" lon="9.918657">
        <ele>623.232500</ele>
        <time>2025-05-18T19:59:07.522Z</time>
      </trkpt>
      <trkpt lat="48.653320" lon="9.918833">
        <ele>622.776043</ele>
        <time>2025-05-18T19:59:09.554Z</time>
      </trkpt>
      <trkpt lat="48.653492" lon="9.919502">
        <ele>621.044793</ele>
        <time>2025-05-18T19:59:17.811Z</time>
      </trkpt>
      <trkpt lat="48.653626" lon="9.920047">
        <ele>620.247187</ele>
        <time>2025-05-18T19:59:25.779Z</time>
      </trkpt>
      <trkpt lat="48.653806" lon="9.920668">
        <ele>622.341021</ele>
        <time>2025-05-18T19:59:36.501Z</time>
      </trkpt>
      <trkpt lat="48.653985" lon="9.921104">
        <ele>623.925989</ele>
        <time>2025-05-18T19:59:45.635Z</time>
      </trkpt>
      <trkpt lat="48.654080" lon="9.921244">
        <ele>624.545664</ele>
        <time>2025-05-18T19:59:49.511Z</time>
      </trkpt>
      <trkpt lat="48.654335" lon="9.921472">
        <ele>625.929866</ele>
        <time>2025-05-18T19:59:58.605Z</time>
      </trkpt>
      <trkpt lat="48.654493" lon="9.921568">
        <ele>626.725597</ele>
        <time>2025-05-18T20:00:03.931Z</time>
      </trkpt>
      <trkpt lat="48.654661" lon="9.921609">
        <ele>627.520941</ele>
        <time>2025-05-18T20:00:09.315Z</time>
      </trkpt>
      <trkpt lat="48.654978" lon="9.921513">
        <ele>629.454060</ele>
        <time>2025-05-18T20:00:19.633Z</time>
      </trkpt>
      <trkpt lat="48.655167" lon="9.921374">
        <ele>631.013800</ele>
        <time>2025-05-18T20:00:26.392Z</time>
      </trkpt>
      <trkpt lat="48.655805" lon="9.920500">
        <ele>637.400882</ele>
        <time>2025-05-18T20:00:53.670Z</time>
      </trkpt>
      <trkpt lat="48.655996" lon="9.920285">
        <ele>639.167665</ele>
        <time>2025-05-18T20:01:01.083Z</time>
      </trkpt>
      <trkpt lat="48.656193" lon="9.920143">
        <ele>640.787290</ele>
        <time>2025-05-18T20:01:07.808Z</time>
      </trkpt>
      <trkpt lat="48.656382" lon="9.920059">
        <ele>642.113978</ele>
        <time>2025-05-18T20:01:13.844Z</time>
      </trkpt>
      <trkpt lat="48.656750" lon="9.920007">
        <ele>644.221181</ele>
        <time>2025-05-18T20:01:25.138Z</time>
      </trkpt>
      <trkpt lat="48.657015" lon="9.920027">
        <ele>645.733905</ele>
        <time>2025-05-18T20:01:33.055Z</time>
      </trkpt>
      <trkpt lat="48.657675" lon="9.920180">
        <ele>649.540632</ele>
        <time>2025-05-18T20:01:52.090Z</time>
      </trkpt>
      <trkpt lat="48.658228" lon="9.920201">
        <ele>652.155922</ele>
        <time>2025-05-18T20:02:06.645Z</time>
      </trkpt>
      <trkpt lat="48.658800" lon="9.920177">
        <ele>653.149706</ele>
        <time>2025-05-18T20:02:20.674Z</time>
      </trkpt>
      <trkpt lat="48.659250" lon="9.920218">
        <ele>653.932644</ele>
        <time>2025-05-18T20:02:31.172Z</time>
      </trkpt>
      <trkpt lat="48.659424" lon="9.920286">
        <ele>654.244739</ele>
        <time>2025-05-18T20:02:35.207Z</time>
      </trkpt>
      <trkpt lat="48.659580" lon="9.920388">
        <ele>654.539855</ele>
        <time>2025-05-18T20:02:39.015Z</time>
      </trkpt>
      <trkpt lat="48.659966" lon="9.920715">
        <ele>655.159699</ele>
        <time>2025-05-18T20:02:48.842Z</time>
      </trkpt>
      <trkpt lat="48.660373" lon="9.921073">
        <ele>655.518335</ele>
        <time>2025-05-18T20:02:59.396Z</time>
      </trkpt>
      <trkpt lat="48.660549" lon="9.921183">
        <ele>655.663409</ele>
        <time>2025-05-18T20:03:03.691Z</time>
      </trkpt>
      <trkpt lat="48.660704" lon="9.921240">
        <ele>655.784938</ele>
        <time>2025-05-18T20:03:07.320Z</time>
      </trkpt>
      <trkpt lat="48.661389" lon="9.921340">
        <ele>656.309266</ele>
        <time>2025-05-18T20:03:23.374Z</time>
      </trkpt>
      <trkpt lat="48.661538" lon="9.921361">
        <ele>656.431311</ele>
        <time>2025-05-18T20:03:26.912Z</time>
      </trkpt>
      <trkpt lat="48.661657" lon="9.920792">
        <ele>656.995926</ele>
        <time>2025-05-18T20:03:36.031Z</time>
      </trkpt>
      <trkpt lat="48.661964" lon="9.919255">
        <ele>658.514958</ele>
        <time>2025-05-18T20:04:00.363Z</time>
      </trkpt>
      <trkpt lat="48.662416" lon="9.918095">
        <ele>660.041078</ele>
        <time>2025-05-18T20:04:20.613Z</time>
      </trkpt>
      <trkpt lat="48.662510" lon="9.917783">
        <ele>660.467842</ele>
        <time>2025-05-18T20:04:25.781Z</time>
      </trkpt>
      <trkpt lat="48.662721" lon="9.916857">
        <ele>661.686873</ele>
        <time>2025-05-18T20:04:40.764Z</time>
      </trkpt>
      <trkpt lat="48.662855" lon="9.916270">
        <ele>662.527513</ele>
        <time>2025-05-18T20:04:50.562Z</time>
      </trkpt>
      <trkpt lat="48.662975" lon="9.915883">
        <ele>663.506718</ele>
        <time>2025-05-18T20:04:57.546Z</time>
      </trkpt>
      <trkpt lat="48.663258" lon="9.915080">
        <ele>665.591352</ele>
        <time>2025-05-18T20:05:12.797Z</time>
      </trkpt>
      <trkpt lat="48.663514" lon="9.914435">
        <ele>667.314864</ele>
        <time>2025-05-18T20:05:25.445Z</time>
      </trkpt>
      <trkpt lat="48.663854" lon="9.913581">
        <ele>668.772573</ele>
        <time>2025-05-18T20:05:41.618Z</time>
      </trkpt>
      <trkpt lat="48.664108" lon="9.912942">
        <ele>669.044112</ele>
        <time>2025-05-18T20:05:53.031Z</time>
      </trkpt>
      <trkpt lat="48.664206" lon="9.912764">
        <ele>669.128483</ele>
        <time>2025-05-18T20:05:56.431Z</time>
      </trkpt>
      <trkpt lat="48.664400" lon="9.912605">
        <ele>669.250090</ele>
        <time>2025-05-18T20:06:01.166Z</time>
      </trkpt>
      <trkpt lat="48.664761" lon="9.912440">
        <ele>669.457964</ele>
        <time>2025-05-18T20:06:08.539Z</time>
      </trkpt>
      <trkpt lat="48.664854" lon="9.912593">
        <ele>669.533669</ele>
        <time>2025-05-18T20:06:11.040Z</time>
      </trkpt>
      <trkpt lat="48.665024" lon="9.912853">
        <ele>669.317234</ele>
        <time>2025-05-18T20:06:15.297Z</time>
      </trkpt>
      <trkpt lat="48.665360" lon="9.913273">
        <ele>668.132522</ele>
        <time>2025-05-18T20:06:22.542Z</time>
      </trkpt>
      <trkpt lat="48.665800" lon="9.913699">
        <ele>666.712464</ele>
        <time>2025-05-18T20:06:30.925Z</time>
      </trkpt>
      <trkpt lat="48.666003" lon="9.913849">
        <ele>666.098277</ele>
        <time>2025-05-18T20:06:34.518Z</time>
      </trkpt>
      <trkpt lat="48.665980" lon="9.913987">
        <ele>665.842690</ele>
        <time>2025-05-18T20:06:36.024Z</time>
      </trkpt>
      <trkpt lat="48.666523" lon="9.914357">
        <ele>664.544340</ele>
        <time>2025-05-18T20:06:45.852Z</time>
      </trkpt>
      <trkpt lat="48.669024" lon="9.915635">
        <ele>663.612304</ele>
        <time>2025-05-18T20:07:39.146Z</time>
      </trkpt>
      <trkpt lat="48.669376" lon="9.915804">
        <ele>663.832131</ele>
        <time>2025-05-18T20:07:47.555Z</time>
      </trkpt>
      <trkpt lat="48.670583" lon="9.916534">
        <ele>666.749583</ele>
        <time>2025-05-18T20:08:18.586Z</time>
      </trkpt>
      <trkpt lat="48.671152" lon="9.916946">
        <ele>668.639353</ele>
        <time>2025-05-18T20:08:34.339Z</time>
      </trkpt>
      <trkpt lat="48.671675" lon="9.917403">
        <ele>670.071816</ele>
        <time>2025-05-18T20:08:49.298Z</time>
      </trkpt>
      <trkpt lat="48.671954" lon="9.917636">
        <ele>670.661309</ele>
        <time>2025-05-18T20:08:56.959Z</time>
      </trkpt>
      <trkpt lat="48.672359" lon="9.917983">
        <ele>671.522252</ele>
        <time>2025-05-18T20:09:07.849Z</time>
      </trkpt>
      <trkpt lat="48.672983" lon="9.918604">
        <ele>672.771678</ele>
        <time>2025-05-18T20:09:24.461Z</time>
      </trkpt>
      <trkpt lat="48.674602" lon="9.920355">
        <ele>671.825633</ele>
        <time>2025-05-18T20:10:04.676Z</time>
      </trkpt>
      <trkpt lat="48.674827" lon="9.920565">
        <ele>671.424126</ele>
        <time>2025-05-18T20:10:09.791Z</time>
      </trkpt>
      <trkpt lat="48.676117" lon="9.921602">
        <ele>669.089914</ele>
        <time>2025-05-18T20:10:35.916Z</time>
      </trkpt>
      <trkpt lat="48.676370" lon="9.921843">
        <ele>668.441537</ele>
        <time>2025-05-18T20:10:40.937Z</time>
      </trkpt>
      <trkpt lat="48.677053" lon="9.922638">
        <ele>666.572836</ele>
        <time>2025-05-18T20:10:55.280Z</time>
      </trkpt>
      <trkpt lat="48.677570" lon="9.923361">
        <ele>666.035110</ele>
        <time>2025-05-18T20:11:07.933Z</time>
      </trkpt>
      <trkpt lat="48.678035" lon="9.924067">
        <ele>667.285027</ele>
        <time>2025-05-18T20:11:22.551Z</time>
      </trkpt>
      <trkpt lat="48.679120" lon="9.925962">
        <ele>672.436503</ele>
        <time>2025-05-18T20:12:04.726Z</time>
      </trkpt>
      <trkpt lat="48.679393" lon="9.926534">
        <ele>674.553719</ele>
        <time>2025-05-18T20:12:17.147Z</time>
      </trkpt>
      <trkpt lat="48.679820" lon="9.927334">
        <ele>677.671407</ele>
        <time>2025-05-18T20:12:35.122Z</time>
      </trkpt>
      <trkpt lat="48.680001" lon="9.927674">
        <ele>679.068412</ele>
        <time>2025-05-18T20:12:42.844Z</time>
      </trkpt>
      <trkpt lat="48.680058" lon="9.927776">
        <ele>679.495844</ele>
        <time>2025-05-18T20:12:45.209Z</time>
      </trkpt>
      <trkpt lat="48.680498" lon="9.928545">
        <ele>682.750685</ele>
        <time>2025-05-18T20:13:03.191Z</time>
      </trkpt>
      <trkpt lat="48.680607" lon="9.928626">
        <ele>683.338872</ele>
        <time>2025-05-18T20:13:06.419Z</time>
      </trkpt>
      <trkpt lat="48.680643" lon="9.928586">
        <ele>683.555172</ele>
        <time>2025-05-18T20:13:07.596Z</time>
      </trkpt>
      <trkpt lat="48.681177" lon="9.929407">
        <ele>686.946251</ele>
        <time>2025-05-18T20:13:27.649Z</time>
      </trkpt>
      <trkpt lat="48.681665" lon="9.930132">
        <ele>689.543379</ele>
        <time>2025-05-18T20:13:44.935Z</time>
      </trkpt>
      <trkpt lat="48.682356" lon="9.930849">
        <ele>692.716160</ele>
        <time>2025-05-18T20:14:05.580Z</time>
      </trkpt>
      <trkpt lat="48.682509" lon="9.930997">
        <ele>693.056158</ele>
        <time>2025-05-18T20:14:10.023Z</time>
      </trkpt>
      <trkpt lat="48.682877" lon="9.931290">
        <ele>693.834786</ele>
        <time>2025-05-18T20:14:20.059Z</time>
      </trkpt>
      <trkpt lat="48.682952" lon="9.931331">
        <ele>693.984118</ele>
        <time>2025-05-18T20:14:21.962Z</time>
      </trkpt>
      <trkpt lat="48.683207" lon="9.931469">
        <ele>694.491262</ele>
        <time>2025-05-18T20:14:28.428Z</time>
      </trkpt>
      <trkpt lat="48.683251" lon="9.931489">
        <ele>694.577297</ele>
        <time>2025-05-18T20:14:29.517Z</time>
      </trkpt>
      <trkpt lat="48.683503" lon="9.931613">
        <ele>695.073534</ele>
        <time>2025-05-18T20:14:35.664Z</time>
      </trkpt>
      <trkpt lat="48.683473" lon="9.931729">
        <ele>695.227578</ele>
        <time>2025-05-18T20:14:37.991Z</time>
      </trkpt>
      <trkpt lat="48.683584" lon="9.931780">
        <ele>695.444818</ele>
        <time>2025-05-18T20:14:41.224Z</time>
      </trkpt>
      <trkpt lat="48.683701" lon="9.931834">
        <ele>695.673888</ele>
        <time>2025-05-18T20:14:44.596Z</time>
      </trkpt>
      <trkpt lat="48.683744" lon="9.931730">
        <ele>695.825617</ele>
        <time>2025-05-18T20:14:46.801Z</time>
      </trkpt>
      <trkpt lat="48.683879" lon="9.931796">
        <ele>696.071081</ele>
        <time>2025-05-18T20:14:49.726Z</time>
      </trkpt>
      <trkpt lat="48.684133" lon="9.931920">
        <ele>695.933101</ele>
        <time>2025-05-18T20:14:55.424Z</time>
      </trkpt>
      <trkpt lat="48.684165" lon="9.931937">
        <ele>695.915567</ele>
        <time>2025-05-18T20:14:56.139Z</time>
      </trkpt>
      <trkpt lat="48.684745" lon="9.932266">
        <ele>695.595346</ele>
        <time>2025-05-18T20:15:08.832Z</time>
      </trkpt>
      <trkpt lat="48.684877" lon="9.931816">
        <ele>695.427260</ele>
        <time>2025-05-18T20:15:15.543Z</time>
      </trkpt>
      <trkpt lat="48.685410" lon="9.930719">
        <ele>694.400662</ele>
        <time>2025-05-18T20:15:33.695Z</time>
      </trkpt>
      <trkpt lat="48.685560" lon="9.930751">
        <ele>694.082168</ele>
        <time>2025-05-18T20:15:36.639Z</time>
      </trkpt>
      <trkpt lat="48.686282" lon="9.930563">
        <ele>692.541870</ele>
        <time>2025-05-18T20:15:49.726Z</time>
      </trkpt>
      <trkpt lat="48.686439" lon="9.930476">
        <ele>692.190376</ele>
        <time>2025-05-18T20:15:52.649Z</time>
      </trkpt>
      <trkpt lat="48.686887" lon="9.930102">
        <ele>691.151232</ele>
        <time>2025-05-18T20:16:01.510Z</time>
      </trkpt>
      <trkpt lat="48.687924" lon="9.929461">
        <ele>689.140485</ele>
        <time>2025-05-18T20:16:21.940Z</time>
      </trkpt>
      <trkpt lat="48.688510" lon="9.928918">
        <ele>688.273366</ele>
        <time>2025-05-18T20:16:35.794Z</time>
      </trkpt>
      <trkpt lat="48.688551" lon="9.928894">
        <ele>688.321469</ele>
        <time>2025-05-18T20:16:36.724Z</time>
      </trkpt>
      <trkpt lat="48.688739" lon="9.928784">
        <ele>688.542028</ele>
        <time>2025-05-18T20:16:41.098Z</time>
      </trkpt>
      <trkpt lat="48.688997" lon="9.928711">
        <ele>688.829262</ele>
        <time>2025-05-18T20:16:46.976Z</time>
      </trkpt>
      <trkpt lat="48.689473" lon="9.928805">
        <ele>689.354596</ele>
        <time>2025-05-18T20:16:58.210Z</time>
      </trkpt>
      <trkpt lat="48.689734" lon="9.928907">
        <ele>689.649582</ele>
        <time>2025-05-18T20:17:04.686Z</time>
      </trkpt>
      <trkpt lat="48.690113" lon="9.929056">
        <ele>690.078093</ele>
        <time>2025-05-18T20:17:14.356Z</time>
      </trkpt>
      <trkpt lat="48.690423" lon="9.929081">
        <ele>690.603539</ele>
        <time>2025-05-18T20:17:22.083Z</time>
      </trkpt>
      <trkpt lat="48.691127" lon="9.929047">
        <ele>691.829211</ele>
        <time>2025-05-18T20:17:39.247Z</time>
      </trkpt>
      <trkpt lat="48.691549" lon="9.928941">
        <ele>692.573570</ele>
        <time>2025-05-18T20:17:49.111Z</time>
      </trkpt>
      <trkpt lat="48.692510" lon="9.928700">
        <ele>692.529714</ele>
        <time>2025-05-18T20:18:09.630Z</time>
      </trkpt>
      <trkpt lat="48.693180" lon="9.928532">
        <ele>691.727226</ele>
        <time>2025-05-18T20:18:22.039Z</time>
      </trkpt>
      <trkpt lat="48.693552" lon="9.930281">
        <ele>689.556174</ele>
        <time>2025-05-18T20:18:42.957Z</time>
      </trkpt>
      <trkpt lat="48.693980" lon="9.932244">
        <ele>686.512444</ele>
        <time>2025-05-18T20:19:06.452Z</time>
      </trkpt>
      <trkpt lat="48.695576" lon="9.932738">
        <ele>682.930252</ele>
        <time>2025-05-18T20:19:36.774Z</time>
      </trkpt>
      <trkpt lat="48.697392" lon="9.933326">
        <ele>676.546484</ele>
        <time>2025-05-18T20:20:07.844Z</time>
      </trkpt>
      <trkpt lat="48.699067" lon="9.933848">
        <ele>670.479735</ele>
        <time>2025-05-18T20:20:35.902Z</time>
      </trkpt>
      <trkpt lat="48.701273" lon="9.934281">
        <ele>667.515823</ele>
        <time>2025-05-18T20:21:21.635Z</time>
      </trkpt>
      <trkpt lat="48.701650" lon="9.934560">
        <ele>666.923643</ele>
        <time>2025-05-18T20:21:29.804Z</time>
      </trkpt>
      <trkpt lat="48.703470" lon="9.936074">
        <ele>664.197068</ele>
        <time>2025-05-18T20:22:08.591Z</time>
      </trkpt>
      <trkpt lat="48.704214" lon="9.936863">
        <ele>663.424825</ele>
        <time>2025-05-18T20:22:28.272Z</time>
      </trkpt>
      <trkpt lat="48.705381" lon="9.938170">
        <ele>663.408669</ele>
        <time>2025-05-18T20:23:00.202Z</time>
      </trkpt>
      <trkpt lat="48.706340" lon="9.939245">
        <ele>663.717266</ele>
        <time>2025-05-18T20:23:26.554Z</time>
      </trkpt>
      <trkpt lat="48.707699" lon="9.940796">
        <ele>663.906010</ele>
        <time>2025-05-18T20:24:05.401Z</time>
      </trkpt>
      <trkpt lat="48.707801" lon="9.941021">
        <ele>663.907195</ele>
        <time>2025-05-18T20:24:09.285Z</time>
      </trkpt>
      <trkpt lat="48.707893" lon="9.942910">
        <ele>663.302638</ele>
        <time>2025-05-18T20:24:34.806Z</time>
      </trkpt>
      <trkpt lat="48.708045" lon="9.946231">
        <ele>661.252382</ele>
        <time>2025-05-18T20:25:17.632Z</time>
      </trkpt>
      <trkpt lat="48.711479" lon="9.946355">
        <ele>658.928128</ele>
        <time>2025-05-18T20:26:24.025Z</time>
      </trkpt>
      <trkpt lat="48.715212" lon="9.945691">
        <ele>663.355057</ele>
        <time>2025-05-18T20:27:50.249Z</time>
      </trkpt>
      <trkpt lat="48.716710" lon="9.945400">
        <ele>665.293873</ele>
        <time>2025-05-18T20:28:24.806Z</time>
      </trkpt>
      <trkpt lat="48.718189" lon="9.945163">
        <ele>667.202084</ele>
        <time>2025-05-18T20:28:58.113Z</time>
      </trkpt>
      <trkpt lat="48.718498" lon="9.945036">
        <ele>667.722056</ele>
        <time>2025-05-18T20:29:05.568Z</time>
      </trkpt>
      <trkpt lat="48.719264" lon="9.944706">
        <ele>669.015396</ele>
        <time>2025-05-18T20:29:32.245Z</time>
      </trkpt>
      <trkpt lat="48.720290" lon="9.944369">
        <ele>669.517805</ele>
        <time>2025-05-18T20:30:07.747Z</time>
      </trkpt>
      <trkpt lat="48.720466" lon="9.944366">
        <ele>669.549132</ele>
        <time>2025-05-18T20:30:13.832Z</time>
      </trkpt>
      <trkpt lat="48.721080" lon="9.944231">
        <ele>669.659556</ele>
        <time>2025-05-18T20:30:34.956Z</time>
      </trkpt>
      <trkpt lat="48.721686" lon="9.943979">
        <ele>669.463013</ele>
        <time>2025-05-18T20:30:55.371Z</time>
      </trkpt>
      <trkpt lat="48.722904" lon="9.943360">
        <ele>668.826267</ele>
        <time>2025-05-18T20:31:39.771Z</time>
      </trkpt>
      <trkpt lat="48.724741" lon="9.942109">
        <ele>671.570963</ele>
        <time>2025-05-18T20:32:47.648Z</time>
      </trkpt>
      <trkpt lat="48.725470" lon="9.941635">
        <ele>672.994257</ele>
        <time>2025-05-18T20:33:14.230Z</time>
      </trkpt>
      <trkpt lat="48.726052" lon="9.941434">
        <ele>674.065300</ele>
        <time>2025-05-18T20:33:34.296Z</time>
      </trkpt>
      <trkpt lat="48.726351" lon="9.941879">
        <ele>674.456773</ele>
        <time>2025-05-18T20:33:43.907Z</time>
      </trkpt>
      <trkpt lat="48.726813" lon="9.942340">
        <ele>674.273332</ele>
        <time>2025-05-18T20:33:55.838Z</time>
      </trkpt>
      <trkpt lat="48.726977" lon="9.942505">
        <ele>674.208051</ele>
        <time>2025-05-18T20:33:59.704Z</time>
      </trkpt>
      <trkpt lat="48.727681" lon="9.943032">
        <ele>673.947648</ele>
        <time>2025-05-18T20:34:14.824Z</time>
      </trkpt>
      <trkpt lat="48.728131" lon="9.943590">
        <ele>673.337727</ele>
        <time>2025-05-18T20:34:25.546Z</time>
      </trkpt>
      <trkpt lat="48.729959" lon="9.946181">
        <ele>670.262278</ele>
        <time>2025-05-18T20:35:13.286Z</time>
      </trkpt>
      <trkpt lat="48.731933" lon="9.949094">
        <ele>666.259479</ele>
        <time>2025-05-18T20:36:03.946Z</time>
      </trkpt>
      <trkpt lat="48.733029" lon="9.950805">
        <ele>663.925419</ele>
        <time>2025-05-18T20:36:32.335Z</time>
      </trkpt>
      <trkpt lat="48.734892" lon="9.954208">
        <ele>662.401035</ele>
        <time>2025-05-18T20:37:31.134Z</time>
      </trkpt>
      <trkpt lat="48.735086" lon="9.954563">
        <ele>662.318405</ele>
        <time>2025-05-18T20:37:37.515Z</time>
      </trkpt>
      <trkpt lat="48.735792" lon="9.955869">
        <ele>662.743535</ele>
        <time>2025-05-18T20:38:01.674Z</time>
      </trkpt>
      <trkpt lat="48.735891" lon="9.956155">
        <ele>662.865811</ele>
        <time>2025-05-18T20:38:06.478Z</time>
      </trkpt>
      <trkpt lat="48.735880" lon="9.956304">
        <ele>662.922570</ele>
        <time>2025-05-18T20:38:08.683Z</time>
      </trkpt>
      <trkpt lat="48.735935" lon="9.956518">
        <ele>663.009517</ele>
        <time>2025-05-18T20:38:12.192Z</time>
      </trkpt>
      <trkpt lat="48.736023" lon="9.956707">
        <ele>663.097099</ele>
        <time>2025-05-18T20:38:15.708Z</time>
      </trkpt>
      <trkpt lat="48.736183" lon="9.957183">
        <ele>663.291262</ele>
        <time>2025-05-18T20:38:23.814Z</time>
      </trkpt>
      <trkpt lat="48.736258" lon="9.957406">
        <ele>663.341828</ele>
        <time>2025-05-18T20:38:27.615Z</time>
      </trkpt>
      <trkpt lat="48.736613" lon="9.958403">
        <ele>663.570700</ele>
        <time>2025-05-18T20:38:44.705Z</time>
      </trkpt>
      <trkpt lat="48.736942" lon="9.959240">
        <ele>663.767525</ele>
        <time>2025-05-18T20:38:58.705Z</time>
      </trkpt>
      <trkpt lat="48.737185" lon="9.959593">
        <ele>663.803528</ele>
        <time>2025-05-18T20:39:05.986Z</time>
      </trkpt>
      <trkpt lat="48.737352" lon="9.959900">
        <ele>663.740879</ele>
        <time>2025-05-18T20:39:11.699Z</time>
      </trkpt>
      <trkpt lat="48.737757" lon="9.961328">
        <ele>663.496166</ele>
        <time>2025-05-18T20:39:33.864Z</time>
      </trkpt>
      <trkpt lat="48.738220" lon="9.962530">
        <ele>662.962643</ele>
        <time>2025-05-18T20:39:53.346Z</time>
      </trkpt>
      <trkpt lat="48.738500" lon="9.963025">
        <ele>662.604902</ele>
        <time>2025-05-18T20:40:02.266Z</time>
      </trkpt>
      <trkpt lat="48.738767" lon="9.963357">
        <ele>662.317686</ele>
        <time>2025-05-18T20:40:09.285Z</time>
      </trkpt>
      <trkpt lat="48.739126" lon="9.963389">
        <ele>662.018556</ele>
        <time>2025-05-18T20:40:16.410Z</time>
      </trkpt>
      <trkpt lat="48.739217" lon="9.963458">
        <ele>661.933926</ele>
        <time>2025-05-18T20:40:18.401Z</time>
      </trkpt>
      <trkpt lat="48.739302" lon="9.963578">
        <ele>661.768890</ele>
        <time>2025-05-18T20:40:20.659Z</time>
      </trkpt>
      <trkpt lat="48.740182" lon="9.965777">
        <ele>658.981086</ele>
        <time>2025-05-18T20:40:52.816Z</time>
      </trkpt>
      <trkpt lat="48.740279" lon="9.966009">
        <ele>658.615397</ele>
        <time>2025-05-18T20:40:57.136Z</time>
      </trkpt>
      <trkpt lat="48.740411" lon="9.966314">
        <ele>658.119771</ele>
        <time>2025-05-18T20:41:02.879Z</time>
      </trkpt>
      <trkpt lat="48.741383" lon="9.967868">
        <ele>655.217381</ele>
        <time>2025-05-18T20:41:27.397Z</time>
      </trkpt>
      <trkpt lat="48.741422" lon="9.968086">
        <ele>654.973252</ele>
        <time>2025-05-18T20:41:30.055Z</time>
      </trkpt>
      <trkpt lat="48.741409" lon="9.968677">
        <ele>654.334150</ele>
        <time>2025-05-18T20:41:37.080Z</time>
      </trkpt>
      <trkpt lat="48.741313" lon="9.969606">
        <ele>653.317843</ele>
        <time>2025-05-18T20:41:48.397Z</time>
      </trkpt>
      <trkpt lat="48.740594" lon="9.973305">
        <ele>650.057443</ele>
        <time>2025-05-18T20:42:35.264Z</time>
      </trkpt>
      <trkpt lat="48.743554" lon="9.974866">
        <ele>651.290061</ele>
        <time>2025-05-18T20:43:46.812Z</time>
      </trkpt>
      <trkpt lat="48.745399" lon="9.976309">
        <ele>652.217863</ele>
        <time>2025-05-18T20:44:33.371Z</time>
      </trkpt>
      <trkpt lat="48.745758" lon="9.976572">
        <ele>652.377256</ele>
        <time>2025-05-18T20:44:42.689Z</time>
      </trkpt>
      <trkpt lat="48.746130" lon="9.976993">
        <ele>652.560116</ele>
        <time>2025-05-18T20:44:53.615Z</time>
      </trkpt>
      <trkpt lat="48.746293" lon="9.977282">
        <ele>652.658907</ele>
        <time>2025-05-18T20:44:59.450Z</time>
      </trkpt>
      <trkpt lat="48.746427" lon="9.977617">
        <ele>652.760691</ele>
        <time>2025-05-18T20:45:05.342Z</time>
      </trkpt>
      <trkpt lat="48.746527" lon="9.977949">
        <ele>652.855506</ele>
        <time>2025-05-18T20:45:10.585Z</time>
      </trkpt>
      <trkpt lat="48.747695" lon="9.977397">
        <ele>651.462677</ele>
        <time>2025-05-18T20:45:34.341Z</time>
      </trkpt>
      <trkpt lat="48.747814" lon="9.977341">
        <ele>651.271857</ele>
        <time>2025-05-18T20:45:36.581Z</time>
      </trkpt>
      <trkpt lat="48.749411" lon="9.976635">
        <ele>648.688769</ele>
        <time>2025-05-18T20:46:07.618Z</time>
      </trkpt>
      <trkpt lat="48.749753" lon="9.977495">
        <ele>647.650213</ele>
        <time>2025-05-18T20:46:20.086Z</time>
      </trkpt>
      <trkpt lat="48.749902" lon="9.978117">
        <ele>647.185651</ele>
        <time>2025-05-18T20:46:29.264Z</time>
      </trkpt>
      <trkpt lat="48.749994" lon="9.978813">
        <ele>646.842720</ele>
        <time>2025-05-18T20:46:39.309Z</time>
      </trkpt>
      <trkpt lat="48.750069" lon="9.978795">
        <ele>646.787084</ele>
        <time>2025-05-18T20:46:41.411Z</time>
      </trkpt>
      <trkpt lat="48.750097" lon="9.978846">
        <ele>646.755022</ele>
        <time>2025-05-18T20:46:42.583Z</time>
      </trkpt>
      <trkpt lat="48.750161" lon="9.979364">
        <ele>646.500420</ele>
        <time>2025-05-18T20:46:51.965Z</time>
      </trkpt>
      <trkpt lat="48.750337" lon="9.979337">
        <ele>646.370806</ele>
        <time>2025-05-18T20:46:56.686Z</time>
      </trkpt>
      <trkpt lat="48.750468" lon="9.979308">
        <ele>646.273805</ele>
        <time>2025-05-18T20:47:05.872Z</time>
      </trkpt>
      <trkpt lat="48.750505" lon="9.979271">
        <ele>646.241333</ele>
        <time>2025-05-18T20:47:08.983Z</time>
      </trkpt>
      <trkpt lat="48.750532" lon="9.979074">
        <ele>646.144128</ele>
        <time>2025-05-18T20:47:18.185Z</time>
      </trkpt>
      <trkpt lat="48.751059" lon="9.978981">
        <ele>645.436196</ele>
        <time>2025-05-18T20:47:55.123Z</time>
      </trkpt>
      <trkpt lat="48.751698" lon="9.978862">
        <ele>644.470972</ele>
        <time>2025-05-18T20:48:39.819Z</time>
      </trkpt>
      <trkpt lat="48.751673" lon="9.979037">
        <ele>644.293971</ele>
        <time>2025-05-18T20:48:41.944Z</time>
      </trkpt>
      <trkpt lat="48.751742" lon="9.979045">
        <ele>644.190220</ele>
        <time>2025-05-18T20:48:46.760Z</time>
      </trkpt>
      <trkpt lat="48.751729" lon="9.979243">
        <ele>643.993529</ele>
        <time>2025-05-18T20:48:49.119Z</time>
      </trkpt>
      <trkpt lat="48.751700" lon="9.979693">
        <ele>643.546585</ele>
        <time>2025-05-18T20:48:54.536Z</time>
      </trkpt>
      <trkpt lat="48.751634" lon="9.980726">
        <ele>642.963787</ele>
        <time>2025-05-18T20:49:07.942Z</time>
      </trkpt>
      <trkpt lat="48.751629" lon="9.980814">
        <ele>642.922361</ele>
        <time>2025-05-18T20:49:09.120Z</time>
      </trkpt>
      <trkpt lat="48.751579" lon="9.981596">
        <ele>642.553869</ele>
        <time>2025-05-18T20:49:19.752Z</time>
      </trkpt>
      <trkpt lat="48.751407" lon="9.984152">
        <ele>641.018512</ele>
        <time>2025-05-18T20:49:53.211Z</time>
      </trkpt>
      <trkpt lat="48.751361" lon="9.984802">
        <ele>640.574202</ele>
        <time>2025-05-18T20:50:01.371Z</time>
      </trkpt>
      <trkpt lat="48.751360" lon="9.985299">
        <ele>640.236414</ele>
        <time>2025-05-18T20:50:07.425Z</time>
      </trkpt>
      <trkpt lat="48.751386" lon="9.985505">
        <ele>640.202359</ele>
        <time>2025-05-18T20:50:09.965Z</time>
      </trkpt>
      <trkpt lat="48.751422" lon="9.985712">
        <ele>640.172579</ele>
        <time>2025-05-18T20:50:12.548Z</time>
      </trkpt>
      <trkpt lat="48.751552" lon="9.986128">
        <ele>640.108538</ele>
        <time>2025-05-18T20:50:18.047Z</time>
      </trkpt>
      <trkpt lat="48.752094" lon="9.987374">
        <ele>639.900883</ele>
        <time>2025-05-18T20:50:38.007Z</time>
      </trkpt>
      <trkpt lat="48.752202" lon="9.987305">
        <ele>639.876157</ele>
        <time>2025-05-18T20:50:40.680Z</time>
      </trkpt>
      <trkpt lat="48.752758" lon="9.987405">
        <ele>639.850788</ele>
        <time>2025-05-18T20:50:53.983Z</time>
      </trkpt>
      <trkpt lat="48.753028" lon="9.987394">
        <ele>639.850788</ele>
        <time>2025-05-18T20:51:00.734Z</time>
      </trkpt>
      <trkpt lat="48.753121" lon="9.987383">
        <ele>639.850788</ele>
        <time>2025-05-18T20:51:03.099Z</time>
      </trkpt>
      <trkpt lat="48.753434" lon="9.987346">
        <ele>639.850788</ele>
        <time>2025-05-18T20:51:11.227Z</time>
      </trkpt>
      <trkpt lat="48.753659" lon="9.987326">
        <ele>639.850788</ele>
        <time>2025-05-18T20:51:17.006Z</time>
      </trkpt>
      <trkpt lat="48.753831" lon="9.987320">
        <ele>639.850788</ele>
        <time>2025-05-18T20:51:21.359Z</time>
      </trkpt>
      <trkpt lat="48.753988" lon="9.986801">
        <ele>639.850788</ele>
        <time>2025-05-18T20:51:30.831Z</time>
      </trkpt>
      <trkpt lat="48.754120" lon="9.986772">
        <ele>639.850788</ele>
        <time>2025-05-18T20:51:34.270Z</time>
      </trkpt>
      <trkpt lat="48.754120" lon="9.986773">
        <ele>639.850788</ele>
        <time>2025-05-18T20:51:34.303Z</time>
      </trkpt>
      <trkpt lat="48.754124" lon="9.986775">
        <ele>639.850788</ele>
        <time>2025-05-18T20:51:34.408Z</time>
      </trkpt>
      <trkpt lat="48.754120" lon="9.986775">
        <ele>639.850788</ele>
        <time>2025-05-18T20:51:34.507Z</time>
      </trkpt>
      <trkpt lat="48.754124" lon="9.986775">
        <ele>639.850788</ele>
        <time>2025-05-18T20:51:34.607Z</time>
      </trkpt>
      <trkpt lat="48.754124" lon="9.986776">
        <ele>639.850788</ele>
        <time>2025-05-18T20:51:34.623Z</time>
      </trkpt>
      <trkpt lat="48.754127" lon="9.986776">
        <ele>639.850788</ele>
        <time>2025-05-18T20:51:34.720Z</time>
      </trkpt>
      <trkpt lat="48.754127" lon="9.986778">
        <ele>639.850788</ele>
        <time>2025-05-18T20:51:34.753Z</time>
      </trkpt>
      <trkpt lat="48.754131" lon="9.986778">
        <ele>639.850788</ele>
        <time>2025-05-18T20:51:34.853Z</time>
      </trkpt>
      <trkpt lat="48.754127" lon="9.986778">
        <ele>639.850788</ele>
        <time>2025-05-18T20:51:34.953Z</time>
      </trkpt>
      <trkpt lat="48.754131" lon="9.986780">
        <ele>639.850788</ele>
        <time>2025-05-18T20:51:35.058Z</time>
      </trkpt>
      <trkpt lat="48.754135" lon="9.986782">
        <ele>639.850788</ele>
        <time>2025-05-18T20:51:35.161Z</time>
      </trkpt>
      <trkpt lat="48.754135" lon="9.986783">
        <ele>639.850788</ele>
        <time>2025-05-18T20:51:35.176Z</time>
      </trkpt>
      <trkpt lat="48.754135" lon="9.986785">
        <ele>639.850788</ele>
        <time>2025-05-18T20:51:35.209Z</time>
      </trkpt>
      <trkpt lat="48.754135" lon="9.986787">
        <ele>639.850788</ele>
        <time>2025-05-18T20:51:35.242Z</time>
      </trkpt>
      <trkpt lat="48.754135" lon="9.986789">
        <ele>639.850788</ele>
        <time>2025-05-18T20:51:35.274Z</time>
      </trkpt>
      <trkpt lat="48.754139" lon="9.986789">
        <ele>639.850788</ele>
        <time>2025-05-18T20:51:35.373Z</time>
      </trkpt>
      <trkpt lat="48.754139" lon="9.986790">
        <ele>639.850788</ele>
        <time>2025-05-18T20:51:35.391Z</time>
      </trkpt>
      <trkpt lat="48.754143" lon="9.986790">
        <ele>639.850788</ele>
        <time>2025-05-18T20:51:35.488Z</time>
      </trkpt>
      <trkpt lat="48.754143" lon="9.986792">
        <ele>639.850788</ele>
        <time>2025-05-18T20:51:35.520Z</time>
      </trkpt>
      <trkpt lat="48.754143" lon="9.986793">
        <ele>639.850788</ele>
        <time>2025-05-18T20:51:35.552Z</time>
      </trkpt>
      <trkpt lat="48.754147" lon="9.986795">
        <ele>639.850788</ele>
        <time>2025-05-18T20:51:35.657Z</time>
      </trkpt>
      <trkpt lat="48.754147" lon="9.986796">
        <ele>639.850788</ele>
        <time>2025-05-18T20:51:35.673Z</time>
      </trkpt>
      <trkpt lat="48.754143" lon="9.986796">
        <ele>639.850788</ele>
        <time>2025-05-18T20:51:35.773Z</time>
      </trkpt>
      <trkpt lat="48.754143" lon="9.986798">
        <ele>639.850788</ele>
        <time>2025-05-18T20:51:35.806Z</time>
      </trkpt>
      <trkpt lat="48.754143" lon="9.986800">
        <ele>639.850788</ele>
        <time>2025-05-18T20:51:35.839Z</time>
      </trkpt>
      <trkpt lat="48.754143" lon="9.986802">
        <ele>639.850788</ele>
        <time>2025-05-18T20:51:35.871Z</time>
      </trkpt>
      <trkpt lat="48.754147" lon="9.986803">
        <ele>639.850788</ele>
        <time>2025-05-18T20:51:35.972Z</time>
      </trkpt>
      <trkpt lat="48.754147" lon="9.986805">
        <ele>639.850788</ele>
        <time>2025-05-18T20:51:36.005Z</time>
      </trkpt>
      <trkpt lat="48.754147" lon="9.986807">
        <ele>639.850788</ele>
        <time>2025-05-18T20:51:36.037Z</time>
      </trkpt>
      <trkpt lat="48.754147" lon="9.986809">
        <ele>639.850788</ele>
        <time>2025-05-18T20:51:36.070Z</time>
      </trkpt>
      <trkpt lat="48.754147" lon="9.986810">
        <ele>639.850788</ele>
        <time>2025-05-18T20:51:36.087Z</time>
      </trkpt>
      <trkpt lat="48.754150" lon="9.986810">
        <ele>639.850788</ele>
        <time>2025-05-18T20:51:36.184Z</time>
      </trkpt>
      <trkpt lat="48.754150" lon="9.986812">
        <ele>639.850788</ele>
        <time>2025-05-18T20:51:36.216Z</time>
      </trkpt>
      <trkpt lat="48.754150" lon="9.986813">
        <ele>639.850788</ele>
        <time>2025-05-18T20:51:36.249Z</time>
      </trkpt>
      <trkpt lat="48.754154" lon="9.986813">
        <ele>639.850788</ele>
        <time>2025-05-18T20:51:36.348Z</time>
      </trkpt>
      <trkpt lat="48.754154" lon="9.986814">
        <ele>639.850788</ele>
        <time>2025-05-18T20:51:36.364Z</time>
      </trkpt>
      <trkpt lat="48.754154" lon="9.986813">
        <ele>639.850788</ele>
        <time>2025-05-18T20:51:36.380Z</time>
      </trkpt>
      <trkpt lat="48.754154" lon="9.986814">
        <ele>639.850788</ele>
        <time>2025-05-18T20:51:36.396Z</time>
      </trkpt>
      <trkpt lat="48.754154" lon="9.986816">
        <ele>639.850788</ele>
        <time>2025-05-18T20:51:36.428Z</time>
      </trkpt>
    </trkseg>
  </trk>
</gpx>